GFSNGP_500_rhum_000.txt.gz
RH
81 77 70 64 48 36 34 25 29 26 22 26 23 34 52 48 38 32 20 16 12 9 8 8 8 8 8 9 10 11 14 19 22 29 33 34 41 43 48 48 44 48 49 52
51 48 45 39 28 27 25 25 23 29 43 46 45 47 38 30 18 10 9 10 10 10 10 10 10 10 10 10 11 11 12 12 15 21 27 31 36 37 39 45 50 51 50 52
27 26 26 26 32 38 46 59 53 48 39 35 29 18 12 12 13 12 11 11 13 13 13 12 12 12 12 12 12 13 13 17 24 26 26 29 41 45 44 48 49 51 55 56
25 24 23 36 58 43 24 17 16 16 13 12 11 14 14 13 13 15 14 14 15 16 16 15 15 15 15 15 16 16 16 22 30 52 60 65 64 60 62 70 64 55 51 58
35 41 53 38 18 19 20 17 12 10 12 14 15 15 15 15 17 18 18 18 18 18 17 15 13 13 14 14 14 15 26 50 67 79 88 86 80 79 77 75 80 79 75 74
52 47 36 23 17 13 11 12 12 14 14 15 17 19 19 19 17 18 19 19 18 17 14 12 11 12 12 17 36 60 78 89 88 95 88 72 77 88 90 94 89 83 75 70
19 20 20 16 16 18 19 18 18 18 19 22 22 20 20 19 19 20 19 18 15 12 11 11 14 20 33 56 84 88 96 100 100 96 90 90 89 90 87 81 77 71 65 57
22 21 20 21 23 23 23 25 26 26 24 23 23 22 21 19 18 16 14 12 10 9 11 24 46 69 82 88 93 94 97 99 100 100 96 88 78 70 61 53 46 41 34 26
23 23 27 26 26 26 30 30 26 25 24 23 22 22 21 19 15 12 8 7 11 24 48 82 98 97 98 100 90 87 93 92 81 66 50 43 38 32 27 23 19 16 13 11
28 32 34 33 34 32 31 29 27 27 27 27 25 22 20 17 12 9 10 29 41 79 100 100 100 100 94 89 89 87 70 52 48 47 48 40 30 24 20 16 13 10 9 8
30 36 31 35 35 35 33 33 34 32 26 24 22 19 16 13 12 16 34 67 98 100 100 100 89 86 92 84 66 53 52 54 54 44 33 28 23 20 16 10 8 6 5 5
38 43 44 42 42 40 39 36 28 27 26 22 16 12 12 15 25 43 67 79 98 100 86 78 88 97 80 61 54 54 55 45 34 29 27 26 23 15 9 8 8 9 8 6
54 55 51 48 43 38 33 31 30 23 19 17 14 12 11 18 36 57 69 77 81 77 80 87 82 58 48 49 54 55 44 38 35 33 30 25 15 9 7 10 13 11 10 8
53 48 43 40 36 33 32 29 25 22 20 17 13 9 21 42 60 70 77 79 82 84 93 78 59 56 59 60 55 48 44 40 34 29 22 13 11 12 13 12 10 11 13 12
46 43 40 35 32 30 27 25 21 19 17 13 12 31 50 62 72 80 85 82 76 76 74 64 61 60 58 54 47 41 35 29 23 16 14 16 17 17 14 10 10 10 13 14
44 40 36 34 32 30 26 22 20 17 13 28 47 57 65 71 78 84 85 82 79 70 63 60 55 52 48 42 34 28 20 16 16 19 22 24 20 14 10 10 10 13 15 13
44 42 41 38 34 30 26 22 17 14 28 48 55 64 77 80 87 92 86 74 65 59 56 50 42 37 29 21 15 13 15 20 30 29 30 21 15 13 14 15 14 13 12 8
51 50 45 38 36 33 24 17 16 29 48 58 73 84 87 91 86 75 64 59 56 48 39 32 23 15 11 14 21 28 34 35 35 32 20 17 21 22 18 15 13 11 10 10
55 50 43 39 36 28 18 14 28 49 59 76 86 89 85 78 68 61 55 46 37 29 21 16 13 16 23 27 28 29 35 39 30 18 20 26 22 21 27 31 32 34 28 23
52 44 41 36 27 16 17 37 53 59 74 85 85 82 75 66 57 46 34 26 22 19 13 15 22 23 23 27 35 38 37 23 15 20 27 23 21 27 44 52 50 46 33 32
47 43 36 24 18 34 49 58 66 82 90 85 84 75 63 48 32 25 25 21 14 14 22 27 24 26 33 35 32 23 15 14 19 22 22 20 20 31 49 50 50 50 44 40
40 31 20 21 42 55 59 69 82 87 87 85 72 51 34 27 27 24 16 13 16 27 26 24 30 34 35 26 15 14 17 20 20 19 20 28 35 39 44 44 40 34 47 49
29 18 27 52 64 71 82 88 88 89 83 63 41 34 31 28 21 13 11 24 27 23 21 28 34 33 20 13 16 18 18 18 20 32 45 55 53 50 46 42 41 32 36 43
23 44 63 73 85 93 95 98 92 79 58 43 38 34 30 21 13 18 25 27 28 32 32 32 23 16 15 17 17 18 20 32 50 56 53 53 50 48 49 50 51 41 41 37
54 63 75 91 97 98 100 97 79 57 47 44 39 32 21 14 16 24 31 34 34 27 15 14 16 18 18 18 19 23 39 54 55 52 48 51 54 58 61 55 46 43 49 41
76 80 92 100 100 100 97 83 63 52 50 45 38 25 16 17 26 32 34 25 12 11 15 17 18 17 17 18 26 44 56 57 56 53 36 48 52 52 58 47 68 86 84 51
82 93 100 100 100 99 90 74 59 58 52 44 34 19 15 21 31 32 18 12 15 16 16 16 16 18 30 48 60 60 57 54 54 52 38 43 61 60 55 54 81 80 62 53

GFSNGP_500_rhum_003.txt.gz
RH
76 75 71 73 63 58 51 37 41 36 34 48 34 35 41 41 42 36 23 13 13 13 12 12 12 14 14 14 12 12 12 13 13 13 13 13 13 14 15 18 23 37 47 48
82 75 63 43 40 35 32 33 33 37 48 36 32 24 13 12 14 13 13 14 14 14 16 17 17 16 15 14 14 15 16 17 16 14 13 12 12 12 13 22 51 69 91 97
52 39 33 33 36 37 41 51 39 25 15 13 12 14 13 13 13 14 16 18 20 20 20 19 18 18 17 17 17 17 16 16 15 14 12 10 11 17 33 50 66 68 66 68
31 32 32 39 47 56 49 14 17 14 14 12 14 14 15 17 17 19 21 22 22 20 20 21 20 19 18 17 16 15 14 12 10 11 14 21 36 54 66 78 86 92 96 96
23 29 44 59 55 40 24 18 18 14 14 18 22 23 24 25 25 25 24 23 24 23 21 18 16 17 17 16 15 13 10 11 17 30 46 59 66 72 74 73 73 73 77 77
64 61 57 45 38 30 23 18 15 18 23 25 27 27 26 26 25 25 26 25 22 20 18 17 17 15 12 10 9 8 12 22 42 64 73 74 74 72 74 75 70 67 64 60
36 28 24 25 24 22 22 22 23 23 24 26 28 30 30 28 29 28 24 22 20 18 17 13 12 11 10 10 12 21 42 68 76 77 72 71 67 64 55 45 37 30 24 22
29 29 27 26 25 24 24 23 26 27 30 33 33 32 31 30 29 24 22 20 18 17 15 12 12 14 23 34 53 71 77 71 70 68 66 62 50 41 39 38 31 26 23 21
33 33 32 30 27 28 28 29 33 38 40 39 35 33 31 26 23 22 21 20 19 15 12 14 27 42 48 61 76 75 70 74 74 66 52 42 42 46 44 40 36 31 24 18
34 38 39 40 36 34 39 46 47 48 44 39 37 32 28 25 22 21 19 16 12 11 16 38 52 66 75 83 81 73 71 71 60 51 50 51 46 44 40 37 31 24 16 11
41 42 41 46 46 50 51 48 45 41 39 37 32 29 27 26 22 18 15 12 11 19 39 55 69 86 96 92 82 79 70 66 64 60 50 44 42 38 32 25 18 11 9 8
44 46 49 53 54 52 48 43 39 37 34 31 30 30 28 24 19 16 14 12 15 35 54 73 87 94 91 85 80 71 63 59 55 47 38 30 25 19 14 10 10 12 17 15
49 52 54 54 56 52 47 42 38 35 34 34 34 30 25 21 19 18 15 13 29 58 78 86 89 90 85 73 64 60 54 45 34 26 20 16 12 11 10 12 22 25 22 16
48 56 65 67 62 56 50 46 42 40 38 37 32 27 24 22 21 17 12 25 55 73 84 87 86 77 63 58 53 43 30 22 18 15 13 13 17 20 22 21 19 21 18 14
66 79 80 71 68 65 58 50 45 43 42 37 30 26 25 23 18 17 41 64 79 88 90 85 73 62 55 41 26 20 19 15 12 13 15 16 22 30 35 31 20 16 19 24
82 85 79 76 74 66 57 51 48 46 40 34 30 27 24 17 29 51 66 80 87 85 80 71 58 37 24 20 19 16 11 14 15 15 23 31 38 36 23 19 20 22 20 17
86 85 89 82 71 62 56 53 48 40 34 30 27 23 19 32 48 65 86 87 83 76 62 41 25 20 21 16 10 12 15 16 27 30 31 30 23 16 18 22 21 19 25 36
90 91 83 73 67 61 56 48 39 33 30 28 22 23 35 52 69 84 84 83 75 48 28 23 22 18 11 11 15 16 19 29 28 23 18 14 14 15 18 19 16 16 30 48
86 81 78 76 64 57 49 40 35 32 28 22 24 38 54 69 77 80 80 65 37 25 25 23 16 12 15 18 17 23 29 29 21 13 13 14 16 18 18 17 15 14 28 46
82 83 74 65 59 49 41 37 34 28 22 35 54 62 69 79 81 78 57 36 30 27 24 17 12 17 20 23 27 27 21 16 12 13 16 17 17 17 17 17 17 17 22 38
74 69 60 50 43 38 35 32 24 23 40 60 67 71 76 83 77 55 39 32 31 27 20 12 18 25 23 21 15 11 11 13 15 16 16 17 19 24 31 37 39 37 34 40
66 59 52 45 38 34 30 21 24 42 64 74 76 82 85 82 59 44 39 35 30 26 15 14 25 20 9 8 10 12 14 15 15 16 18 25 38 46 45 42 40 41 37 41
62 55 47 40 35 28 18 25 47 66 78 82 87 89 88 69 52 43 37 35 30 21 12 18 21 9 10 11 12 13 14 15 16 19 24 38 49 46 43 44 47 48 51 47
55 47 40 35 26 12 24 53 74 83 86 88 94 94 82 61 52 48 41 36 27 16 13 24 20 10 11 12 13 14 15 20 32 41 49 51 49 46 40 43 46 49 55 50
46 39 34 24 12 32 61 75 84 87 90 96 99 95 76 63 53 46 42 32 21 12 17 26 17 11 12 14 14 20 39 53 53 50 48 50 48 48 38 48 52 57 52 49
38 30 17 9 35 65 76 82 87 88 90 98 100 88 71 62 54 49 37 23 14 12 24 27 15 13 15 14 19 41 57 60 56 44 36 35 42 44 38 56 62 56 63 74
13 10 12 43 68 81 90 92 89 91 96 98 93 80 69 58 54 43 30 17 11 16 28 22 14 16 15 18 42 58 60 61 50 47 54 59 56 52 47 63 61 58 72 58

GFSNGP_500_rhum_006.txt.gz
RH
36 41 41 39 37 48 60 60 53 40 39 40 40 38 38 36 24 14 14 16 17 17 18 20 21 22 23 22 20 20 20 18 15 13 12 11 11 11 12 10 8 8 9 12
76 68 70 77 75 66 55 42 34 35 44 50 43 21 13 13 16 19 22 24 24 25 26 26 25 24 23 22 22 21 18 15 12 9 9 9 9 8 7 7 8 8 13 28
91 95 94 90 72 59 47 38 38 40 34 16 12 16 19 25 27 28 28 27 26 24 24 24 24 23 23 23 20 15 12 10 8 8 8 7 8 8 8 10 16 36 51 54
89 91 72 53 45 46 41 37 42 32 11 15 21 26 29 29 28 26 26 24 26 28 27 26 26 25 20 17 13 10 9 8 8 8 8 10 12 19 32 41 46 45 45 44
33 32 32 32 33 36 47 43 26 19 22 23 23 25 26 26 26 29 32 32 32 32 30 26 22 18 15 11 10 10 10 10 9 10 17 30 42 51 48 46 44 40 34 31
21 20 22 31 36 47 39 30 27 26 26 25 24 24 28 29 34 37 37 34 31 28 24 20 18 13 11 12 12 12 11 12 20 40 54 59 59 58 49 38 33 36 38 43
76 65 58 49 42 29 30 28 28 27 26 27 28 31 32 36 36 35 33 30 25 23 22 20 14 14 14 14 14 13 18 37 54 63 70 74 71 63 55 55 50 49 45 35
51 37 34 34 30 31 31 31 31 34 33 32 31 32 35 36 35 32 28 26 26 26 23 17 17 16 16 15 15 23 39 56 69 78 85 78 71 66 54 44 37 34 29 24
37 36 35 35 35 35 35 36 37 36 37 38 39 39 37 34 31 29 29 28 27 25 20 20 19 18 17 16 22 42 60 74 81 81 76 70 55 45 38 31 24 20 18 16
34 36 37 36 38 38 40 40 42 46 48 48 45 41 38 35 35 34 33 30 29 25 24 22 20 18 15 20 44 61 67 75 81 78 64 52 39 27 21 19 17 13 10 9
36 40 41 43 42 42 44 49 53 55 56 53 48 46 45 42 40 38 36 34 30 27 23 20 18 17 23 44 58 70 80 81 68 55 38 25 20 19 16 11 10 9 11 12
42 45 45 44 45 46 49 58 63 66 64 60 55 52 48 47 45 41 36 34 29 24 22 19 17 27 42 59 71 77 74 62 39 24 20 19 16 11 10 13 18 23 32 34
43 43 45 48 49 54 63 66 66 68 66 63 60 56 54 50 45 40 37 31 26 23 20 17 24 42 53 68 74 67 39 22 21 20 15 10 10 11 13 19 24 25 23 19
44 44 50 54 56 60 60 57 60 68 71 69 66 63 55 50 46 41 33 27 24 20 17 22 41 61 69 72 49 24 22 21 17 11 10 12 14 22 24 15 13 12 14 20
47 49 49 54 62 62 64 71 77 80 82 76 68 62 56 49 43 34 26 23 20 18 25 43 61 70 67 35 25 23 22 16 10 12 15 21 24 24 18 13 11 11 12 20
56 65 70 69 70 78 82 84 91 91 80 74 69 60 52 41 29 24 22 20 21 29 52 64 72 62 32 27 25 22 19 11 15 17 21 24 18 16 14 11 11 13 14 14
79 76 79 80 85 90 90 92 90 83 80 70 58 46 33 26 22 21 19 22 32 48 65 74 62 36 30 29 25 23 13 13 17 16 15 12 10 11 11 12 13 13 14 14
85 82 82 90 93 94 93 88 84 78 66 50 37 30 25 23 21 17 16 37 62 72 81 66 44 34 33 30 26 19 12 14 9 7 8 10 11 12 13 14 14 14 15 17
78 80 88 91 89 87 84 80 73 59 46 38 32 28 25 22 16 14 39 63 76 78 74 54 39 37 36 30 25 13 13 12 9 10 11 12 13 14 15 15 15 21 34 37
83 85 83 80 84 82 76 70 60 50 43 35 30 25 22 15 17 44 64 76 86 81 69 50 42 41 36 30 19 11 16 13 10 11 12 13 13 14 14 15 20 37 38 36
76 79 80 81 80 77 73 66 56 49 38 32 26 21 15 30 57 68 74 78 88 81 64 51 47 44 36 27 12 14 19 12 10 12 12 14 19 22 25 27 33 37 38 41
74 79 80 81 79 77 71 62 53 40 33 27 19 17 31 62 71 77 86 87 85 76 61 54 51 44 34 20 10 18 19 12 12 13 14 22 40 45 44 38 33 36 38 39
76 81 82 80 77 74 67 54 42 35 26 18 18 44 62 69 76 80 80 90 83 74 64 58 52 41 28 12 11 20 15 13 14 14 24 40 49 47 45 41 35 36 39 38
72 76 76 74 72 64 52 42 35 26 18 27 55 68 74 75 79 86 85 85 82 72 63 57 47 35 18 9 18 21 15 15 15 27 50 52 50 49 43 33 33 36 40 35
73 73 73 67 55 44 38 31 22 17 35 60 74 80 80 78 72 73 81 84 76 65 60 53 41 24 10 10 24 21 17 16 26 51 55 51 52 46 32 25 28 40 46 46
71 66 57 47 41 37 28 19 18 46 66 74 81 81 80 76 79 88 85 79 69 64 57 46 29 12 8 18 26 21 18 21 49 58 52 52 56 47 50 58 43 47 60 61
57 50 44 38 31 24 20 33 62 72 78 79 79 79 79 87 93 88 80 69 65 58 46 30 13 6 12 28 25 20 19 43 58 55 53 59 65 68 70 68 53 68 63 74

GFSNGP_500_rhum_012.txt.gz
RH
100 83 81 96 100 98 92 28 13 14 19 37 38 56 64 64 46 41 45 54 32 17 22 27 25 24 25 23 24 28 29 27 26 26 27 25 24 22 20 18 15 14 12 8
98 98 97 82 82 50 20 8 5 12 35 54 65 63 62 39 46 56 50 15 20 25 26 26 26 29 31 33 32 31 29 30 30 29 27 26 23 21 18 15 14 11 9 7
99 97 87 40 27 21 15 18 35 34 56 72 67 39 43 73 73 59 19 20 26 29 31 34 36 38 37 34 33 32 34 32 30 30 28 26 22 19 17 14 12 9 9 16
43 34 25 17 30 29 32 41 52 69 67 46 70 81 78 71 67 22 24 29 32 36 39 42 41 39 37 37 38 37 36 34 33 31 29 24 20 17 16 12 9 10 18 25
72 48 41 29 38 59 69 79 91 91 89 78 71 72 67 42 25 28 32 36 40 45 45 45 44 44 44 44 42 41 40 38 34 31 27 22 20 17 12 9 12 24 27 24
78 98 94 97 98 96 97 89 93 94 83 62 63 68 38 29 31 34 40 46 49 51 52 53 52 52 51 49 48 46 42 38 34 30 26 22 17 12 9 14 28 30 28 24
93 92 84 82 88 95 90 72 61 47 48 56 53 35 32 34 40 45 45 47 51 52 54 53 52 52 53 55 52 47 42 38 34 30 25 17 13 10 17 34 34 32 29 22
54 53 49 43 38 37 39 45 55 51 44 35 33 35 40 44 44 45 48 48 51 53 50 49 50 58 61 56 52 46 42 38 34 25 18 14 12 20 42 42 36 36 29 20
90 88 92 89 80 66 56 46 37 34 34 36 40 43 45 44 46 47 47 47 51 51 51 57 69 66 60 56 51 46 42 36 26 20 16 13 23 44 48 42 40 35 25 17
82 76 65 52 42 36 34 35 36 38 40 43 45 44 43 46 47 47 49 54 53 58 70 75 70 64 59 54 49 46 38 29 23 18 15 24 45 55 49 43 40 29 19 14
52 66 71 61 50 42 38 38 38 39 41 43 43 44 46 47 49 59 58 58 69 76 76 75 70 63 57 52 49 40 32 25 19 15 23 38 50 54 50 44 35 23 16 8
35 60 60 55 48 41 38 39 41 42 44 47 48 46 46 58 65 63 66 74 78 80 78 72 64 58 54 50 41 32 26 19 15 19 34 46 48 52 50 42 29 21 9 10
33 63 65 54 44 42 43 44 46 48 50 47 45 51 67 72 71 70 73 80 83 75 70 64 60 55 47 40 32 25 18 14 14 30 45 47 55 56 47 37 26 15 9 15
64 60 54 48 44 44 45 45 44 43 45 50 59 74 80 76 74 73 77 75 73 69 64 60 54 47 41 32 25 18 14 17 28 48 54 58 61 55 44 33 23 11 12 16
53 49 44 39 37 37 39 42 49 53 57 65 81 80 76 74 73 72 72 71 68 64 55 50 48 41 34 26 18 15 18 34 53 60 64 64 60 52 43 30 22 7 12 12
35 36 42 50 56 56 55 56 60 72 80 77 76 75 75 70 69 66 63 61 58 51 46 46 40 33 26 19 16 19 37 56 66 68 65 63 60 50 39 28 16 7 14 10
78 74 67 61 58 58 62 75 79 77 77 77 74 67 62 57 52 50 51 50 46 44 43 40 34 26 19 15 19 35 56 65 65 65 68 65 55 47 35 25 9 10 13 12
54 54 58 59 60 79 83 81 79 71 66 61 53 48 45 44 45 45 45 45 44 43 40 35 25 18 16 20 37 63 69 65 64 68 64 57 52 42 31 16 6 16 13 22
68 74 85 92 89 86 72 61 57 53 49 48 46 45 44 45 47 47 46 46 46 41 33 25 18 18 24 52 69 74 69 64 69 69 62 56 46 35 21 6 9 18 16 31
97 99 98 84 70 61 55 50 48 46 46 47 45 44 46 48 48 47 47 45 37 31 25 18 17 32 52 67 74 72 68 72 71 64 59 48 38 25 7 8 20 18 22 31
99 89 74 64 58 54 50 48 48 49 48 47 47 47 46 45 41 39 37 34 30 25 19 27 44 62 71 73 69 69 74 70 66 62 51 40 26 7 6 20 20 19 32 30
78 70 62 55 50 49 50 51 49 48 47 44 41 38 37 37 36 36 34 29 24 18 22 47 66 72 72 68 70 74 70 64 60 52 42 23 7 6 21 22 22 37 31 24
69 62 54 51 53 56 54 50 50 48 44 40 37 36 35 34 34 33 29 23 19 25 54 71 72 70 70 77 74 67 63 59 53 41 16 8 8 24 24 24 40 34 28 25
59 56 55 52 54 55 54 52 50 46 41 38 35 33 32 32 32 28 21 20 36 64 69 68 67 70 73 68 66 64 59 52 33 10 10 14 29 27 28 45 40 35 31 25
68 63 59 56 58 57 54 52 47 42 38 35 34 33 33 32 25 20 30 63 73 68 65 69 76 73 68 68 65 58 48 20 9 18 24 31 27 26 46 42 40 37 42 27
66 64 58 59 60 57 55 49 43 38 35 34 34 32 26 19 18 42 66 68 64 65 74 76 66 65 66 61 50 29 10 12 24 28 26 22 26 49 41 41 40 60 49 32
66 60 63 63 61 57 50 44 38 37 36 34 28 21 17 28 62 68 67 68 77 82 72 66 66 65 54 32 11 10 17 21 18 19 20 26 47 44 38 41 60 67 48 51

GFSNGP_500_rhum_015.txt.gz
RH
70 61 60 56 58 65 66 68 68 78 77 29 17 12 18 28 44 74 72 52 44 58 33 21 25 23 25 28 30 31 32 33 35 36 36 38 39 38 36 33 31 28 26 23
78 69 70 62 63 65 64 67 72 84 46 17 17 16 28 52 81 72 42 49 73 46 58 36 23 29 32 36 37 40 40 41 43 42 44 45 45 41 37 35 32 29 21 16
85 87 97 72 75 84 90 95 82 56 16 15 22 35 60 75 54 44 59 78 83 52 24 29 34 39 43 44 45 46 47 46 46 48 52 51 47 41 38 35 29 22 16 13
99 95 86 92 81 72 65 57 28 16 19 32 49 75 57 54 70 79 80 69 31 28 33 40 45 46 46 47 50 51 50 50 52 57 56 51 45 42 38 30 22 17 14 10
94 93 79 74 55 26 24 29 24 29 41 62 73 59 78 86 88 78 62 33 30 36 45 46 46 47 49 53 53 53 54 57 59 59 54 48 45 39 29 21 16 13 10 11
74 82 71 91 77 53 36 36 56 86 87 82 91 91 82 67 78 62 34 35 40 46 47 48 48 50 53 55 56 58 61 64 63 56 51 46 38 26 16 12 12 10 11 17
91 89 82 96 98 97 98 95 96 87 80 82 73 59 58 71 53 36 36 42 46 46 46 48 48 52 56 56 61 62 65 65 58 54 46 35 24 16 14 13 11 12 17 25
88 86 88 91 94 86 83 78 73 73 67 48 51 55 54 39 35 37 42 44 44 46 48 48 57 58 55 56 61 69 67 60 54 47 34 23 19 17 15 12 13 23 28 38
64 52 57 56 56 65 58 56 75 62 64 61 44 36 35 37 41 41 43 44 47 47 50 62 57 53 56 66 72 64 59 55 46 34 25 22 19 15 12 14 27 38 44 44
89 89 87 83 80 80 74 71 42 35 34 35 36 38 40 38 40 45 47 47 47 56 66 60 58 58 64 65 62 58 54 45 34 28 25 20 16 13 14 30 46 53 49 43
31 33 50 69 76 74 57 45 40 39 38 38 39 39 41 44 48 49 47 48 60 68 63 62 64 63 60 58 52 48 43 35 30 26 21 17 15 13 23 55 59 54 51 42
44 38 23 23 38 61 65 61 55 49 42 40 41 43 46 48 48 48 56 65 70 65 68 68 63 56 48 42 39 36 34 30 26 22 18 16 14 19 53 62 61 63 52 42
49 31 18 15 31 64 67 57 49 45 43 42 44 45 45 48 59 65 70 71 72 72 63 54 45 39 38 37 35 33 28 26 24 20 17 14 19 40 52 60 60 56 46 40
27 15 18 35 62 68 62 49 43 41 41 41 41 48 60 63 70 70 74 73 61 50 40 37 38 38 36 30 27 23 21 22 21 19 16 22 42 59 60 55 51 46 43 34
24 43 67 71 63 49 43 38 36 36 45 56 60 61 70 70 75 71 58 47 40 37 36 39 37 30 28 25 22 21 22 23 20 18 23 43 60 63 60 58 51 43 37 30
77 71 59 46 34 32 38 62 69 65 59 61 72 73 73 64 56 47 42 40 37 36 34 32 28 26 23 22 22 24 24 21 19 24 43 63 65 60 59 55 47 42 34 18
55 53 64 79 87 87 77 59 57 63 75 78 74 59 54 49 46 43 41 38 35 32 29 28 26 24 24 23 23 24 21 20 26 52 66 64 58 58 55 52 45 35 19 5
98 96 87 71 56 54 56 65 78 80 75 61 55 49 46 45 44 40 36 33 30 28 27 25 24 23 21 22 24 22 19 30 54 64 62 58 57 56 54 46 38 16 5 12
55 53 52 54 63 75 82 83 79 63 58 57 54 49 45 42 39 35 33 30 26 26 27 25 23 22 23 24 22 22 39 56 63 62 60 58 58 55 47 35 11 6 12 21
54 62 74 84 88 89 87 73 64 60 59 54 49 41 36 35 33 33 32 30 28 28 26 23 22 23 24 21 29 48 60 63 62 58 56 55 51 44 27 9 7 15 23 22
93 86 83 85 90 89 81 70 62 56 50 43 38 37 34 34 35 35 34 33 31 28 24 22 22 21 20 39 56 61 63 60 53 52 52 48 39 16 10 13 22 25 23 33
87 91 93 89 80 70 62 55 51 48 44 40 39 38 38 40 41 39 37 34 30 26 22 22 18 28 52 62 64 63 56 52 51 48 45 28 10 13 22 28 26 25 35 27
73 74 73 69 63 59 57 55 51 46 43 44 43 44 47 47 44 41 36 33 27 22 19 16 39 60 66 63 58 54 53 51 47 34 13 9 18 25 27 24 25 37 30 27
72 70 67 64 60 56 54 51 46 43 43 45 48 52 52 48 44 39 34 28 23 17 15 46 67 67 60 54 56 56 51 43 19 9 13 18 19 22 21 23 40 32 29 25
77 74 70 66 65 64 59 52 50 50 53 54 56 57 53 48 41 36 30 23 15 14 57 73 68 63 57 59 58 53 35 11 11 16 15 12 13 16 22 40 34 30 32 26
62 56 55 58 59 56 55 56 56 59 59 61 60 56 50 42 39 33 23 13 12 48 72 72 64 56 61 61 52 24 10 16 16 15 15 17 15 25 40 38 30 39 38 26
60 65 66 64 62 59 56 57 61 63 66 64 58 52 45 41 33 21 11 15 48 69 70 61 59 63 62 50 16 12 16 16 17 28 45 46 41 42 40 31 35 51 34 36

GFSNGP_500_rhum_018.txt.gz
RH
71 75 69 72 93 90 72 66 60 66 82 73 62 59 46 33 16 14 27 44 69 73 51 59 54 49 63 47 28 32 34 37 38 40 42 43 44 45 47 51 57 54 46 40
85 74 73 69 73 73 66 58 46 45 43 64 75 71 42 26 13 21 42 70 80 51 61 80 81 66 32 30 36 38 42 42 44 46 47 49 48 50 59 65 57 48 38 26
93 83 76 71 65 62 59 55 52 48 79 77 73 57 26 15 26 45 64 69 51 66 77 81 60 31 32 38 43 45 45 47 48 50 52 51 56 63 67 57 48 37 25 20
93 79 61 70 70 67 59 57 57 64 77 70 52 24 14 23 36 58 60 64 80 85 85 46 32 35 41 46 47 47 48 49 55 54 55 62 68 67 57 47 36 26 22 16
86 77 76 74 75 82 78 76 77 77 71 30 17 21 28 52 68 64 70 78 86 86 64 38 36 43 48 48 47 48 51 59 55 57 65 70 63 55 44 35 28 22 18 15
82 83 85 95 84 78 76 53 34 31 27 28 43 53 67 71 74 83 94 78 76 68 39 38 45 50 49 48 48 52 64 59 60 66 62 56 50 38 32 27 22 19 17 16
96 98 87 93 82 76 74 85 82 68 57 74 97 81 89 97 95 80 66 81 50 37 40 47 52 49 47 48 54 66 61 64 64 58 51 39 32 26 15 13 13 15 17 17
95 85 84 95 100 99 90 90 93 90 90 83 91 97 88 58 59 70 51 37 38 42 47 49 47 47 48 58 66 62 66 60 52 40 33 26 17 14 15 17 17 19 18 16
92 93 90 96 96 89 71 68 70 71 69 59 57 62 82 58 39 36 38 41 45 45 46 47 48 51 63 66 67 62 52 41 33 26 17 17 18 18 19 20 21 20 18 18
71 69 81 97 98 99 98 97 100 96 91 74 51 39 35 36 38 39 41 42 43 46 46 48 60 67 67 65 51 40 33 31 20 19 21 20 20 19 22 23 21 18 19 30
84 74 61 55 62 74 80 80 77 62 46 41 40 39 40 42 42 41 42 44 45 45 59 65 64 65 53 38 32 32 28 23 22 21 20 19 19 21 23 21 18 23 37 45
40 40 43 41 29 18 17 25 44 62 67 67 64 55 46 43 42 43 43 42 57 64 64 64 55 41 34 32 27 25 24 22 20 19 19 18 20 22 20 18 27 47 52 50
48 52 54 54 46 24 18 19 34 68 75 65 55 48 42 42 42 40 57 62 65 64 56 44 36 35 30 26 25 22 20 20 20 20 19 20 20 18 16 26 45 48 49 45
57 51 47 44 27 19 21 41 61 69 67 54 44 41 39 41 64 63 68 66 56 46 38 37 34 28 24 22 21 23 24 24 22 20 20 20 18 17 26 37 43 46 45 43
27 25 24 22 22 29 49 68 69 56 45 38 36 50 75 64 68 72 62 48 40 38 38 34 28 24 24 26 26 26 26 24 22 19 17 17 17 27 39 44 45 40 38 39
28 29 37 51 70 78 71 51 37 35 48 79 83 61 64 77 70 55 46 42 38 35 30 26 25 28 29 29 29 28 27 24 20 17 16 17 28 40 47 44 40 40 39 24
68 75 62 51 48 46 51 72 90 94 82 56 58 78 78 64 54 49 45 38 33 29 28 29 30 32 31 31 31 30 28 23 18 15 18 31 42 46 44 41 40 36 17 9
66 72 80 89 95 92 86 76 62 53 56 77 83 77 62 54 49 44 38 34 32 30 30 30 31 30 32 33 34 30 24 18 15 18 30 42 45 44 43 41 30 12 10 18
87 80 70 63 59 56 54 52 55 75 89 86 78 66 58 51 44 40 37 35 32 33 30 25 28 33 36 37 32 26 19 16 22 33 46 47 46 45 39 21 9 14 23 25
49 51 54 54 54 52 58 82 96 87 83 76 67 57 50 48 41 36 34 32 32 32 30 34 41 41 40 34 28 19 17 27 40 50 48 46 46 34 12 10 19 25 26 21
53 53 53 56 71 93 95 86 79 70 66 61 58 56 46 37 35 36 35 32 33 34 37 44 46 43 36 29 20 16 32 42 51 50 47 47 27 10 13 16 22 24 19 28
70 76 89 93 86 79 73 67 67 67 63 60 55 50 44 40 38 37 36 39 40 44 49 50 46 38 30 20 13 30 47 54 51 50 50 22 12 15 14 12 19 17 25 25
98 91 82 75 74 74 71 68 64 64 66 59 50 46 44 38 35 38 40 43 47 54 55 49 40 31 20 12 27 45 52 52 51 50 21 14 15 13 11 12 15 21 28 21
99 89 82 77 72 69 67 68 70 65 54 47 44 40 35 36 43 45 46 51 58 59 52 42 32 19 14 32 43 51 52 52 48 18 14 15 13 13 12 12 18 31 23 17
95 91 85 79 77 72 62 62 58 50 44 42 43 46 48 49 50 52 58 64 63 54 43 31 19 21 39 44 49 52 53 43 15 14 14 14 28 36 21 15 30 27 17 22
95 91 82 72 64 62 63 57 52 53 54 56 54 52 53 56 62 68 72 65 53 44 30 19 29 41 42 50 54 52 36 14 14 15 18 33 38 37 29 26 30 19 20 31
95 86 76 72 73 70 68 67 63 59 57 54 55 59 64 69 73 73 64 51 42 29 22 32 40 44 54 53 51 28 13 15 15 22 35 34 29 28 30 29 25 20 28 31

GFSNGP_500_rhum_021.txt.gz
RH
71 73 78 95 96 96 95 84 78 84 84 84 95 85 62 48 43 52 48 30 14 18 29 46 71 64 58 68 74 66 42 31 34 40 41 43 47 50 52 51 45 51 54 54
85 80 83 78 73 65 66 76 68 83 71 76 65 54 65 46 44 50 48 28 13 23 41 70 72 57 75 75 67 43 33 38 41 43 44 48 50 55 56 52 56 56 50 36
88 76 69 68 61 61 57 52 67 60 70 70 54 70 60 50 65 71 37 17 21 38 63 64 64 74 81 71 56 35 39 44 44 46 49 50 57 57 56 58 51 40 27 16
85 81 62 52 61 60 59 62 65 62 63 54 47 47 51 63 78 41 16 16 45 62 62 62 76 83 83 60 37 39 45 48 47 49 51 60 58 60 52 42 30 19 15 17
87 91 83 86 74 71 69 70 65 59 53 51 49 64 69 65 40 17 23 51 62 65 70 85 84 86 79 40 42 47 50 49 49 50 62 62 55 43 32 24 16 18 18 15
89 87 86 85 77 71 67 80 78 76 76 80 84 83 51 29 33 41 55 66 70 76 91 88 87 60 39 46 49 52 51 49 56 62 61 44 32 27 22 20 18 16 15 14
86 83 86 94 92 90 85 82 76 66 46 36 35 39 46 49 76 92 93 96 94 61 73 75 41 42 47 49 52 50 50 62 63 48 33 26 24 22 19 17 17 16 15 15
92 94 95 94 98 97 94 92 90 90 96 88 87 86 85 83 93 93 86 64 68 69 42 40 45 46 49 50 48 57 63 58 39 31 25 19 17 18 17 14 15 17 17 15
97 100 98 97 100 96 96 94 92 84 82 81 79 76 77 62 60 66 80 70 41 40 43 44 46 48 47 48 64 63 47 35 30 21 18 18 18 17 17 18 18 18 16 12
97 97 98 98 93 83 77 76 76 90 90 92 86 85 86 72 46 37 37 39 40 42 43 44 47 47 63 64 57 39 34 29 20 20 20 20 20 22 20 18 18 17 13 9
94 91 79 88 95 91 88 85 82 80 78 75 70 56 47 45 49 53 55 48 44 43 44 46 61 69 60 44 36 34 29 22 23 22 20 21 24 22 21 20 18 13 14 24
88 91 63 42 42 41 37 28 20 16 16 23 38 56 66 67 64 55 49 46 43 46 60 74 66 51 38 34 32 28 24 25 21 20 21 21 21 22 21 20 14 11 24 35
50 39 45 48 51 52 53 53 38 18 15 16 22 35 65 72 58 48 43 40 45 74 68 64 44 38 34 31 28 26 24 20 20 21 22 24 25 23 23 16 10 23 34 37
46 48 45 48 48 40 35 30 22 20 22 30 51 64 56 48 43 40 50 76 69 69 57 45 39 36 32 30 26 22 20 20 22 25 26 29 26 24 17 9 14 29 38 39
42 37 44 42 31 26 27 27 28 32 61 78 66 49 39 39 62 85 68 69 69 55 46 41 37 34 29 23 21 21 22 25 27 29 34 31 27 19 11 18 30 36 37 34
41 43 43 34 29 28 28 36 66 74 58 42 40 50 78 95 69 64 78 66 54 47 44 39 35 27 22 21 23 26 29 30 33 39 37 29 21 11 17 31 37 40 29 11
47 41 31 27 26 26 52 65 55 55 67 90 99 95 68 56 80 83 68 58 52 45 41 33 28 23 25 28 28 29 31 37 43 43 32 23 12 16 31 38 41 29 12 14
25 24 22 20 36 61 64 81 95 96 90 71 55 54 73 86 81 71 60 51 47 39 33 28 28 30 28 28 29 34 40 47 48 36 26 13 15 29 39 41 34 13 14 15
23 23 33 61 81 90 88 75 61 56 55 53 66 87 81 78 66 57 51 46 41 35 33 31 28 27 29 32 38 45 53 52 40 28 15 17 28 40 42 38 14 14 13 18
80 77 71 65 57 54 55 55 55 54 62 88 80 75 70 64 55 51 48 46 43 36 29 29 31 32 37 45 54 60 57 44 29 16 17 27 38 43 39 14 13 11 11 16
61 57 55 55 55 55 55 55 67 91 85 78 74 68 60 56 60 58 47 38 34 32 33 34 36 41 50 59 64 61 46 30 17 16 27 39 44 40 14 13 11 9 13 16
50 51 53 58 65 70 85 98 89 78 74 71 66 60 63 70 61 45 39 36 37 37 37 40 48 56 63 66 62 48 30 16 17 27 40 46 39 14 13 12 18 11 14 23
63 72 88 100 100 100 96 84 76 73 69 66 69 75 71 54 46 42 43 42 40 42 45 50 59 64 66 61 46 27 14 18 30 42 47 37 13 13 13 23 25 13 22 22
80 94 100 100 100 100 93 83 78 77 80 82 74 60 54 51 48 46 43 43 45 50 57 64 66 66 57 42 23 13 19 35 45 46 36 13 13 14 27 32 27 17 24 15
96 100 100 100 96 91 90 87 85 81 77 69 62 59 55 52 49 47 46 49 54 60 62 61 63 52 37 17 13 22 38 47 47 32 13 14 15 28 30 28 22 22 19 20
100 100 100 99 93 87 84 89 91 80 70 64 60 56 55 53 52 51 54 58 60 56 58 57 47 28 12 12 25 36 47 49 25 13 14 14 26 27 20 21 18 21 14 23
97 95 91 87 86 89 92 87 77 70 64 60 60 61 58 56 58 59 60 56 52 52 46 38 18 7 13 26 35 48 48 18 14 15 15 25 24 14 12 18 20 14 21 26

GFSNGP_500_rhum_024.txt.gz
RH
98 97 96 78 80 91 74 69 68 80 68 74 80 71 58 54 48 45 42 38 39 47 49 37 21 18 30 48 69 64 66 76 74 63 41 38 44 44 49 52 58 54 53 35
90 95 96 91 88 81 80 71 62 74 85 82 78 79 76 83 66 56 52 46 46 57 50 36 22 17 41 70 66 71 86 81 68 40 39 44 46 49 53 59 57 43 25 21
88 87 87 79 82 75 86 82 82 78 88 93 89 85 72 60 53 48 56 59 57 66 50 30 22 45 64 66 80 92 89 86 52 41 45 48 49 56 59 56 33 23 16 13
92 87 86 83 74 72 70 65 62 76 81 86 73 70 64 61 52 50 57 67 75 53 27 18 48 62 75 85 92 91 79 41 43 46 49 49 60 60 50 30 21 15 14 15
98 88 87 80 72 70 67 59 52 53 71 59 61 68 63 55 54 59 71 66 45 22 28 55 65 71 80 92 90 67 41 46 47 48 50 64 60 41 31 21 16 17 15 12
84 83 94 94 87 75 62 70 66 67 64 56 66 58 57 62 82 78 56 32 37 57 69 80 89 90 71 79 50 43 46 46 48 53 66 56 37 31 22 18 19 13 12 14
83 80 81 99 97 82 77 81 80 79 71 73 67 68 71 69 60 47 40 59 84 90 91 82 72 83 69 42 46 45 47 49 66 65 49 35 32 25 22 19 12 13 18 19
90 80 96 93 96 100 99 93 80 78 79 75 66 50 41 58 65 76 85 68 66 63 71 87 73 42 44 45 45 47 57 72 58 41 33 30 26 24 18 14 16 22 23 19
98 98 97 98 98 95 96 98 97 96 91 85 78 78 84 84 76 71 70 76 86 79 57 40 42 49 44 46 51 73 70 51 35 32 29 27 23 17 16 19 24 26 22 20
95 95 94 100 95 90 89 90 90 88 93 78 77 81 80 80 78 76 73 40 38 41 44 50 50 47 46 60 77 62 45 36 33 30 26 20 17 17 22 28 28 26 26 24
91 95 98 99 97 93 84 95 96 91 86 77 68 64 61 63 64 64 64 62 62 60 53 48 45 50 76 74 60 43 37 34 31 24 20 19 19 24 27 33 32 32 30 24
96 95 96 81 84 84 63 44 34 32 31 26 19 16 16 18 28 50 72 76 65 52 44 46 70 78 68 56 43 39 36 31 24 21 20 20 22 26 36 40 41 36 22 11
97 84 94 71 47 48 52 54 55 52 46 34 22 20 21 26 36 58 66 58 47 41 60 79 70 67 54 45 42 36 31 25 22 20 20 22 28 30 30 41 41 28 11 13
92 93 72 49 49 50 47 42 29 24 25 25 25 27 32 48 68 65 51 40 58 84 68 70 65 54 49 43 38 31 26 24 20 22 26 30 35 38 43 45 36 14 11 25
86 60 50 50 44 38 40 36 31 28 27 26 42 65 73 65 46 42 64 90 71 67 76 66 58 52 44 38 32 29 24 22 26 29 34 38 42 50 49 35 15 9 23 30
81 73 52 41 34 37 38 37 32 26 22 45 61 52 45 59 90 96 74 56 76 75 68 60 52 46 40 37 32 24 25 26 28 31 37 46 54 50 38 15 9 22 30 15
62 61 58 52 45 42 42 31 23 23 45 62 70 86 98 97 65 54 62 79 75 70 60 52 46 44 41 31 26 28 29 30 33 40 50 54 51 40 16 9 23 30 17 11
75 70 71 63 53 30 23 22 28 47 71 92 99 86 60 54 54 74 80 77 70 61 54 53 47 33 29 31 31 32 32 35 42 49 52 51 41 16 9 24 31 19 10 9
27 24 24 23 22 23 33 54 82 99 100 80 60 55 54 58 84 84 81 72 64 59 63 47 35 36 35 32 30 30 34 43 49 51 51 41 16 9 23 31 22 10 10 8
52 46 47 52 74 90 92 96 84 63 57 56 55 55 71 92 89 81 75 66 64 64 46 40 40 36 33 31 32 36 43 47 45 48 38 15 8 20 32 24 11 11 13 12
92 93 94 85 76 66 61 58 58 57 55 55 66 94 99 88 82 77 68 69 55 46 45 41 38 34 32 34 40 46 44 43 44 33 13 7 18 33 26 11 12 16 21 13
70 67 65 62 59 57 59 64 70 74 83 97 100 98 92 86 78 76 67 56 55 50 44 39 34 34 38 42 46 41 40 37 27 11 6 18 34 27 11 12 16 26 20 17
54 55 57 60 63 71 85 95 99 100 100 100 99 94 89 86 75 64 61 58 50 42 37 35 37 40 43 44 40 37 31 20 8 6 19 34 26 12 14 15 24 24 17 16
62 65 68 71 75 83 98 100 100 100 100 100 98 95 89 79 72 67 58 48 43 41 40 41 40 42 42 39 34 27 13 6 8 24 33 20 14 18 15 20 20 19 15 13
76 76 82 90 97 100 100 100 100 100 100 98 93 86 79 73 67 59 52 48 45 43 41 41 41 42 39 32 23 10 6 13 28 27 13 15 21 16 19 18 15 15 13 20
92 96 100 100 100 100 100 99 98 97 93 88 85 81 75 68 63 57 50 46 43 41 42 44 44 38 32 20 8 8 23 28 15 10 17 21 19 20 18 10 14 13 15 43
93 94 95 98 99 98 95 94 92 88 86 84 80 74 69 63 55 50 46 42 42 44 46 45 37 30 17 7 13 28 24 10 13 19 19 18 20 18 10 9 14 12 30 91

GFSNGP_500_rhum_027.txt.gz
RH
51 98 97 98 88 94 98 98 95 94 88 67 63 59 56 54 51 47 46 45 44 42 40 42 47 58 50 33 27 24 49 81 73 93 98 94 91 50 45 51 50 64 59 47
74 62 95 96 91 94 98 95 90 97 92 88 68 64 72 67 63 66 64 62 58 56 57 57 60 64 40 31 32 54 71 69 92 95 98 88 45 55 50 54 68 58 42 31
98 96 85 75 76 77 92 100 98 92 84 86 73 73 72 77 78 71 65 55 54 58 59 64 76 51 31 29 51 69 74 87 95 97 79 50 58 47 63 68 54 36 31 26
94 96 96 90 93 84 97 97 93 95 95 70 59 64 70 79 83 73 57 54 51 53 61 83 65 30 26 52 70 75 86 94 93 70 49 50 49 71 65 47 33 29 26 21
86 95 93 87 83 88 85 82 86 85 97 88 72 69 66 70 69 64 58 53 55 72 66 35 29 47 71 79 94 94 84 87 53 49 49 56 76 60 41 32 29 26 20 18
93 94 91 81 81 74 80 72 57 64 68 68 70 72 72 66 64 61 62 79 80 60 43 56 79 96 99 93 84 92 62 46 51 47 71 77 56 38 33 30 25 22 18 15
84 88 87 93 91 93 89 71 64 61 65 60 62 63 67 74 72 72 70 57 43 53 85 92 88 82 82 90 80 44 45 46 49 78 74 52 38 34 31 26 21 18 16 16
87 95 94 89 86 92 89 80 70 68 73 80 87 82 77 66 48 51 73 83 89 89 76 78 90 92 79 46 43 54 48 54 81 70 48 39 36 31 27 21 18 17 18 21
93 97 95 90 90 88 87 87 84 84 81 85 86 80 73 73 78 82 84 79 74 84 92 85 47 40 43 55 55 46 71 80 64 47 41 37 32 28 23 19 19 19 20 23
94 96 97 98 91 92 95 92 88 91 95 91 86 77 71 76 78 81 85 77 72 64 49 48 58 63 58 48 54 81 72 64 49 43 39 35 29 24 20 21 21 22 25 27
100 96 92 97 88 93 95 90 86 84 90 90 87 86 68 51 41 37 37 43 52 60 72 77 68 50 46 75 76 71 62 50 47 41 36 30 25 22 24 26 27 29 32 34
95 90 90 88 97 97 96 93 94 61 43 34 32 37 30 21 21 22 26 35 52 65 64 52 44 61 80 71 72 62 54 51 44 38 33 26 25 28 31 32 36 41 42 38
97 95 96 97 93 91 55 46 50 55 59 57 39 26 26 25 26 34 47 66 69 59 45 44 82 73 71 76 66 59 52 46 41 36 28 29 26 25 25 33 40 41 37 22
100 100 98 96 86 51 53 56 55 47 35 28 28 29 25 33 62 69 72 65 46 46 79 87 62 78 79 71 63 54 48 42 31 30 29 26 26 28 31 30 30 34 22 6
98 94 97 92 65 54 50 45 45 40 36 35 31 23 30 57 60 50 43 56 89 96 59 63 80 79 75 63 56 52 40 32 34 30 25 25 28 31 31 31 31 20 6 10
100 97 96 81 57 53 47 46 44 41 40 37 26 28 52 62 73 90 99 100 69 54 69 84 85 76 64 58 57 39 36 35 29 25 24 28 31 30 30 29 17 6 9 17
98 99 97 88 71 74 60 49 50 53 38 25 29 56 78 90 98 100 71 57 54 74 90 90 76 65 62 57 38 40 38 31 28 26 26 28 30 29 27 16 5 7 18 10
77 67 66 70 67 70 66 62 45 28 25 34 66 91 100 98 77 59 56 55 80 96 89 76 68 65 49 42 42 38 33 30 28 26 27 30 28 27 17 6 8 18 11 11
74 78 76 52 40 33 30 28 29 34 61 90 100 99 73 61 58 56 55 90 99 87 77 71 64 48 45 42 38 35 33 29 26 28 30 27 26 18 6 9 17 10 12 13
40 35 32 34 39 39 43 57 84 98 92 85 68 61 60 57 54 66 98 97 89 81 77 62 53 50 44 42 38 33 27 26 28 30 27 26 19 6 12 18 9 13 14 18
71 77 81 87 91 94 95 89 81 78 74 67 61 59 59 63 96 100 98 95 89 82 71 61 54 48 46 39 32 27 28 29 29 29 27 19 7 14 17 9 13 16 16 17
88 89 90 91 90 86 82 72 63 61 65 71 79 88 99 100 100 98 98 98 92 82 66 56 52 47 38 33 28 29 28 26 28 29 18 7 14 16 9 12 17 16 17 14
72 71 66 62 59 58 58 66 75 84 92 96 99 100 100 100 100 100 100 91 76 66 58 52 44 37 32 29 30 27 24 26 29 18 8 15 15 9 13 17 16 16 15 13
55 54 56 60 65 71 75 77 82 90 97 100 100 100 100 99 100 98 85 75 66 60 51 41 36 32 29 29 26 25 27 29 19 9 16 14 10 16 16 15 15 13 13 16
65 65 66 69 75 76 81 91 99 100 100 100 100 100 100 97 90 81 71 66 58 46 39 36 31 29 29 26 26 29 28 20 10 16 11 13 15 11 12 14 10 12 12 52
80 84 87 90 92 95 97 98 96 98 100 100 100 98 95 88 76 66 60 52 43 38 34 31 30 30 27 28 30 29 19 11 16 11 15 13 11 13 15 10 10 12 29 89
85 87 88 91 93 96 98 100 100 100 100 100 100 93 81 70 62 55 48 44 39 36 33 32 28 26 27 32 29 14 13 16 12 16 11 12 19 17 11 7 12 18 81 60

GFSNGP_500_rhum_033.txt.gz
RH
100 99 98 94 96 99 80 85 83 96 78 78 92 97 73 88 86 65 61 74 75 71 63 59 53 49 46 46 50 53 53 55 58 58 46 33 28 66 76 85 96 93 78 64
100 100 100 95 94 100 99 99 97 98 96 96 99 89 95 94 91 84 81 77 72 60 55 53 54 56 55 57 58 55 58 68 74 56 29 46 77 90 89 94 81 54 55 56
98 100 100 98 98 89 96 97 94 99 96 98 98 96 88 96 94 78 66 63 64 64 63 64 68 63 56 53 56 60 71 81 50 36 66 88 94 92 96 53 53 54 58 86
100 99 98 100 96 96 98 98 98 96 98 98 88 94 94 96 96 81 80 86 85 80 74 65 57 54 54 54 59 73 58 37 56 89 95 97 97 90 49 53 54 68 87 60
99 100 97 90 88 89 90 98 98 99 79 73 97 98 99 98 98 97 95 93 84 78 73 65 61 58 60 75 62 44 61 88 95 92 96 97 60 49 55 53 80 80 58 50
75 72 93 95 82 68 89 99 93 94 97 99 98 96 98 98 97 95 88 86 85 78 71 64 63 73 76 62 56 88 91 85 95 100 69 49 57 55 57 87 72 56 52 40
76 78 82 88 93 93 83 98 96 95 87 83 94 98 89 92 85 88 85 78 71 68 67 75 74 60 49 70 97 92 94 100 67 50 66 65 54 72 82 70 60 51 38 32
84 75 87 89 87 89 90 84 90 85 86 85 83 85 78 95 94 76 69 71 72 67 54 57 70 87 91 87 88 93 71 55 74 78 61 58 81 80 73 62 50 38 33 31
59 89 81 80 91 98 96 84 92 96 86 72 68 71 76 79 83 80 74 68 68 75 86 86 79 82 82 71 60 66 78 79 71 50 75 79 82 76 61 51 37 35 31 22
54 63 90 88 88 88 97 98 90 85 75 72 81 89 93 90 84 80 77 79 79 78 77 62 49 48 50 57 64 73 71 52 58 84 74 86 78 61 51 38 37 33 26 19
64 82 96 90 87 93 96 95 95 94 94 92 91 92 93 94 92 91 81 48 23 22 23 26 32 43 57 70 70 54 52 87 71 74 86 77 62 50 42 40 34 27 23 17
82 83 86 79 86 90 95 96 98 98 98 98 98 98 98 95 55 33 29 26 25 30 42 53 66 73 70 52 51 84 92 60 80 87 78 63 50 46 42 35 28 23 18 16
82 88 94 96 89 93 96 98 98 98 97 98 94 63 52 60 39 29 28 22 24 35 47 61 64 57 52 74 98 71 60 83 88 76 65 53 50 45 38 30 23 19 18 18
95 94 98 100 100 98 98 98 98 93 65 60 65 58 39 31 34 35 31 26 27 38 53 65 80 92 99 92 58 64 85 87 74 68 60 56 49 40 31 23 19 19 19 18
96 96 96 96 98 96 99 98 69 63 66 55 44 39 39 44 43 39 30 28 35 51 74 93 99 96 69 58 65 86 86 75 74 72 63 52 42 31 24 22 20 19 18 16
98 94 95 97 100 99 96 90 88 77 56 53 48 50 54 53 46 36 33 39 59 84 99 100 75 68 60 70 91 89 81 83 81 65 53 40 30 26 24 21 20 19 16 7
98 97 95 99 98 99 96 90 86 66 64 62 60 67 69 60 46 32 38 60 88 97 76 70 74 62 81 94 90 86 87 75 62 51 39 31 29 25 22 20 19 17 7 7
93 100 99 100 98 94 97 92 84 78 77 68 68 75 71 40 34 40 67 96 89 77 80 71 68 89 92 90 88 82 70 60 48 38 34 30 25 23 22 20 16 7 7 10
99 100 100 100 100 100 99 96 93 89 89 90 82 54 35 36 71 85 82 83 82 72 69 87 89 93 92 90 80 69 57 45 40 35 30 26 25 24 20 16 8 8 9 10
95 95 95 90 87 91 93 93 99 99 78 46 42 57 85 92 88 84 73 70 76 90 89 89 93 93 91 81 68 54 46 40 34 30 28 26 24 20 16 8 8 10 10 8
64 81 92 99 100 98 95 84 56 50 75 93 98 95 91 86 74 75 89 95 90 90 90 91 92 88 81 67 53 46 39 33 31 29 28 25 20 15 7 8 10 10 8 11
79 70 63 60 56 55 59 71 93 99 99 96 86 81 79 82 89 94 91 91 94 91 89 90 86 78 62 52 44 37 33 31 30 29 26 21 14 7 9 11 12 9 11 12
60 70 81 88 91 93 96 98 96 93 91 81 76 79 82 83 87 91 95 94 89 89 88 82 70 59 50 42 38 35 33 32 30 27 20 12 6 9 11 12 13 14 12 12
60 56 55 60 65 66 68 69 67 67 71 76 77 76 83 94 96 95 93 91 86 81 75 65 57 48 42 40 37 35 34 32 28 20 11 6 9 11 12 14 15 13 10 52
66 66 64 62 60 61 64 66 70 73 75 79 90 96 94 93 94 92 87 83 78 71 64 54 48 45 44 41 37 36 33 28 19 10 6 10 11 12 13 13 11 9 33 61
75 77 78 81 82 82 80 80 83 90 94 95 94 96 96 94 89 86 81 74 66 59 54 51 50 48 42 39 37 33 27 18 9 7 11 11 12 13 13 10 7 23 66 49
78 76 73 74 78 81 88 92 92 94 97 100 99 95 90 82 75 70 67 66 63 58 55 53 50 44 42 40 34 27 17 9 8 12 12 13 14 13 9 6 17 65 42 70

GFSNGP_500_rhum_036.txt.gz
RH
97 100 99 98 94 96 100 82 32 39 52 99 99 51 35 31 68 77 77 70 73 76 70 57 51 46 48 46 40 38 40 43 45 54 64 75 78 65 41 54 84 98 94 87
99 97 97 100 93 100 95 34 28 46 88 79 32 30 26 59 100 95 75 83 87 79 67 58 54 55 48 48 47 47 50 57 66 72 82 91 72 39 72 95 98 93 78 51
97 99 96 99 96 86 92 100 71 92 100 97 42 32 29 67 84 95 96 86 96 95 78 67 59 52 51 52 55 62 64 66 70 76 87 52 52 93 100 95 92 56 56 61
92 95 90 96 97 98 62 60 52 97 76 74 60 53 78 73 78 96 94 90 92 76 62 58 60 69 70 64 59 59 64 68 79 65 47 83 99 96 99 74 53 64 61 66
91 79 79 86 80 94 86 68 76 77 96 95 92 95 97 96 81 76 78 75 68 67 78 87 80 71 67 64 64 65 76 76 54 69 98 96 99 88 53 67 70 59 76 82
92 77 73 82 69 80 80 97 92 98 95 98 95 98 91 84 80 79 82 89 97 100 100 96 82 73 70 68 78 82 70 63 94 99 98 99 61 68 79 64 63 82 83 71
100 100 85 72 79 68 76 76 94 98 98 97 98 93 81 92 96 95 95 97 98 99 92 85 81 77 85 87 72 64 93 99 94 95 73 68 82 78 57 76 80 82 69 56
96 100 100 98 82 85 80 83 90 93 96 95 92 92 85 80 83 91 95 93 90 87 88 88 91 76 65 89 97 92 89 85 66 69 80 80 60 64 80 78 82 69 55 45
64 66 96 100 100 98 90 86 80 80 78 75 68 70 97 99 99 98 97 95 92 81 64 65 89 94 84 87 84 58 50 55 66 76 63 55 86 71 79 82 69 56 49 47
53 54 59 90 96 98 100 98 95 92 90 87 82 96 99 98 97 98 92 83 85 88 88 84 84 65 39 31 31 41 60 73 68 55 88 80 66 86 82 68 59 55 51 40
45 51 61 88 83 96 97 98 99 96 96 97 98 100 99 98 98 99 99 97 97 81 41 25 26 29 38 52 65 74 70 52 77 94 64 72 87 80 69 66 62 53 40 30
45 58 82 91 96 95 97 95 98 100 100 100 100 99 98 99 98 97 86 44 31 27 23 24 32 45 57 69 66 65 80 95 80 62 76 87 77 73 74 68 53 39 30 25
60 79 91 94 96 97 95 99 98 100 100 99 98 99 98 93 60 55 47 31 30 27 27 30 38 50 63 78 92 95 91 68 62 80 87 79 79 82 68 54 39 31 24 21
85 85 89 95 98 98 98 98 99 100 99 99 93 77 67 64 43 32 35 37 36 32 29 36 49 60 84 92 89 75 68 64 82 88 85 85 80 62 48 36 30 25 23 20
96 92 96 95 98 99 100 100 98 98 95 76 71 52 38 37 41 47 49 46 39 34 40 48 60 72 87 76 72 69 69 83 88 89 85 71 59 42 36 30 25 22 20 19
92 94 95 97 97 97 98 99 100 95 78 73 61 55 52 57 65 68 63 52 39 36 44 54 83 83 75 80 70 77 85 88 90 85 69 53 43 35 29 25 23 21 19 12
100 100 98 98 97 97 98 98 97 96 96 82 66 68 72 71 71 77 70 40 35 45 76 89 82 83 73 73 87 86 86 89 85 66 50 42 34 28 25 25 22 19 12 6
97 99 100 99 99 100 100 100 100 99 98 87 82 79 82 80 82 73 37 48 76 83 82 81 75 74 84 87 85 86 90 82 63 49 41 34 28 27 26 24 19 14 7 6
95 93 99 100 100 99 100 100 99 97 95 94 90 90 91 87 48 52 82 89 88 84 76 77 82 84 86 84 86 86 78 59 49 40 32 29 29 28 26 21 15 7 6 9
95 97 98 100 100 100 100 100 100 99 98 97 96 94 65 71 91 96 96 96 83 80 80 84 86 88 87 88 84 70 55 47 39 33 31 31 30 27 21 14 7 7 9 10
78 91 95 95 97 97 98 95 96 96 96 84 61 78 98 100 100 92 91 86 80 80 84 90 89 85 85 79 63 54 45 40 34 34 33 31 27 20 13 6 7 9 11 11
73 66 60 61 65 73 77 71 62 62 77 98 100 100 100 97 94 87 80 78 81 90 92 88 85 82 73 61 51 46 40 36 36 34 31 26 19 13 7 8 9 11 12 11
69 74 76 80 86 90 92 95 98 98 100 100 99 97 87 81 80 78 79 93 96 92 87 83 79 66 57 52 47 41 38 38 36 33 26 19 13 7 8 9 11 12 11 10
68 66 61 57 59 70 81 90 90 88 81 74 74 76 77 78 85 97 98 94 86 83 82 70 62 57 52 48 44 42 38 37 33 25 19 12 7 8 9 11 12 10 9 49
72 71 69 66 65 64 64 63 62 64 66 71 77 84 94 100 98 92 88 84 82 72 66 63 58 54 50 46 41 38 36 32 23 18 11 6 8 9 10 12 11 8 31 55
82 80 75 74 74 76 79 81 83 84 86 90 95 99 98 92 90 88 84 77 72 71 70 62 55 51 46 43 42 37 31 22 17 10 7 8 10 12 11 9 6 17 55 63
82 85 81 82 87 86 84 87 89 91 96 98 95 93 90 89 86 83 77 77 77 74 62 57 53 50 48 44 38 31 21 16 10 7 10 13 13 11 7 6 13 54 56 68

GFSNGP_500_rhum_039.txt.gz
RH
84 88 98 99 98 98 78 20 23 52 35 25 52 98 100 98 80 54 31 41 41 31 31 32 35 58 69 68 68 58 54 53 66 52 34 42 54 76 89 99 90 52 61 89
96 98 96 99 96 93 37 32 37 36 66 76 100 100 93 72 41 35 62 62 46 43 46 47 57 70 72 71 69 58 57 62 34 38 53 77 90 98 100 85 48 85 97 96
86 91 94 88 99 96 74 21 41 81 97 90 91 72 48 50 57 73 70 70 73 74 74 73 76 68 66 64 60 56 37 40 55 76 90 94 100 99 54 67 98 94 92 58
75 81 76 77 100 85 66 29 28 45 40 45 37 41 79 100 84 71 72 69 74 79 80 78 70 64 55 44 40 48 63 75 83 92 95 97 76 58 92 98 96 80 66 78
77 82 90 89 81 98 83 62 89 67 29 28 26 25 42 83 78 96 97 96 88 78 82 82 64 50 55 69 74 72 73 81 87 90 88 68 77 99 96 94 67 79 72 63
74 76 84 89 82 100 88 78 95 94 94 52 58 56 61 97 98 100 100 98 99 98 94 95 97 95 84 78 76 79 81 87 89 78 69 94 96 92 70 76 79 60 76 78
76 80 86 87 86 93 99 99 95 96 97 98 98 97 91 99 99 94 96 95 96 96 97 98 98 96 90 86 84 88 91 74 76 97 94 86 66 70 75 65 67 83 74 82
79 80 82 90 92 98 99 100 100 98 96 94 95 96 98 96 97 96 97 98 98 96 93 90 90 88 87 92 81 75 95 96 89 67 52 56 71 70 62 86 76 74 85 76
74 59 55 87 90 96 98 98 98 100 96 96 88 99 98 98 100 99 92 88 91 91 87 89 89 82 81 97 96 91 69 40 38 48 68 74 60 75 88 66 77 81 74 76
60 64 50 50 88 90 98 97 97 95 93 100 94 99 99 98 91 86 87 94 92 87 86 93 96 96 89 56 31 34 42 52 61 69 65 70 90 72 67 81 80 78 81 70
54 54 50 52 88 91 95 100 95 95 91 89 80 79 74 71 69 68 77 92 97 96 95 70 35 29 30 34 34 39 50 60 67 79 86 81 65 71 84 83 84 78 57 41
54 48 48 72 91 98 91 94 96 94 93 92 91 86 86 85 84 88 94 97 69 36 34 31 30 30 29 29 37 47 56 75 83 83 71 66 77 85 85 85 68 50 40 31
47 53 57 87 96 88 90 94 93 94 91 92 98 99 95 96 98 95 64 58 42 34 36 34 33 30 30 34 46 59 77 81 74 72 70 82 86 90 88 66 47 39 31 27
72 76 73 83 92 97 92 97 98 96 97 96 98 98 96 89 79 66 41 35 40 43 46 43 36 34 37 49 66 80 76 78 71 75 83 86 89 82 64 48 38 33 28 26
88 91 93 99 98 99 97 99 91 98 99 99 97 96 90 58 39 43 53 58 66 63 54 42 34 38 58 83 83 82 74 71 80 83 88 87 78 61 47 36 29 26 25 24
90 91 96 93 98 98 98 99 92 91 98 95 97 92 77 54 64 69 74 75 78 77 52 35 50 81 84 82 77 72 79 83 84 85 81 71 57 44 34 30 28 27 23 19
98 97 98 97 98 98 98 99 100 99 98 98 96 91 74 75 83 78 76 80 74 50 46 79 84 83 80 75 79 82 83 85 82 76 64 52 41 35 30 28 25 22 18 14
97 97 100 100 100 99 98 94 100 99 98 96 96 94 88 83 80 80 89 80 54 72 88 90 88 81 79 81 83 87 84 80 70 60 49 41 34 29 28 23 20 17 12 6
99 99 97 98 96 96 95 97 98 98 97 98 98 94 92 92 96 92 74 72 96 96 91 87 82 80 82 90 89 83 75 66 55 46 41 33 29 27 24 20 16 10 6 7
96 99 98 98 97 98 100 100 100 99 100 100 100 98 97 97 80 76 97 100 93 88 84 81 81 89 93 85 80 70 60 51 46 40 32 30 28 24 20 16 10 5 7 8
95 97 95 95 97 98 100 99 98 98 96 97 94 83 69 76 99 100 99 93 86 80 78 84 96 91 84 77 66 54 50 45 38 34 30 27 24 21 17 10 5 7 8 9
70 71 70 70 73 80 87 98 99 95 86 74 79 96 100 100 100 92 80 77 79 82 95 95 87 81 73 59 55 50 45 39 34 29 27 24 22 18 12 6 7 9 10 9
78 82 86 88 88 88 88 88 94 98 98 98 99 98 96 82 74 74 78 83 94 95 91 85 79 66 60 60 54 47 40 34 30 28 25 22 18 13 6 7 10 10 10 9
68 65 64 64 63 65 71 78 82 85 84 80 78 71 70 73 77 83 94 95 93 91 84 72 65 66 66 56 48 42 35 33 31 27 23 19 13 6 8 10 10 10 8 46
79 78 75 73 71 70 67 65 64 66 67 68 69 73 79 84 93 98 93 90 86 79 71 71 70 63 57 50 43 38 36 34 30 24 20 14 5 8 10 10 8 7 33 51
72 79 82 84 82 78 76 75 76 79 83 87 89 90 91 98 97 90 87 82 76 74 71 65 61 58 53 48 44 41 37 32 25 20 14 6 8 10 9 6 6 24 52 53
74 79 79 84 90 90 90 91 94 94 91 91 92 94 98 95 89 85 82 79 77 72 67 62 63 60 52 48 45 40 33 26 22 15 6 8 10 9 4 5 24 51 57 64

GFSNGP_500_rhum_042.txt.gz
RH
71 100 98 97 96 90 100 85 26 30 48 31 32 38 75 85 99 97 91 78 60 48 39 33 30 30 30 30 31 30 50 79 80 69 69 69 68 84 48 50 66 88 97 100
95 93 88 82 99 92 86 77 43 48 72 80 70 95 100 97 83 90 84 58 41 35 31 29 31 33 34 37 37 40 67 81 80 76 75 75 74 48 53 78 100 100 100 61
82 80 72 87 99 96 78 33 45 68 80 88 100 100 100 97 97 91 89 80 56 34 30 31 36 38 40 42 50 76 86 93 87 79 78 54 53 70 94 100 100 89 74 100
77 72 83 72 100 94 79 49 41 64 63 66 64 58 68 56 64 87 79 80 61 51 46 43 43 48 52 72 87 84 81 81 76 59 58 76 94 94 96 96 74 96 100 94
73 69 70 77 93 98 83 90 54 35 49 65 61 88 98 80 99 98 88 80 83 84 86 84 82 85 84 84 86 80 67 54 58 94 98 91 91 96 79 88 99 96 74 77
65 77 74 72 78 94 94 93 91 29 26 27 29 31 99 89 94 85 88 91 96 94 87 85 77 70 68 60 57 61 93 98 97 96 95 92 81 88 98 91 68 66 72 66
70 70 78 75 75 91 91 97 98 94 61 45 61 63 78 89 96 98 98 100 99 93 88 80 80 82 89 96 98 96 96 97 96 86 76 94 94 79 52 62 76 64 74 83
57 64 76 82 91 80 94 98 94 100 98 100 96 84 84 98 98 96 99 97 98 99 98 99 98 98 97 96 97 95 91 77 85 88 78 51 43 61 76 68 72 86 71 70
63 62 58 79 89 95 90 89 98 99 98 99 97 100 97 95 97 98 97 100 98 96 97 87 84 86 91 82 80 86 87 68 37 34 47 68 71 66 77 90 76 67 73 81
66 78 75 56 74 81 96 89 82 95 96 96 98 98 99 98 100 99 98 90 85 83 74 76 80 83 84 84 57 27 28 32 40 50 57 62 78 87 79 71 68 74 78 76
71 69 57 50 76 87 86 96 90 81 86 95 92 90 95 98 95 93 87 87 85 84 87 87 70 37 25 24 26 27 30 37 45 53 64 79 77 74 71 73 76 75 74 63
61 57 48 52 92 95 88 97 96 93 95 95 97 93 94 96 97 97 94 89 88 79 42 30 30 33 35 32 30 33 37 43 54 72 76 75 72 72 78 75 72 68 56 43
37 48 51 63 81 96 88 95 96 98 94 94 92 94 96 96 91 89 95 64 47 33 34 42 47 48 44 39 33 35 46 68 78 76 74 71 79 78 74 71 62 50 38 32
43 55 65 59 76 94 96 95 98 95 96 96 95 92 92 96 97 82 57 36 44 55 59 63 64 58 42 32 39 64 79 79 75 71 77 79 77 74 69 58 47 38 32 25
73 87 80 80 85 95 100 98 100 96 92 98 96 96 96 87 56 41 50 63 67 71 76 73 58 42 41 63 79 80 78 74 78 82 81 75 71 63 51 41 36 29 23 20
100 89 90 84 89 98 99 95 95 96 98 100 99 96 88 67 53 68 73 77 76 74 84 75 53 60 80 84 83 79 78 84 82 79 74 67 57 45 39 33 28 22 18 17
88 87 94 90 88 92 94 100 94 98 98 98 100 96 88 86 82 86 89 84 86 89 78 66 77 85 87 84 80 81 83 82 77 73 62 51 43 36 31 26 23 21 19 16
89 97 96 99 100 96 95 98 98 94 97 100 99 98 94 95 96 94 94 97 92 78 77 86 86 85 82 79 80 84 82 77 69 57 48 43 37 32 26 24 21 18 17 11
94 97 99 98 98 95 95 98 98 97 98 100 98 99 99 99 99 99 99 95 82 86 90 88 84 78 77 82 87 81 76 66 53 50 46 38 30 26 24 23 20 17 11 5
98 100 100 98 99 98 96 100 99 100 99 98 99 99 100 100 99 96 84 86 94 93 89 78 76 79 89 86 81 74 60 55 55 48 37 31 28 26 23 20 17 11 6 7
97 97 98 98 98 97 98 98 98 99 99 99 99 100 98 80 70 80 96 95 90 79 77 80 90 93 85 80 70 59 59 59 47 38 34 31 27 24 20 17 11 6 8 9
77 81 82 83 83 86 92 97 99 99 98 97 91 77 80 91 96 95 89 76 76 82 88 98 92 84 77 66 62 62 55 47 42 36 31 27 24 20 17 11 6 8 9 10
82 83 83 83 85 86 88 86 83 85 91 96 99 99 96 94 86 73 73 80 85 98 98 92 84 74 66 65 60 55 52 46 40 33 29 26 21 17 12 6 8 9 9 8
81 78 78 78 75 74 73 72 80 87 89 90 88 81 74 71 72 76 84 95 100 97 91 83 75 68 65 61 59 55 49 43 37 31 29 22 18 11 6 7 8 6 7 20
83 82 80 76 74 72 72 71 72 73 73 72 70 70 72 76 86 93 99 100 96 89 83 77 74 72 67 61 56 52 48 41 34 30 21 18 11 7 7 8 4 5 18 50
73 76 76 83 88 87 84 83 82 79 76 76 80 87 92 95 97 100 100 96 89 84 82 81 81 69 63 60 60 54 46 37 29 19 18 10 7 7 7 4 5 24 50 44
73 69 74 80 86 93 96 93 92 93 96 99 99 96 94 94 100 100 98 92 90 89 90 87 74 68 66 67 58 50 40 28 19 17 10 7 7 7 4 6 34 52 50 50

GFSNGP_500_rhum_045.txt.gz
RH
25 72 80 84 94 100 99 98 57 34 48 73 93 86 91 95 100 94 62 54 37 36 37 60 75 63 54 47 46 46 53 39 35 35 35 60 85 84 78 78 79 92 87 55
57 77 77 94 100 100 100 73 32 41 56 67 86 82 100 100 100 100 97 73 47 49 93 73 49 47 46 48 58 51 47 55 43 37 48 82 88 92 83 81 95 72 60 98
84 76 75 88 92 96 80 44 34 42 53 66 79 95 96 99 96 96 95 77 64 96 65 56 44 43 44 46 48 48 47 46 46 46 80 95 96 89 93 92 61 84 99 100
95 79 82 84 76 86 78 69 30 39 52 53 91 90 87 96 96 93 90 95 99 94 78 44 39 41 46 49 46 46 48 52 80 91 97 95 97 94 65 75 98 99 98 94
83 81 77 79 75 76 90 89 87 42 35 40 44 83 79 93 97 96 88 82 87 78 65 48 42 44 57 51 51 48 58 65 98 97 98 86 61 81 99 98 98 96 100 98
78 81 73 70 79 76 88 97 80 47 42 27 43 98 97 99 97 99 89 94 92 94 92 68 67 62 71 66 76 94 97 94 78 64 60 92 100 98 97 98 100 95 63 71
76 72 79 78 83 90 96 91 90 89 78 87 48 73 94 97 83 88 87 90 92 94 97 96 93 93 94 91 80 75 72 67 80 100 99 97 96 99 97 75 60 72 72 78
74 74 64 72 83 86 93 98 98 99 86 97 90 95 89 95 97 93 86 84 87 91 87 81 77 74 72 74 76 88 99 98 97 96 98 95 72 53 61 71 66 73 78 74
55 51 57 53 78 86 87 92 98 98 97 93 100 98 99 97 98 99 97 96 97 92 88 87 95 98 98 98 98 97 95 100 87 53 41 50 57 58 58 65 72 74 72 70
56 62 62 59 52 90 91 98 89 92 97 98 99 100 100 100 94 94 97 98 97 95 94 92 94 94 97 99 90 56 36 31 35 38 42 45 51 57 65 73 73 70 70 67
62 65 66 57 51 74 94 96 94 94 92 95 95 99 97 98 98 97 91 97 97 93 98 99 91 53 30 30 32 33 33 35 36 38 42 49 64 73 73 70 68 66 64 59
51 52 61 54 54 96 98 95 98 98 98 94 95 88 90 92 91 92 91 96 98 96 87 41 33 37 43 47 48 44 40 35 37 47 67 74 73 70 68 67 66 62 52 41
40 38 45 50 65 96 91 94 93 94 95 97 94 95 98 98 99 100 99 98 68 51 36 44 56 61 63 60 51 39 36 47 69 75 74 71 69 69 68 64 58 47 39 32
32 33 43 57 58 87 100 90 94 98 97 95 92 97 97 96 96 100 96 78 45 53 66 72 75 70 64 50 45 56 70 78 78 76 72 68 71 67 62 52 43 39 31 25
38 35 47 98 85 78 95 91 92 90 90 90 98 95 93 96 98 93 59 50 72 80 79 74 71 74 70 61 69 78 82 80 75 70 72 72 66 59 48 44 39 30 25 23
45 45 90 100 100 97 98 95 89 90 90 90 96 86 97 100 83 61 74 87 91 88 82 82 84 74 71 82 85 83 78 73 73 77 70 64 55 49 48 37 29 26 22 20
65 90 99 100 98 95 97 97 100 99 96 90 96 98 96 96 93 84 92 93 90 86 93 86 79 83 92 89 81 73 73 79 76 66 60 54 53 47 35 32 28 24 22 18
95 93 94 97 99 99 100 98 100 96 99 99 97 98 99 97 96 96 97 95 97 98 92 87 94 98 91 79 74 78 82 74 66 59 56 54 44 37 33 28 25 22 20 17
98 99 97 98 95 94 92 99 100 99 98 97 99 100 100 99 100 100 100 100 100 97 93 98 100 89 77 77 85 83 72 66 60 59 52 43 38 32 29 26 24 21 17 12
98 96 98 99 97 98 99 98 98 99 100 100 100 100 99 99 100 99 95 86 83 93 100 97 82 78 82 89 79 71 65 62 57 50 44 39 34 32 26 22 19 15 12 8
97 98 100 100 100 99 97 95 97 100 99 99 99 99 99 98 94 79 77 97 100 99 86 80 82 88 89 78 72 65 61 54 47 42 39 36 31 26 20 16 14 11 8 8
96 98 98 98 98 96 96 97 99 99 99 99 98 94 84 79 88 99 99 96 85 78 81 84 92 89 79 75 68 63 60 49 42 42 37 32 27 21 18 15 9 6 7 8
80 82 83 84 86 85 83 82 79 77 77 80 86 92 95 97 96 91 80 76 76 79 84 92 90 81 77 71 68 63 49 44 47 40 34 28 24 20 16 10 6 6 5 5
93 87 88 96 100 100 96 93 88 83 83 82 83 84 84 79 72 70 72 76 84 89 92 93 84 80 76 75 66 55 48 51 44 36 28 26 21 17 10 6 4 4 4 7
100 96 92 88 82 75 71 71 71 72 72 71 70 70 70 71 72 76 85 92 92 93 96 90 87 86 84 77 67 56 54 49 40 31 27 25 18 12 6 4 3 5 18 45
99 94 87 83 82 85 87 85 84 83 82 80 78 79 79 83 92 96 96 93 95 99 98 94 94 92 83 76 65 58 57 51 43 33 30 19 14 6 4 4 11 38 44 36
99 97 94 86 76 77 81 82 86 95 97 96 93 95 98 100 100 99 99 100 100 100 100 100 95 88 84 73 65 61 58 53 44 35 21 14 7 4 5 25 46 41 38 39

GFSNGP_500_rhum_048.txt.gz
RH
17 34 37 48 86 90 79 75 66 54 31 35 43 70 78 83 100 100 99 81 99 65 75 87 93 98 82 50 66 88 77 64 59 59 49 44 44 44 46 62 91 94 98 92
49 33 31 81 82 83 78 83 65 36 37 32 34 70 67 93 83 93 100 90 69 50 49 48 51 40 34 69 89 75 68 64 65 61 50 50 46 54 49 94 100 97 94 83
37 34 73 87 78 74 76 100 74 65 48 34 25 34 62 91 94 75 67 74 47 30 36 38 36 49 88 95 70 72 69 67 65 85 85 62 57 55 99 100 99 95 97 98
29 43 71 77 76 79 80 91 86 85 52 31 26 76 56 70 99 90 82 67 62 68 77 70 70 93 89 61 67 69 71 67 82 90 76 60 65 100 99 92 94 100 73 88
40 69 77 75 88 86 82 86 85 71 60 41 45 97 72 66 69 88 86 79 77 78 82 82 82 66 55 64 67 66 69 56 55 49 77 91 86 95 99 100 73 92 99 98
75 76 76 87 96 86 98 90 84 92 88 64 63 95 89 63 96 80 75 79 67 54 54 50 50 52 58 62 56 56 52 53 60 68 99 100 98 89 72 96 99 98 93 75
71 74 78 90 95 88 97 96 86 89 90 91 66 68 98 88 68 98 97 87 86 71 67 63 76 75 67 100 59 85 88 100 99 98 91 78 96 98 98 96 83 67 67 70
74 79 88 89 84 88 89 99 100 93 83 86 92 78 92 100 96 93 72 71 78 97 100 98 93 98 99 97 97 97 99 92 82 79 98 100 96 75 56 55 64 62 66 72
79 75 59 55 53 70 83 95 100 92 93 84 97 89 100 86 81 90 97 93 85 71 72 89 94 93 92 84 76 76 77 86 95 93 60 38 44 51 51 51 59 73 75 68
80 67 59 51 50 49 77 86 99 98 77 98 90 94 97 92 91 99 98 93 96 95 91 89 94 96 94 96 98 97 78 52 36 36 38 40 44 46 58 74 76 69 61 60
74 64 57 58 62 51 74 92 94 100 91 89 98 98 98 99 96 96 92 96 95 90 90 94 95 92 69 40 33 36 38 42 42 38 40 49 64 76 76 70 63 61 60 54
62 78 53 61 57 50 93 97 91 100 96 97 99 95 97 97 97 99 96 95 96 98 99 78 40 39 44 49 53 53 48 42 40 48 68 80 78 74 65 60 62 57 49 40
54 52 44 47 53 59 99 96 98 90 87 97 100 100 100 100 100 100 99 97 98 70 44 43 60 71 73 67 61 54 52 58 69 79 79 77 70 62 64 61 54 44 42 39
33 39 39 43 45 62 93 97 97 100 99 94 94 97 99 100 100 99 99 94 71 52 66 80 81 79 74 75 73 66 70 76 79 79 73 64 64 65 59 51 47 45 34 28
42 35 30 34 46 82 78 95 100 94 90 93 95 96 99 98 98 99 100 86 63 80 91 88 85 83 86 80 74 80 82 80 76 67 65 69 63 57 49 48 42 32 26 22
36 43 42 40 72 89 94 91 99 96 87 94 94 92 100 96 97 96 75 75 94 93 94 90 91 94 83 83 89 87 82 73 67 72 69 62 56 51 48 40 33 28 23 20
48 52 48 83 95 97 98 96 94 94 96 89 84 86 97 96 99 97 94 96 97 95 94 96 98 94 92 97 95 86 73 72 77 68 61 55 51 45 39 33 27 24 22 16
59 62 94 97 94 97 99 97 90 92 98 100 94 99 94 95 100 99 96 93 96 99 100 99 98 98 100 99 86 75 78 76 66 60 55 50 44 37 33 28 25 19 14 11
97 100 95 90 97 98 100 99 93 95 95 97 98 98 98 99 100 100 100 100 100 100 97 95 99 100 99 84 78 82 77 67 60 57 55 46 38 36 31 24 14 11 10 11
97 98 97 95 95 99 100 100 100 100 100 100 100 100 100 100 99 100 100 100 96 88 95 100 100 93 81 81 85 78 68 62 60 58 46 41 38 34 25 16 12 9 9 6
100 100 98 99 100 99 99 99 99 99 98 99 100 100 100 100 100 99 98 91 99 100 100 96 81 80 82 90 84 69 66 66 62 54 47 42 37 27 19 13 9 7 4 3
100 99 99 99 99 99 100 97 93 94 94 98 100 100 100 100 95 90 98 100 98 93 79 77 78 84 93 92 75 70 70 70 64 56 45 40 33 24 17 10 8 5 3 3
83 82 82 84 88 92 94 96 97 97 97 96 96 92 91 98 100 98 89 83 77 74 74 79 87 92 98 84 77 75 76 73 64 50 43 34 26 23 14 10 5 2 3 5
97 94 92 91 98 100 100 100 100 100 97 92 87 83 85 84 76 74 73 74 74 77 86 91 94 100 95 86 82 80 75 69 57 48 38 32 28 20 14 6 3 5 19 36
100 100 100 99 94 90 88 82 78 76 76 76 78 77 77 77 77 77 77 79 88 95 97 96 98 100 96 88 81 78 75 64 51 45 38 30 25 18 9 4 16 33 32 29
100 100 100 100 100 100 99 98 98 96 93 92 91 91 90 88 87 87 93 100 100 100 100 100 100 100 93 85 84 81 75 60 51 41 34 28 19 12 5 12 33 28 27 28
98 100 100 100 100 100 99 93 88 89 94 96 100 100 100 99 99 100 100 100 100 100 100 100 100 96 90 87 83 82 74 63 46 38 32 22 15 8 4 31 36 41 44 51

GFSNGP_500_rhum_051.txt.gz
RH
32 31 19 30 41 30 65 80 64 65 74 48 38 31 34 51 53 54 67 90 100 100 88 81 57 78 83 92 100 93 94 49 33 64 70 69 71 66 57 60 83 58 50 70
28 16 22 29 32 89 81 74 61 79 76 55 35 30 52 45 40 62 83 56 68 64 65 62 76 80 80 99 100 99 69 36 54 81 76 78 73 66 71 74 54 48 47 76
14 27 32 46 81 78 84 76 77 77 62 41 35 46 59 53 55 64 72 47 32 33 44 60 82 86 96 99 95 67 43 50 82 79 76 70 67 99 86 56 52 44 68 98
20 36 31 57 87 90 80 67 84 82 64 38 57 57 55 60 87 73 73 73 35 33 34 34 32 38 64 75 70 73 84 83 76 64 76 95 96 76 60 59 58 95 97 86
42 29 40 85 85 84 82 87 92 84 75 47 66 85 76 73 97 93 90 90 76 74 72 68 79 91 91 86 88 86 79 78 75 97 91 74 84 69 97 90 100 100 99 97
35 72 84 82 84 90 94 96 90 83 83 48 54 64 82 83 68 88 70 71 57 76 95 98 98 97 92 88 89 96 100 99 98 69 75 68 80 90 99 99 97 90 86 99
45 92 84 80 89 94 98 87 83 76 75 76 67 61 71 86 93 72 88 96 88 91 52 52 55 68 76 90 98 97 86 64 90 98 98 99 98 100 98 91 94 99 88 61
79 90 79 75 77 72 88 94 83 74 79 72 61 66 68 80 75 89 98 75 97 96 98 93 100 92 98 98 95 99 85 82 100 98 98 93 92 94 94 77 48 49 47 47
84 84 78 62 69 53 54 72 87 78 70 85 76 72 75 72 72 76 92 94 90 89 100 100 99 99 97 99 99 97 98 99 100 100 100 98 66 48 44 44 44 51 70 73
79 78 64 74 74 65 56 58 83 89 91 97 78 82 82 82 76 67 70 74 89 97 96 94 88 80 81 84 92 100 100 95 79 70 52 43 39 37 39 56 71 72 68 62
78 83 75 74 71 72 58 60 84 86 90 90 96 84 77 76 97 83 80 76 82 95 98 97 98 98 90 76 49 39 37 41 47 48 44 41 46 61 74 77 70 65 65 60
68 79 72 73 71 55 50 74 94 92 92 94 94 100 92 91 86 88 86 86 88 89 90 83 47 36 40 48 62 70 68 64 57 54 58 67 77 79 72 65 66 62 51 43
62 68 64 67 58 40 46 78 98 100 98 94 94 93 96 99 97 98 97 99 99 97 80 48 47 70 85 88 82 78 75 71 67 71 77 80 74 67 67 65 55 46 41 37
56 59 58 40 36 35 43 58 92 97 98 99 96 95 94 98 94 93 98 96 94 59 50 73 94 91 86 82 83 82 75 74 79 82 77 70 70 71 60 50 42 38 33 29
50 45 40 38 30 33 40 69 76 96 97 98 95 99 100 100 99 98 98 98 96 78 91 96 94 91 91 90 88 82 85 88 88 79 72 74 68 54 45 42 39 32 27 24
48 42 40 41 31 40 56 86 87 87 98 99 99 98 100 98 98 99 98 95 86 91 97 96 93 91 94 95 93 94 98 93 80 75 75 62 51 45 45 39 34 30 26 20
42 40 38 37 43 50 90 100 92 96 99 100 100 98 97 98 98 100 100 93 88 90 98 98 97 99 99 96 97 99 94 79 76 76 61 51 47 48 43 39 34 29 22 15
38 37 35 44 46 88 96 96 95 98 94 98 99 98 98 99 99 96 100 100 97 97 99 100 100 99 94 96 95 92 78 79 80 65 55 52 52 50 46 38 32 24 13 9
41 45 51 56 82 95 93 96 98 98 93 96 96 97 95 98 99 97 100 99 100 100 99 100 98 91 93 93 87 78 81 85 69 60 57 58 59 54 43 34 24 12 10 6
70 66 77 90 99 96 97 99 100 100 100 99 100 100 95 100 100 100 99 86 89 99 100 93 89 92 94 79 78 82 88 78 67 62 64 67 61 49 36 27 14 11 8 4
93 94 98 99 99 98 99 98 98 99 100 98 97 99 99 98 98 90 93 100 98 89 87 91 94 78 74 77 83 90 88 74 68 71 72 65 52 37 30 19 15 13 6 4
100 100 99 100 99 98 99 99 100 100 100 100 100 99 99 100 100 100 94 87 87 89 90 81 72 74 79 87 88 94 86 77 76 74 70 57 46 35 24 20 16 12 8 20
100 100 100 100 100 99 100 100 100 100 100 100 100 100 100 99 95 92 94 93 86 77 71 73 78 87 92 91 94 98 90 81 78 76 70 58 43 31 25 19 16 8 21 24
99 98 97 97 98 98 100 98 99 99 99 99 100 99 96 90 85 83 83 77 73 75 80 88 98 99 96 96 100 99 90 83 79 75 64 56 37 28 24 20 12 7 24 20
100 100 100 98 96 95 96 100 100 100 99 96 90 89 89 92 91 89 87 86 88 92 99 100 98 94 95 96 100 97 89 83 76 68 59 45 33 28 22 17 8 15 25 22
100 100 100 100 100 100 100 100 100 99 98 97 97 97 97 99 100 100 100 100 100 100 100 99 96 95 95 100 100 94 89 83 75 64 51 38 29 22 19 12 6 24 30 33
81 85 90 97 99 100 100 99 100 100 100 99 99 99 98 99 100 100 99 100 100 100 100 97 97 97 100 100 98 92 87 79 70 56 42 30 24 17 14 8 6 34 41 49

GFSNGP_500_rhum_054.txt.gz
RH
52 40 32 30 24 18 33 34 61 78 63 61 62 60 35 29 51 48 44 47 43 17 26 56 98 97 88 71 83 74 85 56 28 68 76 54 32 44 74 83 69 66 61 53
36 32 31 22 26 29 35 74 62 54 72 64 55 24 33 41 44 44 48 51 26 23 22 33 75 90 57 41 43 53 56 58 49 52 55 28 21 31 81 71 70 68 54 99
32 26 17 31 31 45 77 67 62 70 81 66 30 47 46 49 56 57 54 54 28 22 36 49 71 74 65 78 83 80 84 88 58 50 32 26 42 70 72 68 69 68 98 73
36 14 21 31 40 69 73 70 81 94 79 38 54 62 50 52 56 52 60 58 56 22 26 45 54 95 99 95 96 99 93 98 66 37 29 60 74 75 87 88 85 93 58 51
38 19 35 33 72 85 80 83 93 90 92 74 47 56 53 48 51 55 64 71 60 78 66 41 42 58 91 94 81 99 78 70 46 58 84 83 82 98 91 99 82 83 68 72
31 39 34 77 93 92 91 91 95 83 89 78 72 59 53 61 66 55 64 78 73 56 93 96 89 95 86 82 80 79 86 88 89 93 100 99 98 97 95 96 100 100 99 99
53 43 71 90 94 93 82 85 82 83 80 79 75 68 61 68 58 79 67 64 69 72 80 71 86 97 97 96 96 99 100 98 99 98 99 93 91 99 99 93 97 98 98 96
46 54 88 88 90 70 65 75 74 78 80 76 79 68 67 72 63 71 66 68 67 76 92 94 96 97 96 98 99 98 94 95 99 98 94 93 93 98 98 99 97 83 54 56
43 90 94 85 64 64 58 53 61 76 76 73 86 77 74 71 77 72 64 68 68 69 73 92 92 91 87 93 93 93 94 98 98 94 95 100 97 83 59 59 64 57 44 54
66 98 100 72 68 65 67 49 62 87 81 84 99 89 81 73 68 75 79 76 73 70 69 79 86 90 96 95 92 90 94 95 98 93 77 62 55 54 45 42 54 65 69 62
73 96 95 72 72 68 56 42 48 88 85 82 94 94 81 84 84 75 82 90 90 92 90 89 91 91 94 85 63 45 44 47 54 64 61 52 55 60 63 66 65 62 60 59
73 81 92 81 66 69 47 42 56 88 86 94 97 99 96 91 96 98 95 96 93 91 96 94 59 41 45 58 77 79 75 75 75 72 66 62 62 64 66 64 64 62 50 41
71 75 75 76 71 59 40 38 53 89 89 93 94 96 94 96 94 92 88 85 86 89 93 60 47 61 77 82 75 71 80 82 76 71 69 70 72 67 67 67 56 43 41 39
71 67 65 69 66 44 34 33 51 69 95 97 97 96 96 95 98 90 83 82 91 94 64 49 64 81 77 83 87 85 84 80 77 75 78 74 69 67 58 47 42 43 41 40
61 61 58 57 53 38 36 35 46 66 76 94 97 92 94 97 94 97 95 100 98 98 69 73 80 90 86 86 85 81 83 83 81 82 78 73 70 57 48 48 49 47 46 38
51 57 54 50 42 40 36 41 44 82 80 82 92 99 100 98 100 93 97 98 97 91 85 84 88 89 90 86 85 85 84 86 89 80 75 75 60 51 51 54 54 50 41 29
59 55 52 46 40 39 36 44 81 100 95 89 89 96 100 100 95 89 95 98 96 91 88 90 92 91 88 87 86 85 87 88 77 76 79 70 57 56 59 59 54 42 29 17
54 50 48 44 40 37 40 65 97 93 93 98 96 98 97 100 97 93 93 100 100 96 91 95 97 92 90 91 88 87 87 76 77 81 81 66 62 64 63 57 47 32 19 13
52 47 44 41 40 40 51 85 94 94 97 94 92 98 99 98 99 100 100 99 97 100 98 94 85 92 95 87 88 82 73 78 84 87 78 70 70 67 61 54 37 23 16 10
82 70 52 44 49 59 72 88 91 94 99 98 98 100 100 100 99 94 99 100 98 98 89 89 94 93 89 87 74 72 79 87 90 92 80 76 71 65 61 49 29 20 15 9
100 99 81 73 82 86 90 88 96 99 100 99 99 99 99 99 97 95 100 99 95 94 94 91 93 93 80 73 76 83 91 90 96 93 85 77 70 66 56 41 25 18 12 8
100 100 100 98 95 91 93 96 100 98 98 98 98 97 98 100 100 99 97 98 96 93 97 96 87 75 74 79 88 91 91 90 94 96 85 76 70 60 49 32 24 16 11 7
98 100 100 100 100 100 99 100 99 100 100 99 96 96 97 99 99 100 100 100 100 98 88 79 75 77 83 92 93 91 91 91 95 92 82 76 69 57 38 25 19 13 10 7
100 100 100 100 100 100 100 100 100 100 100 100 100 100 99 100 100 100 97 94 89 85 82 82 87 92 96 96 92 91 90 89 92 90 82 76 63 45 29 23 15 12 8 7
100 100 100 100 100 100 99 99 100 100 100 100 100 100 100 97 95 94 94 96 94 94 96 97 100 98 98 96 93 92 88 90 97 93 82 69 57 37 28 20 15 12 7 10
97 99 100 99 100 100 100 100 100 99 98 98 97 97 97 98 97 95 98 99 99 100 100 100 100 100 98 93 95 95 94 98 99 91 80 70 46 33 25 17 14 12 6 16
86 81 84 92 98 100 100 100 100 100 100 100 100 99 100 100 97 92 98 99 99 100 100 100 100 99 92 93 97 97 98 99 97 87 77 59 38 29 22 16 13 10 6 26

GFSNGP_500_rhum_060.txt.gz
RH
32 32 35 37 40 43 39 32 30 25 33 20 28 40 47 41 42 28 28 31 25 36 33 26 27 26 18 21 19 22 33 58 67 71 78 100 100 100 100 89 83 77 88 75
29 38 43 47 45 40 33 28 26 31 50 52 65 54 51 52 31 33 38 35 38 34 30 26 24 29 21 29 28 36 62 43 68 82 88 100 100 81 91 90 85 100 99 92
48 54 52 43 36 31 26 28 33 68 74 60 57 62 52 30 41 40 39 35 32 34 33 27 26 30 25 26 35 59 86 54 70 85 98 100 96 90 85 94 99 100 98 94
55 46 37 32 28 24 31 41 67 75 67 73 78 55 33 52 46 45 55 39 32 41 41 30 27 35 31 34 50 57 77 89 56 76 100 97 96 86 72 100 98 96 93 88
43 37 42 35 24 33 38 75 79 73 85 81 71 55 41 44 55 55 57 48 50 52 45 46 41 39 43 58 46 38 62 83 49 52 65 83 100 73 70 78 79 85 35 92
36 39 44 38 33 37 74 87 81 91 84 74 76 71 54 60 56 49 57 51 45 46 56 57 55 49 49 53 52 48 32 35 68 63 61 78 84 86 98 92 91 98 99 96
39 37 43 39 44 81 93 90 96 90 82 81 81 80 69 63 52 50 56 55 42 52 52 59 59 57 60 60 57 62 64 96 67 50 46 59 67 88 99 100 99 99 99 98
41 42 42 44 72 90 87 86 79 80 74 72 73 70 70 68 59 53 52 56 60 59 56 56 53 56 60 65 67 69 69 78 87 97 100 99 99 98 98 98 99 97 90 82
44 40 40 40 82 90 75 56 55 55 53 74 75 76 75 77 72 60 56 56 60 60 59 64 64 61 62 64 72 72 78 83 91 91 89 87 85 77 72 68 64 61 60 63
37 42 40 51 88 84 58 64 63 49 49 63 73 80 99 91 82 71 66 63 64 64 65 72 77 75 70 67 64 63 64 68 71 73 72 70 67 67 69 70 71 70 65 62
41 40 44 54 85 76 64 63 66 48 51 75 76 81 86 91 88 84 87 75 74 71 70 74 74 52 41 49 70 78 78 79 81 82 80 78 76 74 72 72 68 64 57 44
49 29 53 75 93 83 74 67 62 48 71 91 87 94 98 99 94 92 87 81 83 86 81 83 50 46 62 80 83 85 80 80 76 76 77 79 80 80 77 69 63 56 44 41
50 39 59 66 84 78 65 65 66 49 50 87 93 97 99 98 96 88 88 83 92 95 95 93 70 64 72 91 87 85 81 78 78 79 80 80 81 77 67 64 60 50 48 47
45 40 49 56 79 85 69 69 65 44 40 56 91 97 99 98 97 99 99 91 97 98 92 96 85 74 86 87 96 93 86 79 76 78 80 79 72 67 65 64 58 55 55 52
44 40 36 50 68 79 82 72 61 39 41 39 55 92 100 100 100 95 88 94 97 100 98 98 88 81 88 90 93 93 90 85 86 83 78 72 67 66 63 65 64 62 60 52
43 42 32 44 54 74 75 71 64 41 40 44 46 74 98 100 98 100 97 84 99 100 100 94 91 90 90 89 91 94 96 94 89 82 75 66 65 63 64 69 69 69 62 53
52 46 32 34 46 67 66 66 58 42 38 44 46 80 86 94 100 100 92 95 98 100 97 98 98 97 96 96 99 100 96 98 87 76 66 65 66 64 67 71 74 70 62 53
53 50 37 34 44 54 64 60 50 42 40 45 79 97 100 98 94 98 100 100 100 100 100 99 100 100 99 100 99 96 100 93 80 66 67 72 72 71 70 72 75 70 62 53
76 73 55 46 47 49 59 60 50 46 41 51 92 93 97 100 100 99 98 99 82 96 99 98 99 100 99 98 98 96 90 86 67 69 77 79 77 74 73 77 77 72 65 56
79 73 64 61 59 57 55 57 50 48 45 62 92 96 96 95 99 100 100 93 97 100 99 98 100 100 100 100 97 92 88 72 71 79 83 81 78 77 76 79 81 77 68 56
96 94 84 77 68 62 58 54 49 50 52 69 91 92 95 99 93 97 100 100 100 100 100 100 99 100 99 99 97 85 74 75 83 86 87 84 82 81 79 78 80 76 66 56
100 100 100 100 98 93 78 65 66 76 94 93 89 96 99 99 96 98 100 100 100 100 99 99 100 99 99 98 86 80 82 89 91 87 86 85 83 83 83 82 82 77 68 57
100 100 100 100 100 100 100 100 100 99 100 95 90 95 100 100 100 100 100 100 100 100 100 100 100 100 97 91 91 94 95 92 88 87 85 81 79 80 81 84 83 76 73 54
100 100 100 100 100 100 100 100 100 100 99 100 100 100 100 96 98 100 100 99 100 100 100 100 100 99 99 100 100 99 98 95 88 82 78 77 79 81 83 86 84 77 72 52
100 100 100 100 100 100 97 93 100 100 100 100 100 100 100 100 99 100 100 100 100 100 100 99 100 100 100 100 100 100 100 94 86 79 79 84 86 86 86 86 84 82 65 47
99 100 100 100 100 100 100 100 100 98 97 100 100 100 100 100 100 100 100 100 100 100 100 100 100 100 100 100 100 100 100 100 96 86 85 92 93 89 87 88 84 79 60 41
45 63 88 100 100 100 100 100 100 100 100 100 100 100 100 100 100 100 100 100 100 99 98 100 100 100 100 100 100 100 100 100 99 95 94 99 97 94 94 92 89 75 52 31

GFSNGP_500_rhum_066.txt.gz
RH
81 80 76 75 79 82 78 50 42 33 33 30 26 25 25 24 21 20 19 17 16 20 23 23 20 20 18 20 18 16 15 13 10 6 9 12 16 25 39 36 33 37 53 56
91 63 75 73 78 70 75 66 54 43 36 30 27 26 24 22 22 22 26 32 34 32 31 29 26 27 25 20 19 17 15 15 10 8 12 18 26 41 53 59 52 52 82 75
50 46 50 41 39 39 43 41 40 37 32 28 24 21 22 30 41 40 37 31 29 34 31 30 28 29 21 19 21 22 16 15 16 13 12 18 28 51 56 68 89 98 98 96
37 38 42 46 48 46 44 40 34 31 29 26 25 34 47 48 42 42 32 27 31 38 38 32 37 36 29 26 22 24 21 22 22 23 22 26 30 36 41 55 63 88 95 97
48 56 50 47 42 37 34 31 27 27 28 29 54 55 51 52 52 36 45 43 41 41 41 48 49 39 36 28 27 30 27 27 27 32 36 34 36 40 55 56 66 95 96 97
55 55 44 41 42 35 26 24 29 40 48 66 67 73 79 70 54 50 48 46 48 47 46 41 38 44 36 31 37 37 36 36 35 38 45 49 52 60 64 66 68 83 99 98
60 54 41 40 41 41 29 28 45 79 85 80 88 89 82 80 71 64 55 49 50 48 43 44 46 46 42 38 44 46 47 46 39 49 51 56 65 73 76 80 85 91 90 91
61 50 43 41 36 40 43 43 82 96 98 96 92 89 79 77 72 66 63 54 52 51 47 48 57 49 45 42 44 49 58 56 59 59 59 62 66 68 68 68 70 70 69 69
58 53 51 51 40 36 41 61 92 100 93 90 86 80 76 69 70 67 65 65 58 55 51 48 48 48 53 53 52 55 67 65 63 62 61 60 58 56 57 61 62 64 64 62
64 59 54 52 45 37 41 65 96 99 70 62 59 69 71 67 68 71 76 77 73 71 63 56 57 58 62 63 60 61 63 62 60 63 59 56 54 55 59 63 65 63 58 57
56 53 46 43 40 39 37 59 100 82 77 55 46 48 60 69 78 89 92 88 87 80 69 66 68 63 52 45 49 63 69 68 67 64 58 56 59 62 64 63 60 56 55 57
49 44 40 34 36 38 38 54 100 82 79 67 53 79 81 83 84 84 92 97 95 92 84 80 76 60 50 53 68 78 84 83 76 67 64 64 64 64 61 56 54 51 50 54
41 48 36 29 32 39 40 48 96 83 73 73 49 78 98 96 97 100 100 100 93 90 86 83 84 81 64 63 76 93 85 86 81 75 72 69 68 66 60 54 52 55 56 58
34 32 41 36 30 33 44 47 86 84 71 74 64 46 83 99 100 99 98 98 98 92 90 90 90 92 89 73 74 84 89 85 82 86 78 74 76 70 58 58 60 61 62 62
32 29 32 34 34 33 38 49 74 79 74 69 74 57 45 61 92 100 100 97 98 100 98 97 86 88 88 86 84 89 92 90 89 86 79 79 81 73 61 63 68 69 66 64
29 43 29 29 29 30 31 38 52 76 74 62 67 64 47 52 48 64 100 100 98 93 95 97 89 88 94 93 95 97 99 96 91 92 84 83 81 72 64 69 73 72 71 67
53 62 50 29 25 25 26 26 32 50 73 72 68 74 56 50 52 52 73 97 100 95 98 94 98 94 97 97 92 97 97 96 96 94 89 87 83 71 68 75 78 76 73 70
64 63 55 49 28 24 27 24 21 30 54 66 73 79 72 61 49 50 64 86 89 96 99 98 100 97 94 100 100 98 97 99 97 98 95 90 83 73 76 83 82 78 72 64
72 76 70 52 45 37 34 28 23 22 36 59 75 74 66 58 49 63 88 96 97 97 100 100 98 99 100 99 100 99 97 99 100 99 98 94 81 79 88 90 83 77 68 59
81 83 91 79 58 47 44 40 32 25 30 40 63 70 64 55 48 60 90 90 97 100 100 100 100 100 97 100 100 96 99 100 100 100 100 92 85 91 96 90 83 75 67 60
92 92 96 96 89 77 67 61 52 37 30 39 45 63 65 59 51 50 79 96 96 100 100 100 98 100 98 100 96 100 95 99 100 100 99 94 98 100 96 89 81 75 73 72
96 100 96 97 99 95 84 75 67 62 47 46 53 55 63 62 54 50 63 99 96 95 100 99 100 100 99 100 100 99 100 100 100 100 100 100 98 96 92 89 82 76 79 83
100 100 100 100 100 100 100 100 98 80 70 70 69 65 62 59 57 56 68 87 94 98 100 100 100 100 100 100 100 100 100 100 100 100 100 99 96 95 90 88 84 85 92 94
100 100 100 100 100 100 100 100 100 100 100 100 100 94 88 89 91 91 98 99 99 100 99 99 100 100 100 100 100 100 100 100 100 100 100 99 94 91 90 95 96 93 98 100
99 100 100 100 100 100 100 100 100 100 100 100 99 100 100 100 100 100 100 100 100 100 100 100 100 100 100 100 100 100 100 99 99 100 100 100 98 99 100 100 97 95 93 97
57 62 80 97 100 100 100 100 100 100 99 100 100 100 100 98 98 100 100 100 100 100 100 100 100 100 99 100 100 100 100 100 100 100 100 100 100 99 98 97 97 87 86 93
43 40 36 34 34 40 64 98 100 100 100 99 99 100 100 100 100 100 100 100 99 99 100 100 100 100 100 100 100 100 100 100 100 100 100 100 99 98 94 90 86 82 85 86

GFSNGP_500_rhum_069.txt.gz
RH
91 81 75 73 73 75 74 68 65 59 54 44 36 28 25 22 21 20 18 16 15 14 13 12 13 12 12 14 14 14 16 20 14 11 9 9 10 11 16 14 14 32 42 46
77 73 72 70 68 75 76 75 65 58 51 38 30 28 25 23 23 22 21 18 16 16 16 16 17 19 22 21 19 19 22 18 15 12 9 9 13 13 14 11 14 25 30 42
84 81 68 80 79 80 82 76 54 46 45 39 37 33 29 26 26 23 21 19 19 22 26 29 28 26 24 21 23 22 16 18 17 14 12 14 15 18 21 27 34 38 43 47
57 57 70 56 55 50 50 58 64 56 50 41 35 31 27 23 23 23 26 35 35 35 33 32 33 32 27 30 28 27 24 20 21 20 16 18 26 25 26 31 40 45 49 62
40 40 48 51 53 51 50 47 46 42 38 33 30 26 26 35 43 46 45 43 38 34 31 37 34 34 38 37 33 30 24 25 25 24 23 24 27 30 34 41 39 47 57 53
39 53 56 52 47 44 41 38 35 32 30 29 29 39 58 62 65 60 48 37 44 44 42 43 45 42 44 40 33 29 32 34 30 31 31 34 36 47 52 58 56 58 62 62
54 59 53 44 44 46 38 32 30 29 36 42 51 64 70 80 84 72 55 54 52 48 52 52 44 40 42 43 39 35 39 42 42 38 42 51 50 52 54 55 59 59 58 59
57 60 53 46 43 43 45 38 34 36 58 83 85 83 90 85 85 79 69 62 58 57 62 45 44 49 51 46 41 39 39 42 51 56 58 53 52 52 50 47 46 51 55 57
61 61 55 48 45 43 37 40 43 65 90 95 96 94 89 84 79 77 75 70 64 54 54 50 46 50 49 47 44 47 49 56 64 64 61 56 52 49 45 44 48 52 51 45
64 62 59 56 54 54 48 36 44 69 95 99 85 91 79 74 76 73 73 73 67 64 57 57 55 51 48 49 58 60 59 64 67 62 58 56 50 46 47 49 48 42 40 37
68 66 63 59 56 51 50 38 41 69 99 90 68 61 64 75 76 74 78 75 81 82 76 71 65 59 57 62 59 55 65 69 64 61 63 58 54 52 51 48 44 43 41 42
50 52 55 55 50 44 41 37 39 51 98 80 68 55 56 58 64 73 82 90 90 88 84 80 77 73 70 53 46 57 67 70 75 74 73 63 62 58 57 55 45 45 47 49
38 45 43 40 43 40 36 38 40 43 94 90 72 62 78 88 85 85 84 86 93 96 97 94 88 82 75 64 54 63 73 80 76 80 75 77 73 64 64 62 50 51 54 55
31 32 34 35 34 34 34 37 42 45 76 99 76 77 62 81 88 88 91 93 97 100 99 95 89 82 81 88 82 74 78 79 87 88 90 83 77 71 69 67 57 56 60 62
26 21 22 26 26 29 33 36 37 44 54 91 90 74 75 55 54 88 95 97 98 100 100 94 93 91 82 82 90 90 82 86 94 92 92 92 88 82 78 74 64 61 66 68
26 22 17 24 27 25 30 32 31 36 48 71 96 83 69 75 50 48 56 94 94 97 100 100 98 94 89 79 87 92 96 97 96 95 97 96 95 92 88 82 71 67 72 73
23 18 15 21 42 38 24 27 29 27 35 49 71 83 69 69 72 49 48 52 56 89 91 96 100 100 100 94 91 98 100 100 100 92 93 97 99 98 94 89 74 74 80 78
19 19 16 37 44 47 34 21 23 27 26 30 44 64 76 71 70 73 72 53 53 64 99 98 97 99 97 99 99 99 100 100 98 97 84 86 98 98 98 90 78 82 85 82
17 19 40 60 58 51 44 31 21 22 26 25 27 38 57 74 77 76 73 54 52 55 84 100 100 100 100 100 100 100 100 100 100 100 88 87 97 97 99 92 88 86 84 82
58 68 73 72 71 67 59 45 33 28 30 31 28 27 38 59 74 76 71 60 52 91 97 96 98 100 100 100 100 100 100 100 100 100 91 89 96 99 98 93 90 84 81 80
98 93 89 86 80 84 88 68 52 46 45 41 38 29 29 41 58 73 70 63 53 62 97 92 93 98 98 99 97 100 100 100 100 99 96 91 93 100 97 92 86 81 79 80
100 89 86 94 93 91 93 89 80 70 65 61 50 37 31 38 46 63 70 68 59 53 67 96 100 100 100 100 100 98 100 100 100 100 95 95 100 100 96 88 84 82 84 84
100 97 100 100 100 100 100 100 96 86 78 71 67 62 48 46 53 59 66 67 65 59 63 88 99 100 97 100 100 100 100 100 100 99 99 100 100 99 94 85 84 87 88 88
100 100 100 100 100 100 100 100 100 98 100 100 100 99 87 74 69 71 72 71 73 84 90 94 98 100 100 100 100 100 100 100 100 100 100 100 99 96 88 91 96 93 90 90
96 98 100 100 100 100 100 100 100 100 98 100 100 100 100 100 100 98 100 100 100 100 100 100 100 100 100 99 99 100 100 100 100 100 100 100 99 96 100 100 98 93 94 89
68 84 76 73 85 96 100 100 100 100 100 100 100 100 100 100 100 100 100 100 100 99 100 100 100 100 99 98 100 100 100 100 100 100 100 100 98 97 96 97 96 95 98 97
35 43 47 46 43 38 37 52 43 72 100 100 100 100 100 100 100 100 100 99 99 100 100 100 100 100 100 100 100 100 100 100 100 100 100 100 100 98 97 98 94 97 100 95

GFSNGP_500_rhum_072.txt.gz
RH
61 66 74 79 83 93 98 91 79 68 84 74 45 36 33 31 29 29 27 25 24 23 21 20 18 16 14 12 11 11 10 10 11 12 15 16 12 8 8 9 10 12 15 18
77 80 71 70 73 77 86 94 84 77 71 65 56 46 37 30 28 26 24 22 21 20 18 16 14 13 13 13 12 12 14 15 14 15 19 15 12 10 11 9 14 20 18 17
72 73 72 70 68 68 69 73 78 71 68 62 57 41 34 30 28 25 22 20 19 18 17 16 15 16 15 16 19 21 20 18 20 23 20 17 15 12 12 15 19 24 27 24
76 84 80 70 73 77 77 78 83 76 66 56 40 37 36 35 32 28 26 23 21 20 19 17 16 19 25 27 30 28 26 24 24 21 20 20 19 17 18 16 26 29 29 33
65 66 65 78 60 67 65 64 71 81 68 59 51 44 37 32 28 24 22 22 21 23 26 28 30 30 31 33 28 30 32 29 26 22 24 25 24 24 25 28 35 41 44 48
49 40 42 64 72 72 56 52 50 48 47 44 38 33 32 28 29 38 43 40 37 37 36 33 32 34 38 37 42 43 36 32 29 32 35 29 32 33 35 38 40 44 44 42
37 36 50 68 68 61 52 47 42 39 35 32 31 32 33 38 55 64 67 57 46 38 41 44 45 46 45 41 38 43 39 34 37 41 42 41 39 44 45 44 47 40 36 35
33 43 58 63 60 52 58 50 41 35 33 33 45 54 58 70 79 87 85 78 67 61 53 54 54 49 44 43 50 45 40 39 39 41 45 52 52 51 50 48 42 37 37 36
47 58 58 60 60 55 44 42 46 44 41 50 84 93 89 84 90 87 84 81 72 65 57 59 58 50 47 54 52 50 45 44 50 54 57 59 56 54 52 45 40 40 37 32
58 60 61 59 56 50 47 51 43 44 58 81 100 100 96 91 87 84 81 80 80 74 66 59 58 55 51 48 47 46 47 54 65 67 65 63 58 56 50 47 46 44 37 35
72 68 66 64 62 61 57 55 54 44 47 80 99 100 93 83 71 72 78 75 74 75 77 75 66 62 62 58 52 52 57 60 66 71 71 66 67 61 55 53 52 52 43 41
65 67 64 63 63 60 58 53 48 44 41 56 98 98 81 56 58 73 75 72 86 92 93 88 84 80 74 68 66 64 56 58 71 74 71 73 80 74 72 61 58 57 54 48
29 35 38 44 50 53 54 50 43 42 41 44 87 96 85 55 55 63 68 79 86 93 91 94 95 94 90 89 81 61 53 64 76 79 80 88 95 90 77 72 69 66 63 58
31 32 33 31 33 37 43 44 43 38 39 43 52 99 88 66 66 94 96 99 95 91 91 92 98 98 91 86 84 83 75 72 74 79 85 96 94 88 84 83 80 78 73 66
26 24 26 24 23 23 25 30 38 34 34 42 44 78 96 78 64 62 95 96 87 90 92 94 96 100 97 92 92 86 91 90 87 84 95 95 90 90 89 89 88 82 76 72
36 21 18 22 23 17 19 23 23 32 35 35 42 44 88 85 75 77 56 56 70 89 90 88 89 98 100 96 96 94 85 86 90 93 96 95 86 80 77 81 84 84 84 79
40 28 20 22 21 17 15 21 27 22 29 35 35 40 54 90 85 75 71 56 48 50 51 71 96 94 97 98 96 96 97 92 91 97 93 93 96 92 78 72 80 84 87 84
38 32 21 19 19 19 16 18 34 35 24 26 34 32 44 60 86 81 64 67 67 62 59 54 56 91 100 100 100 96 97 99 99 99 99 100 97 99 86 73 79 84 90 88
40 31 25 20 16 16 18 27 26 31 31 20 23 29 31 38 52 75 77 70 70 78 73 53 54 56 85 96 100 100 99 97 100 100 100 100 99 98 93 85 86 90 95 92
42 33 27 20 16 18 34 53 49 46 40 31 21 23 29 28 29 40 57 76 82 82 75 58 56 72 76 94 97 99 100 100 98 100 100 100 93 98 98 92 88 91 98 95
50 46 48 58 65 65 63 63 65 67 62 47 37 27 30 33 30 26 35 55 76 77 74 67 53 67 97 98 99 99 99 100 100 100 100 100 100 100 100 97 91 100 100 96
100 100 100 96 92 88 86 84 86 93 87 69 56 48 46 42 37 30 30 42 56 75 75 70 62 55 80 99 97 100 100 100 100 100 100 100 100 100 100 95 99 100 100 94
100 100 100 100 100 100 100 100 100 100 100 96 85 75 68 63 58 46 39 43 48 60 75 74 70 63 62 90 100 100 100 100 100 100 100 100 100 100 98 99 100 100 99 94
100 100 100 100 100 100 100 99 100 100 100 100 100 100 89 75 71 69 62 57 56 60 67 73 76 92 96 96 99 100 100 100 100 100 100 100 100 99 100 100 100 98 94 93
57 89 99 100 100 100 100 100 100 100 98 100 100 100 100 100 100 100 100 100 91 85 87 90 96 100 100 100 100 100 100 100 100 100 100 100 100 100 100 100 100 100 97 97
43 43 50 63 80 89 88 96 97 100 100 100 98 100 100 100 100 100 100 100 100 100 100 100 100 100 100 100 100 100 100 100 100 100 100 100 100 100 100 98 100 100 100 96
50 48 43 36 40 45 48 45 41 50 63 42 70 99 100 100 100 100 100 100 100 100 98 97 97 99 99 97 96 94 94 97 100 100 100 100 100 100 100 100 100 100 100 100

GFSNGP_500_rhum_075.txt.gz
RH
54 53 56 68 77 84 83 85 83 81 96 99 98 68 44 46 60 48 46 40 36 31 27 24 22 20 19 18 18 17 16 14 12 10 9 10 11 13 16 14 9 9 10 12
54 53 56 66 77 86 90 86 86 82 74 90 98 82 53 39 36 35 36 34 31 29 27 25 23 22 20 18 17 14 12 11 11 11 12 14 15 16 17 13 11 11 14 13
61 64 67 67 72 75 81 89 89 76 82 84 92 99 97 76 45 35 32 29 27 25 24 22 20 18 16 15 13 13 15 17 18 18 16 16 21 23 18 16 15 15 16 16
72 68 72 71 71 71 72 73 76 76 77 77 86 92 69 49 38 34 30 28 27 24 21 20 19 17 16 16 17 21 26 25 23 21 22 22 21 20 22 22 20 24 22 25
71 72 71 74 70 70 74 76 79 80 82 74 72 52 42 39 38 36 34 30 26 24 22 20 19 19 20 22 25 31 32 28 27 29 28 28 25 26 28 28 33 30 31 35
66 61 63 69 77 64 67 65 62 65 80 82 61 56 53 47 40 34 29 25 24 23 22 23 28 32 33 30 31 36 32 32 37 34 33 32 32 36 35 38 38 38 41 40
65 48 40 54 74 83 75 65 64 52 51 52 54 47 40 35 33 32 32 45 53 48 41 42 40 38 40 38 40 41 40 47 45 36 34 38 42 43 43 45 46 46 43 37
57 39 40 64 88 92 84 78 55 45 42 40 38 34 33 36 36 48 66 75 76 69 54 50 46 46 49 48 46 44 44 47 43 40 40 44 47 55 56 54 49 48 42 37
38 37 42 64 80 81 73 54 69 51 44 38 36 37 54 72 73 75 75 86 84 78 70 63 56 56 60 52 48 53 52 52 48 49 51 56 65 64 56 54 53 47 43 42
48 52 50 61 62 59 67 64 51 46 44 51 57 67 91 96 96 92 85 89 84 83 79 70 63 65 59 55 52 56 56 54 54 57 64 72 68 65 61 60 55 52 48 47
71 66 64 66 67 62 60 58 57 57 54 44 52 76 91 100 93 94 91 88 82 79 78 77 74 70 66 62 62 57 54 58 63 67 67 68 71 72 73 70 66 64 56 54
77 76 77 74 72 68 66 64 60 57 53 51 45 59 92 100 98 92 81 82 83 80 78 81 84 85 80 77 73 72 68 67 64 64 66 71 76 78 81 84 80 71 65 65
34 38 48 53 58 59 59 59 59 57 52 46 44 48 88 100 95 68 59 72 83 87 97 97 94 89 87 89 87 84 81 68 58 63 68 75 82 82 97 90 80 77 77 75
33 27 26 32 34 35 36 42 47 49 50 46 41 43 49 99 97 70 72 85 85 90 93 95 94 95 94 98 100 98 96 86 68 65 72 80 86 89 94 84 78 77 75 75
37 30 26 25 27 27 26 23 24 29 39 42 41 39 45 63 98 86 70 85 94 95 96 95 97 98 97 97 98 100 98 95 99 97 92 90 88 94 91 80 76 71 66 70
50 45 39 27 18 20 25 25 18 18 22 27 36 36 39 46 70 97 84 69 63 93 100 100 98 96 97 93 99 98 98 99 96 92 90 91 97 98 94 93 88 84 74 70
47 48 47 43 28 22 21 22 19 15 17 24 23 30 34 38 46 69 89 78 74 56 55 61 72 77 99 99 100 100 100 100 100 100 99 95 97 100 94 94 91 91 88 77
42 44 46 44 36 24 20 20 20 19 17 19 30 25 26 33 36 45 74 81 76 77 70 58 53 55 57 59 84 99 99 99 100 100 100 98 97 97 96 97 92 94 98 90
39 40 41 43 38 33 24 21 16 16 17 16 26 31 29 24 30 32 45 74 89 84 76 72 72 78 73 58 57 66 96 96 96 100 100 95 96 100 100 99 100 99 98 97
68 48 42 44 40 35 28 22 17 14 15 20 34 40 39 32 22 28 30 42 60 82 84 74 71 79 81 56 56 59 75 100 100 100 100 100 100 100 100 100 100 100 100 100
72 60 54 48 44 39 30 24 18 16 19 44 56 60 55 45 28 23 28 30 30 40 58 72 80 83 78 70 55 77 100 100 100 100 100 100 100 100 100 100 100 100 100 100
99 99 100 98 96 90 86 89 88 80 74 70 74 79 76 59 46 35 33 33 28 27 29 41 64 79 82 78 64 60 82 100 100 100 100 100 100 100 100 100 100 100 100 100
100 100 100 100 100 100 100 100 100 100 100 100 97 100 95 83 65 53 48 45 39 36 33 32 43 64 81 80 75 68 66 84 100 100 100 100 100 100 100 100 100 100 100 98
97 98 100 100 100 100 100 100 100 100 100 100 100 100 100 100 97 85 76 69 61 52 45 41 41 47 58 78 81 89 95 98 100 100 100 100 100 100 100 100 100 100 100 95
87 72 57 55 65 90 100 100 100 100 100 100 100 100 100 100 100 100 100 100 100 96 85 79 77 76 79 81 81 85 99 100 100 100 100 100 100 100 100 100 100 100 95 99
70 68 66 61 53 46 48 76 89 87 94 98 100 100 100 100 97 100 100 100 100 100 100 100 100 100 100 100 100 100 100 100 100 100 100 100 100 100 99 98 96 95 100 100
67 63 58 50 43 39 38 37 41 53 51 48 67 61 47 74 89 84 95 100 100 100 100 100 100 100 100 100 100 100 100 100 100 100 100 100 100 100 100 100 100 100 100 100

GFSNGP_500_rhum_078.txt.gz
RH
94 76 73 74 69 60 59 64 60 63 72 91 95 97 100 96 68 58 46 39 36 41 58 36 48 29 26 24 24 22 20 18 17 17 16 15 13 12 10 10 11 12 16 15
53 54 52 50 60 78 69 62 63 57 72 87 98 100 83 52 61 68 71 58 49 42 42 35 37 34 27 25 23 21 20 18 17 15 13 12 11 11 12 13 15 20 17 13
64 61 55 45 48 57 72 77 76 62 87 96 95 99 95 57 46 44 40 37 41 41 40 36 36 26 25 24 22 20 19 17 15 13 14 14 15 16 18 19 23 22 18 17
64 62 59 64 68 68 70 70 73 78 81 93 92 97 95 99 97 88 67 40 33 30 29 28 26 24 22 20 19 18 16 16 17 16 20 23 20 20 24 27 26 23 23 22
65 65 65 67 71 72 70 68 68 69 70 75 82 93 100 91 78 53 40 36 33 30 29 27 24 22 21 19 19 19 19 20 25 29 27 25 25 27 28 26 26 28 28 28
54 62 68 69 70 72 72 69 71 68 67 66 77 81 82 58 45 41 39 39 36 32 29 26 25 24 23 24 25 27 31 32 34 31 28 33 34 34 32 33 35 33 35 41
48 63 63 53 63 80 71 68 66 61 62 68 83 78 61 58 56 51 44 38 32 29 29 30 27 29 32 39 39 36 33 37 39 40 42 43 36 37 40 42 43 42 46 50
43 64 54 43 54 74 79 80 81 72 60 52 54 58 66 56 44 39 36 33 37 51 59 61 55 49 43 42 45 46 46 46 44 47 47 41 42 48 45 48 54 55 54 51
44 58 47 42 73 87 98 95 88 70 55 46 42 43 39 38 40 44 44 48 64 77 88 82 73 66 57 56 56 57 54 50 54 54 51 48 48 50 53 58 60 56 57 53
45 44 40 48 68 95 98 94 67 83 90 54 50 43 42 46 77 90 86 82 85 95 92 89 81 72 69 73 72 63 59 64 63 60 55 55 57 62 66 65 62 62 60 56
57 55 57 59 62 67 72 67 86 67 61 58 49 55 69 85 96 98 97 98 96 98 95 91 86 79 74 75 70 62 64 65 62 60 60 63 70 73 72 70 70 72 72 69
86 80 76 70 67 68 70 68 65 65 62 58 55 52 47 64 86 96 100 94 95 95 96 93 90 89 87 80 75 73 72 68 65 65 71 74 76 80 80 76 76 78 85 77
95 94 87 80 77 72 70 68 65 62 59 58 56 50 49 43 63 94 100 97 92 92 99 100 94 96 98 92 90 86 84 82 79 74 74 80 86 87 82 80 81 90 82 76
39 37 40 40 41 41 42 45 49 52 53 54 56 52 45 43 45 86 98 93 84 88 92 97 100 100 100 100 96 96 98 97 91 84 78 82 86 85 84 86 88 91 78 70
36 31 29 30 30 29 28 26 25 25 27 32 40 46 47 42 44 51 97 100 85 99 100 99 98 96 97 100 100 100 99 97 99 100 99 96 93 90 91 90 95 95 84 79
44 41 34 34 31 28 28 26 24 22 21 18 20 24 34 40 38 46 55 96 98 80 97 100 100 100 100 100 100 100 100 100 98 98 98 97 99 99 94 93 98 97 89 86
58 58 54 48 45 42 31 23 20 18 21 19 15 17 22 24 34 32 42 49 93 98 79 75 95 99 100 100 100 100 100 100 100 99 99 97 99 98 96 98 96 97 88 85
36 38 42 46 47 48 45 40 26 22 22 21 19 18 18 29 28 26 31 33 46 93 99 86 67 58 66 82 83 92 94 100 100 100 100 100 100 100 100 100 100 97 93 90
80 85 70 48 36 38 39 45 42 34 22 20 18 17 17 17 22 33 26 27 32 46 84 91 81 74 60 64 66 69 69 68 79 100 100 100 100 100 100 100 100 100 97 94
72 65 55 47 39 36 37 42 42 36 33 26 19 15 14 15 20 28 30 29 26 32 39 63 91 89 82 86 78 93 94 74 69 67 76 100 100 100 100 100 100 100 100 100
76 78 80 75 68 54 42 40 38 38 35 29 25 22 15 14 28 45 42 39 33 24 30 35 51 76 95 95 83 81 88 86 68 76 83 93 100 100 100 100 100 100 100 100
100 99 99 96 88 71 53 45 39 33 30 28 24 25 27 40 58 60 57 51 40 29 29 32 32 35 45 60 74 87 98 98 84 69 93 100 100 100 100 100 100 100 100 100
100 100 100 100 100 100 100 100 100 99 98 97 98 98 97 95 91 85 80 70 58 45 40 40 38 36 34 32 39 55 87 99 99 87 74 88 100 100 100 100 100 100 100 100
100 100 96 96 96 100 100 100 100 100 100 100 100 100 100 98 98 96 99 94 80 70 65 57 52 46 42 41 41 46 62 80 94 100 100 98 99 100 100 100 100 100 100 100
99 100 94 87 79 69 61 58 60 86 100 100 100 100 100 100 100 100 100 100 100 100 95 88 83 78 73 69 65 68 76 84 93 93 94 100 100 100 100 100 100 100 100 100
100 98 88 77 69 66 63 56 48 46 45 83 75 90 92 100 100 100 100 100 99 100 100 100 100 100 100 100 100 100 100 100 100 100 100 100 100 100 100 100 100 100 100 99
90 85 76 68 61 54 48 38 36 36 33 31 55 69 66 56 83 56 76 99 97 91 100 100 100 100 100 100 100 100 100 100 100 100 100 100 100 100 100 100 100 96 79 56

GFSNGP_500_rhum_081.txt.gz
RH
33 38 60 66 61 39 22 37 44 64 43 66 67 66 87 88 100 94 83 68 62 50 42 42 84 97 95 77 69 40 28 25 31 20 19 19 17 15 15 15 15 14 12 11
98 96 91 95 96 85 70 62 59 56 61 76 69 87 94 96 88 97 100 80 49 48 43 38 40 72 67 73 77 60 40 30 22 21 21 19 17 17 16 15 13 12 12 12
66 67 62 56 58 66 76 74 62 61 83 69 76 92 100 96 86 87 75 85 96 64 47 41 37 47 76 43 64 48 28 25 23 21 20 19 17 15 14 14 16 13 16 22
56 67 60 60 57 55 52 54 63 74 86 100 98 97 98 100 95 86 63 74 78 64 62 54 57 46 59 37 41 34 24 24 22 20 19 16 16 16 19 18 19 22 27 30
50 69 67 63 62 62 57 54 52 57 68 85 90 93 96 98 100 100 98 79 54 40 37 35 36 35 65 61 36 24 22 20 19 18 17 19 23 26 26 25 29 32 32 32
71 71 62 67 66 67 70 64 57 53 55 62 67 74 95 94 95 98 82 53 61 46 42 37 34 31 29 27 26 22 21 21 21 22 24 31 35 34 33 33 33 36 34 34
72 62 54 64 68 68 67 68 67 64 65 72 74 74 77 82 90 71 48 49 47 42 38 36 33 31 27 26 25 24 27 28 31 36 39 41 39 37 41 38 36 38 42 43
77 55 51 65 60 57 67 76 74 73 66 65 65 68 83 80 62 62 66 57 50 40 35 33 41 47 47 44 38 36 42 44 42 43 43 43 50 50 44 38 43 49 48 50
75 47 48 62 52 49 66 80 86 85 84 68 57 54 54 58 68 64 45 39 37 36 39 56 73 77 70 57 50 48 45 48 48 52 54 53 52 48 44 50 52 49 52 56
52 48 51 59 46 55 81 99 100 95 90 66 57 46 44 45 44 43 45 47 53 57 70 86 95 90 79 73 66 60 60 63 63 58 56 60 55 52 52 52 58 62 62 58
58 53 57 51 47 65 82 97 100 89 72 86 87 58 58 53 48 50 72 94 96 98 88 96 97 97 89 78 78 81 80 71 64 66 70 64 60 58 60 68 70 66 63 68
85 68 68 65 60 65 71 84 92 77 96 96 88 76 70 54 60 80 96 98 100 100 99 98 100 99 99 94 85 83 78 71 68 70 67 63 63 68 75 75 72 70 72 75
100 98 91 83 75 71 72 74 77 82 84 77 74 63 58 54 52 49 69 90 97 100 96 94 98 100 98 98 96 92 82 76 74 71 71 70 75 80 80 81 81 80 81 83
100 100 100 99 99 92 84 79 75 71 67 62 60 58 57 56 50 48 46 74 100 97 96 97 98 99 100 98 95 98 97 92 88 87 86 82 79 79 82 85 86 87 89 92
54 56 57 64 67 65 55 46 41 39 38 37 38 42 47 51 53 48 44 47 82 100 89 94 100 100 100 100 100 100 100 100 99 91 89 90 87 85 90 92 92 96 98 96
52 47 45 43 42 42 39 35 30 28 26 24 23 22 20 24 33 44 45 42 47 84 100 89 95 100 100 100 100 100 100 98 98 100 95 95 97 98 98 97 98 100 100 96
52 42 37 39 40 39 40 38 32 27 26 23 20 23 21 16 18 20 32 40 41 50 79 100 93 89 100 100 100 100 100 100 100 100 100 100 100 100 98 98 99 98 96 97
46 54 57 55 54 51 48 47 46 45 40 30 22 23 23 21 19 18 22 25 33 42 50 56 91 91 81 94 100 100 100 100 100 100 100 100 100 100 100 100 100 100 100 100
79 58 49 48 46 41 35 36 38 42 45 44 36 25 21 20 19 17 17 19 30 34 32 35 40 69 99 98 84 81 78 85 85 90 93 95 100 100 100 100 100 100 100 100
90 81 69 61 57 60 65 71 68 45 35 36 44 43 40 34 26 18 15 15 18 22 29 28 30 40 56 95 97 93 82 70 66 74 89 90 81 77 85 98 100 100 100 100
73 73 70 64 62 59 53 49 42 38 40 36 36 40 38 35 31 23 21 19 14 21 34 31 28 29 35 48 68 94 97 90 87 90 96 100 100 82 77 76 85 100 100 100
99 96 94 90 85 79 75 74 72 64 52 40 36 34 31 31 33 29 26 22 19 29 48 47 41 35 30 32 38 49 65 82 93 97 100 100 100 100 83 80 96 100 100 100
100 97 98 100 99 98 100 100 100 100 98 88 84 83 76 68 71 78 76 78 79 76 72 66 60 50 37 33 37 39 40 42 46 55 78 94 100 100 100 94 91 100 100 100
96 100 100 100 100 100 96 88 87 88 84 97 100 100 100 100 98 100 100 100 100 95 94 90 79 66 54 48 48 47 45 44 42 42 44 55 74 92 100 100 100 100 100 100
100 100 100 100 100 99 91 86 88 79 70 64 59 71 96 99 100 99 100 100 100 100 100 100 100 96 87 79 75 74 72 67 63 57 61 68 79 89 98 98 97 100 100 100
100 100 100 100 100 95 85 74 66 59 53 45 39 39 42 62 84 96 92 100 100 100 100 100 100 100 100 100 100 100 100 98 95 97 100 100 100 100 100 100 100 100 100 100
96 99 100 97 93 84 70 58 50 45 40 36 33 31 29 26 36 70 82 66 87 63 89 100 100 100 100 100 100 100 100 100 100 100 100 100 100 100 100 100 100 100 100 100

GFSNGP_500_rhum_084.txt.gz
RH
97 99 96 98 94 81 62 57 43 32 22 38 52 42 51 57 73 80 91 83 92 87 69 48 46 45 51 81 87 55 38 29 29 27 26 30 38 47 44 22 21 17 16 15
70 42 44 36 36 42 38 32 38 37 27 49 59 59 74 76 81 89 89 92 85 87 67 53 48 45 55 77 92 93 70 72 61 38 29 29 35 54 46 20 18 17 15 16
57 44 59 79 96 83 81 65 47 23 56 50 71 71 72 70 83 88 97 98 94 92 78 70 57 50 43 53 59 79 85 82 84 73 62 44 40 36 26 20 18 17 16 14
91 87 83 84 85 65 66 77 72 82 86 79 88 83 82 86 100 95 88 97 100 100 90 69 58 52 45 43 43 55 75 56 73 81 72 37 32 23 21 20 18 16 16 21
49 48 54 62 65 56 52 53 50 56 65 74 82 87 97 96 100 98 97 95 97 96 100 100 95 90 80 65 54 53 80 57 45 64 30 26 24 21 20 17 18 17 22 28
59 49 58 69 65 63 60 56 50 56 58 62 64 72 94 88 88 90 100 100 93 86 72 60 55 52 54 46 47 68 53 68 75 39 24 23 21 19 18 21 27 31 32 35
62 73 77 68 62 68 67 59 61 64 66 67 68 64 62 70 75 88 97 97 97 91 94 76 70 54 41 36 34 37 46 54 53 25 23 22 22 23 27 34 41 42 41 41
79 78 79 61 56 65 63 60 70 70 68 69 74 78 77 80 83 79 73 83 89 66 52 48 45 40 48 46 36 30 35 38 46 42 32 28 34 41 44 46 48 48 45 47
89 83 80 66 52 65 58 52 71 79 79 77 69 64 61 62 78 84 73 65 71 72 52 46 40 41 46 47 50 46 42 41 38 46 48 46 48 53 56 62 58 52 51 52
96 88 82 55 49 62 53 54 74 87 90 90 88 73 58 56 55 57 61 63 53 43 45 47 54 60 76 94 88 74 61 51 53 53 53 56 64 60 60 60 57 58 58 62
98 81 62 49 49 64 49 57 82 100 100 99 100 91 70 64 54 50 48 45 46 63 84 80 72 84 99 100 97 91 86 81 74 74 75 71 66 68 69 66 68 64 66 72
100 88 68 62 61 59 56 69 86 98 100 99 95 91 96 86 73 68 70 73 78 99 100 100 98 98 100 100 100 92 89 92 88 81 74 73 82 78 72 71 76 79 78 75
100 100 92 76 72 71 68 72 75 89 99 98 90 98 99 92 67 64 60 56 88 100 100 98 95 96 100 100 100 100 98 90 87 82 80 84 85 79 78 82 88 86 81 82
100 100 100 95 83 77 80 84 83 84 90 87 86 87 76 69 64 60 56 52 51 63 91 97 94 98 100 100 100 99 100 100 95 87 83 81 79 79 80 86 88 85 87 88
84 96 97 100 100 100 98 97 97 93 86 78 72 65 58 54 53 54 55 55 49 49 56 93 100 96 100 100 96 99 100 98 98 100 100 98 91 86 84 83 85 87 92 95
74 74 70 72 74 83 90 90 81 64 50 40 33 29 27 26 24 23 29 40 49 49 48 55 98 100 97 99 99 99 100 100 100 100 100 100 100 99 94 89 88 91 95 95
56 64 56 60 61 65 62 56 50 46 41 35 31 28 25 21 22 23 18 18 25 32 45 46 47 78 100 92 98 100 100 100 100 100 100 100 100 100 100 100 100 100 100 98
40 42 53 60 64 64 58 58 54 49 47 46 46 42 37 35 26 23 22 20 19 24 27 34 38 43 59 98 100 95 99 100 100 100 100 100 100 100 100 100 100 100 100 100
99 93 62 42 39 42 47 50 48 46 45 44 43 44 45 43 41 31 22 21 20 17 17 20 26 30 38 46 64 97 99 91 100 100 100 99 100 100 99 99 100 100 100 100
80 83 92 96 97 91 79 74 68 59 54 54 55 58 53 36 39 43 41 38 35 29 19 15 14 16 22 29 32 44 68 96 94 86 88 87 88 83 79 82 82 84 83 85
93 90 90 91 90 78 63 52 46 44 41 39 35 36 43 50 38 32 38 40 32 31 29 22 20 17 14 18 24 29 35 45 77 100 100 96 86 80 89 100 100 100 100 94
100 100 100 96 88 85 82 78 77 76 76 75 71 64 54 46 41 39 36 34 30 29 31 28 25 22 15 17 29 31 32 31 37 49 73 97 100 98 98 100 99 98 100 100
100 100 100 100 100 100 100 100 100 99 99 95 93 97 100 98 93 82 68 58 49 46 49 50 45 40 46 47 49 47 42 41 34 34 43 51 58 71 82 89 92 98 100 100
100 100 100 100 100 100 100 100 100 99 97 94 90 84 72 65 84 100 95 93 86 87 92 89 94 97 93 90 80 71 65 53 43 40 40 42 44 44 44 46 49 59 72 97
100 100 100 100 100 100 100 100 100 100 90 82 81 66 54 53 50 46 45 71 92 97 95 94 92 99 99 100 98 92 84 78 70 63 58 56 55 57 61 62 64 66 74 85
100 100 100 100 100 100 100 100 99 98 87 67 55 50 44 38 33 31 30 30 36 68 90 88 100 99 100 100 100 100 100 100 100 100 98 94 88 86 88 90 96 99 100 100
100 100 100 100 100 100 100 99 96 93 83 68 52 42 36 30 26 24 22 23 24 28 54 91 96 85 74 98 100 100 100 100 100 100 100 100 100 100 100 100 100 100 100 100

GFSNGP_500_rhum_090.txt.gz
RH
83 80 70 63 75 76 64 80 94 100 96 94 78 67 60 47 40 46 39 36 33 34 38 43 43 42 38 45 44 33 35 44 69 64 57 56 62 88 90 84 84 85 87 85
78 84 83 63 70 71 77 79 81 86 100 90 69 58 46 38 42 42 39 37 38 40 41 43 52 57 59 50 57 48 51 57 67 54 50 74 76 73 90 83 86 86 86 87
77 89 87 89 86 85 84 81 70 75 96 77 66 54 37 33 42 40 36 35 37 42 45 60 70 76 85 70 72 76 71 62 56 50 46 48 55 83 76 61 59 66 38 34
93 85 88 85 78 80 84 79 76 70 66 62 60 48 46 40 27 31 34 38 43 47 58 71 71 76 91 86 82 80 76 54 52 50 54 56 68 78 74 79 72 58 53 53
100 98 85 72 58 58 56 68 68 69 64 58 50 44 39 28 25 25 28 38 51 60 68 71 69 73 99 97 90 78 66 58 52 52 58 70 87 88 86 79 76 70 80 72
98 98 84 75 69 87 85 77 71 64 56 56 64 71 48 47 49 50 53 63 69 75 83 86 84 77 89 100 100 98 88 79 68 61 54 46 43 49 67 76 76 61 71 81
91 95 87 81 75 57 58 59 63 60 55 50 53 58 55 57 63 61 56 70 88 96 96 100 89 90 86 92 99 100 100 98 94 87 79 73 66 60 62 59 70 46 53 32
31 44 66 65 51 50 53 56 55 60 60 58 58 59 57 57 65 63 64 67 82 98 100 99 96 93 97 94 92 81 74 59 51 50 58 52 55 48 65 64 66 71 67 36
45 41 46 47 56 61 60 55 54 62 61 64 69 70 69 68 66 67 72 78 82 86 89 93 89 93 100 95 75 94 92 82 82 83 66 50 42 76 72 56 61 74 54 58
64 56 61 70 72 69 68 69 55 61 60 59 71 77 77 77 75 70 70 70 71 84 88 76 69 72 72 77 68 60 51 54 64 78 80 80 68 66 68 81 93 88 86 84
92 88 81 80 78 77 80 77 55 62 55 55 76 84 90 91 90 83 74 66 63 61 64 69 75 74 67 55 57 60 63 76 95 95 94 95 89 80 74 73 72 78 84 90
93 95 91 84 89 86 76 62 50 59 61 57 75 88 97 96 90 92 81 75 68 64 92 80 66 64 64 81 94 96 93 90 100 100 100 100 98 92 85 79 84 86 88 88
86 88 92 90 87 93 95 77 66 64 69 58 68 86 98 100 93 100 100 95 90 91 85 80 79 85 85 99 100 100 100 100 99 96 100 100 100 100 100 98 97 97 98 99
90 81 80 90 91 88 92 98 80 79 84 71 75 82 88 96 100 100 100 99 99 99 96 86 78 81 70 77 95 100 100 100 100 99 95 96 100 97 100 99 99 100 100 100
73 88 82 78 87 98 100 100 100 97 91 90 87 88 89 91 96 97 96 90 90 90 70 58 61 62 56 62 72 85 100 100 100 100 99 100 99 100 98 97 99 100 100 100
66 62 71 76 84 92 99 100 100 100 100 100 100 99 99 99 96 92 67 41 34 29 27 24 22 25 35 49 53 57 82 100 100 100 100 100 100 99 100 100 100 100 100 98
92 82 57 48 64 81 97 96 96 99 99 100 100 100 100 93 75 52 40 34 31 29 28 23 22 19 18 21 29 47 50 60 98 100 100 100 100 100 98 100 100 100 100 99
80 88 98 92 57 53 58 90 94 89 88 92 90 80 69 62 55 46 43 44 45 42 42 41 38 26 21 19 19 26 32 44 51 64 96 100 100 100 100 98 100 100 98 97
81 91 100 100 100 90 54 46 47 61 88 87 74 78 86 88 78 58 56 54 53 50 42 38 34 33 32 22 22 20 17 18 29 38 45 58 93 100 100 100 100 100 100 100
73 85 98 100 100 100 100 100 100 99 94 87 82 72 60 53 50 46 46 45 42 38 37 33 39 47 37 35 34 34 31 30 21 16 17 29 38 46 74 100 100 100 100 100
100 100 100 98 96 98 97 98 100 100 100 97 89 80 72 64 55 49 41 37 34 30 28 29 32 40 42 33 31 33 34 31 29 28 24 20 17 17 31 42 49 94 100 100
100 100 100 100 100 100 100 100 100 100 99 92 86 76 75 76 79 86 79 70 71 72 68 55 44 42 43 42 41 41 39 34 31 29 27 27 25 22 18 19 31 42 47 84
100 100 100 100 100 100 100 100 100 100 100 100 100 100 100 98 94 89 83 75 67 63 58 53 50 52 69 82 82 71 60 52 46 41 40 36 30 29 26 23 30 36 45 47
93 100 100 100 100 100 100 100 100 100 100 100 100 100 100 99 100 100 100 97 86 67 48 40 34 28 25 27 37 43 62 82 84 84 75 68 84 86 81 69 61 65 62 57
25 44 98 100 100 100 100 100 100 100 100 100 100 100 100 100 100 89 84 79 78 70 57 45 36 30 25 21 17 18 22 34 62 73 87 94 100 100 97 93 96 89 85 78
15 20 25 64 94 100 100 98 97 99 97 91 89 90 91 94 94 94 89 84 77 70 64 58 44 31 23 21 20 19 18 20 25 31 78 96 83 81 100 100 100 100 99 99
11 12 20 20 25 55 74 80 78 75 76 80 83 84 82 79 76 71 68 67 63 57 54 52 43 31 27 26 28 29 27 22 23 26 51 94 81 69 94 100 100 100 100 100

GFSNGP_500_rhum_093.txt.gz
RH
100 100 97 81 90 92 92 100 98 99 100 87 70 68 68 44 37 44 46 39 32 30 34 36 37 39 38 38 41 38 37 39 34 30 30 55 79 98 100 98 94 85 73 70
100 96 100 99 85 81 81 93 100 100 100 85 70 54 52 60 61 57 48 39 35 29 30 34 32 32 36 40 44 50 53 49 48 45 39 44 58 77 82 82 83 72 64 62
96 90 82 75 83 80 80 75 85 98 90 67 64 60 60 63 67 59 50 40 42 35 32 34 35 38 42 48 55 60 63 69 58 57 54 50 48 67 71 82 86 71 72 67
89 90 94 82 76 75 77 73 75 83 76 70 75 71 67 56 40 34 31 39 40 33 30 31 39 41 48 57 56 58 70 70 66 71 78 64 59 61 49 51 56 64 69 65
92 77 82 76 82 78 66 63 63 62 61 64 60 62 62 59 51 40 35 27 29 30 29 35 41 52 62 67 64 65 86 76 77 76 81 64 59 55 52 52 59 74 76 83
100 94 82 84 82 70 57 52 63 73 70 64 55 54 32 37 36 33 36 27 26 26 38 49 58 68 73 77 78 75 92 100 96 88 72 65 58 56 55 62 83 88 83 84
98 100 96 89 83 76 65 53 68 65 62 59 54 51 52 58 60 49 52 53 56 58 66 73 78 74 72 78 74 84 85 92 100 95 88 81 73 71 67 61 52 46 49 71
84 90 94 96 87 77 68 61 58 58 57 56 53 49 46 47 51 54 58 62 61 59 74 80 82 80 81 88 86 98 89 78 84 83 70 71 86 82 75 75 75 74 67 65
46 38 43 61 85 71 56 52 62 61 56 62 63 62 60 58 59 61 60 60 59 64 72 73 78 77 88 95 88 90 96 82 84 82 82 80 81 84 92 65 65 79 63 62
80 59 47 45 48 55 53 56 57 57 54 56 61 60 64 66 69 70 70 70 73 74 74 73 75 82 77 70 73 73 77 75 68 59 60 58 72 79 80 75 75 74 89 87
92 94 91 83 76 74 77 71 64 60 60 56 64 57 70 81 83 82 81 78 71 67 66 64 67 75 81 83 80 76 67 54 60 63 68 96 100 100 98 92 87 78 82 87
81 89 87 85 88 86 88 85 76 79 76 56 62 55 67 82 87 90 90 91 84 78 72 69 66 71 89 62 58 57 62 71 77 82 83 91 100 99 99 98 93 87 84 86
92 89 87 88 86 88 90 90 86 77 63 54 61 62 60 78 89 100 100 99 100 93 82 81 79 78 79 73 74 74 72 82 90 93 98 99 100 100 100 97 100 100 98 97
92 100 90 87 88 91 92 92 98 98 88 79 79 90 72 74 84 96 100 100 99 98 98 100 100 93 90 88 87 76 74 88 95 94 93 97 97 100 100 100 98 100 100 100
89 90 87 95 89 82 88 96 99 100 100 98 95 99 93 85 92 99 99 100 98 97 96 97 97 88 71 74 76 69 64 79 77 93 94 95 98 98 93 99 100 100 100 100
92 97 98 82 82 87 85 89 97 100 100 100 100 100 99 98 98 98 99 99 98 88 53 39 33 29 25 21 20 25 39 53 56 66 90 98 99 100 100 100 100 100 100 100
87 88 96 87 66 66 75 86 90 93 95 99 100 100 100 100 98 98 98 97 86 57 39 31 29 31 30 24 21 20 19 21 27 48 53 69 99 100 97 97 100 100 100 100
83 74 82 90 97 87 64 55 64 75 89 87 89 95 96 93 89 88 75 65 58 46 38 38 41 43 44 43 38 33 25 19 18 23 30 43 52 67 95 100 100 100 100 100
61 74 76 79 96 100 100 95 68 58 52 55 74 88 86 85 84 80 76 74 69 57 55 53 51 47 41 34 36 36 34 30 22 22 20 17 21 33 45 58 90 100 100 100
90 89 76 76 85 100 100 100 100 99 96 91 79 58 58 64 68 67 67 66 76 67 46 41 43 43 42 38 33 32 42 41 37 34 32 30 28 23 16 19 32 44 62 93
100 97 100 100 100 100 100 100 100 100 100 100 100 100 100 100 94 84 76 69 62 56 50 42 37 31 27 26 25 27 34 42 39 36 35 36 34 31 29 26 23 20 19 27
89 100 100 98 100 100 100 100 100 100 100 100 100 100 96 86 80 78 75 72 78 74 69 65 65 65 65 64 62 58 50 43 42 42 40 40 40 38 34 31 29 28 27 24
26 72 100 100 100 100 100 100 100 100 100 100 100 100 100 96 94 100 100 100 95 85 73 68 62 60 55 39 33 29 31 41 55 68 70 66 60 51 46 45 40 37 34 30
47 27 34 64 97 100 100 100 100 100 100 100 100 100 100 100 100 100 100 100 100 95 95 94 92 79 56 43 38 32 26 22 20 20 22 28 48 71 71 70 73 70 69 80
22 21 25 22 37 57 98 100 100 100 100 100 100 100 100 100 100 100 100 100 100 100 96 92 84 75 68 63 57 52 43 28 20 17 17 18 18 21 35 54 75 92 92 98
11 12 13 19 20 28 43 63 96 100 100 100 100 99 98 99 100 94 87 85 84 81 77 75 66 59 57 53 45 42 41 32 28 22 19 23 24 21 20 25 44 94 99 84
48 58 40 22 15 16 28 34 28 48 72 79 80 75 71 72 72 76 77 73 70 68 65 58 52 46 45 47 45 45 39 34 30 25 23 29 24 22 25 24 27 65 92 79

GFSNGP_500_rhum_096.txt.gz
RH
100 100 92 76 87 100 100 100 100 100 100 83 71 81 77 72 38 27 27 33 38 40 29 27 26 25 26 31 38 41 39 38 37 37 34 34 31 29 34 41 76 87 89 90
100 97 100 87 98 97 96 98 100 100 98 83 76 78 79 77 55 42 40 40 50 49 36 31 30 37 41 45 44 37 36 37 42 49 44 47 42 40 36 29 34 53 75 94
94 96 95 100 100 89 85 97 99 100 92 78 84 80 81 77 86 78 65 63 64 48 40 30 29 34 34 32 31 32 35 42 52 56 59 60 60 46 46 48 42 34 54 73
98 94 81 86 78 65 70 72 73 68 78 92 83 79 77 74 66 64 68 68 61 51 45 42 36 34 32 32 30 31 40 47 51 50 54 74 71 56 50 56 61 52 57 66
70 70 79 76 80 84 84 80 74 76 75 77 74 75 69 62 64 60 50 40 34 31 37 43 37 32 30 30 32 40 48 53 59 61 68 84 77 75 73 75 63 62 62 54
80 77 58 83 72 72 75 70 62 56 54 55 55 54 54 60 63 62 59 52 44 34 28 29 30 30 30 34 48 56 61 67 66 59 66 87 92 91 78 72 64 60 60 56
86 81 83 92 86 82 73 66 71 60 63 66 66 55 51 52 48 48 47 42 36 39 36 30 33 35 38 54 61 64 59 61 66 69 74 81 87 90 95 88 74 66 64 77
80 95 92 100 100 95 84 78 70 61 58 58 57 57 54 50 50 54 58 58 53 54 58 63 69 62 68 76 73 65 65 60 64 83 78 79 81 74 71 71 83 86 74 75
66 58 73 90 100 100 96 84 71 59 53 54 54 53 56 55 51 50 52 55 57 60 64 64 63 66 74 79 73 69 72 73 78 80 84 86 87 80 79 76 76 86 90 65
95 83 60 50 46 52 78 89 74 57 58 62 56 52 56 59 59 60 61 59 59 59 59 62 62 60 67 69 72 73 71 70 73 74 77 67 60 61 62 57 86 88 81 78
91 91 96 87 74 58 52 52 55 55 64 64 62 60 59 63 63 72 79 79 76 74 72 71 71 71 74 74 78 80 81 82 79 75 67 59 62 63 63 87 93 94 98 97
98 100 100 100 100 98 91 84 79 74 69 63 59 61 58 61 58 72 83 84 86 85 86 83 76 70 67 67 66 66 71 65 62 62 69 71 85 93 92 90 95 97 97 99
78 91 100 100 100 100 100 100 96 91 86 78 76 75 61 62 62 63 79 85 94 93 88 88 84 80 79 78 76 83 82 73 72 70 75 89 100 98 96 97 98 96 100 97
100 99 81 100 100 100 100 100 100 100 100 96 85 74 61 63 65 64 65 86 90 96 96 93 87 86 93 100 99 92 88 87 85 74 72 84 97 96 98 100 100 97 95 97
100 100 96 99 100 100 100 98 100 100 100 100 100 100 93 86 88 90 78 79 90 95 99 97 96 100 100 100 100 95 89 85 76 71 67 75 76 85 98 100 100 100 92 93
72 89 100 100 94 93 85 92 99 98 100 100 100 100 100 100 99 100 98 94 95 95 97 99 100 96 90 66 53 47 33 23 20 22 28 47 55 64 77 94 100 100 99 96
50 61 77 87 100 100 100 96 89 97 96 98 100 100 100 100 100 100 100 100 100 98 96 99 97 64 37 30 27 30 34 35 31 24 20 18 20 34 49 56 74 98 100 94
74 64 61 73 90 91 100 99 77 73 75 84 98 99 100 100 100 100 100 99 100 100 95 85 66 47 38 39 41 46 47 44 35 32 30 26 20 18 20 28 42 54 71 94
67 67 77 69 63 82 90 100 100 96 89 59 59 61 80 94 94 92 91 93 89 78 73 65 60 53 49 52 51 47 42 37 33 32 34 33 31 26 24 23 20 18 29 46
68 72 72 86 88 83 77 97 100 100 100 100 97 81 59 50 50 52 68 82 81 75 73 75 74 72 71 50 40 43 45 43 40 35 33 34 39 39 38 36 34 30 28 20
35 43 62 70 98 96 100 96 93 100 100 100 100 100 100 100 100 100 100 100 94 86 80 73 67 62 56 51 44 37 32 29 26 25 25 26 32 39 41 37 35 35 35 32
69 61 37 30 75 100 99 99 100 100 100 100 100 100 100 100 100 100 99 93 90 79 74 75 78 78 73 70 66 64 57 51 49 51 56 60 59 51 44 42 41 40 41 41
59 61 58 52 42 60 96 100 100 100 100 100 100 100 100 97 96 100 100 89 88 97 100 100 99 82 70 60 55 52 48 44 41 32 27 24 22 23 34 49 59 63 60 54
31 26 24 27 30 30 32 49 96 100 100 100 100 100 100 93 96 97 97 97 90 97 100 100 100 98 95 89 88 84 77 70 63 57 50 43 30 21 18 18 18 18 19 34
24 23 22 17 13 12 14 24 60 60 93 100 100 100 100 100 100 100 100 100 100 100 100 99 100 100 100 100 100 94 80 73 66 57 46 41 38 32 25 24 20 20 22 21
26 29 18 13 27 46 26 16 23 52 72 60 86 99 100 100 100 99 97 92 87 89 92 90 84 77 74 71 68 65 57 49 41 37 34 34 35 32 27 25 24 18 17 23
31 26 16 14 40 73 71 48 29 22 47 58 58 55 64 80 88 86 79 73 66 62 62 62 62 62 61 60 59 56 51 44 38 32 29 29 30 31 30 31 29 31 39 37

GFSNGP_500_rhum_099.txt.gz
RH
70 76 79 86 97 96 100 100 100 100 97 80 83 52 58 57 81 88 74 54 24 22 19 18 22 19 22 22 19 20 28 34 38 40 40 36 32 32 30 28 28 31 42 43
85 76 86 91 84 76 99 98 97 100 96 100 88 98 99 97 66 40 67 42 20 24 29 35 33 27 26 23 23 30 34 37 35 29 30 34 42 42 40 35 35 36 33 31
80 88 97 100 100 100 100 100 96 84 92 89 100 100 100 100 98 76 41 32 34 42 50 52 38 33 29 32 36 35 34 33 33 33 33 36 42 48 46 46 52 52 52 37
79 73 93 99 98 94 88 91 99 96 95 91 100 100 100 100 100 100 96 76 59 60 62 56 39 35 36 38 39 36 33 31 33 34 36 39 41 45 48 47 55 61 52 43
73 86 83 71 73 80 88 94 94 85 84 86 96 92 86 90 89 90 88 93 96 92 76 61 49 44 38 35 33 32 32 33 31 28 38 47 52 56 52 55 70 64 63 57
67 66 72 82 79 72 78 77 71 62 63 70 82 88 80 80 80 72 69 70 64 52 46 38 37 46 45 41 37 32 31 31 31 38 54 60 62 56 56 62 80 81 74 70
64 75 77 85 90 84 81 79 79 73 67 55 57 63 64 66 63 68 69 67 65 60 50 46 39 33 31 33 31 31 35 40 47 61 64 57 55 49 56 61 70 75 76 81
69 56 84 100 100 100 100 100 92 78 68 62 59 65 64 66 64 60 60 64 64 60 55 50 44 45 45 40 39 45 57 67 67 72 68 61 53 58 71 68 70 72 78 80
82 85 65 86 97 100 100 100 90 80 74 68 61 57 56 57 59 59 56 56 57 62 69 72 72 69 72 74 76 73 78 83 80 73 69 65 70 73 73 71 73 79 80 76
86 90 92 84 70 82 97 99 100 97 86 66 56 55 55 52 53 57 60 60 60 60 60 60 61 64 67 66 67 70 69 69 71 68 73 71 70 70 70 60 51 52 53 62
80 84 97 100 100 90 65 62 61 74 85 80 63 54 59 63 57 58 61 62 67 69 70 71 72 71 70 70 72 73 77 80 80 81 79 80 77 73 67 57 59 64 61 86
90 76 89 94 96 100 100 100 94 80 71 75 74 74 69 67 66 60 62 62 69 77 78 77 78 78 78 77 73 71 69 68 68 68 76 71 66 64 62 69 82 87 86 84
68 96 92 93 100 100 100 100 100 100 100 100 98 90 81 77 77 69 62 62 68 83 83 80 85 89 90 87 84 82 79 78 81 86 85 77 70 74 77 79 98 96 94 94
73 88 94 100 97 84 94 99 100 100 100 100 100 100 92 81 76 70 63 66 68 73 82 83 90 98 96 94 90 88 89 89 93 95 92 88 84 81 80 78 90 95 94 93
39 57 76 98 100 100 100 88 98 100 100 100 100 100 100 100 97 90 76 72 74 74 76 84 90 100 100 100 100 100 100 99 100 92 90 86 66 61 65 65 74 84 94 91
42 49 48 55 74 87 100 100 100 100 100 100 100 100 100 100 100 100 100 100 100 100 99 93 97 100 100 100 100 100 98 86 74 46 26 21 20 20 21 27 43 56 68 85
35 52 63 63 56 66 80 85 100 100 98 88 98 100 100 100 100 100 100 100 100 100 100 100 100 100 100 100 100 85 50 34 28 28 37 40 35 31 26 20 19 23 35 49
19 34 46 52 60 65 60 66 83 89 95 100 97 96 100 98 100 100 100 100 100 100 100 100 100 100 100 100 100 87 51 38 42 44 47 46 39 34 31 29 26 21 18 19
13 29 36 41 65 70 80 80 72 88 100 100 100 95 83 69 74 91 99 100 100 100 100 100 100 98 94 90 87 74 56 49 50 52 48 44 41 36 34 34 35 34 31 28
11 14 42 44 37 48 58 91 89 99 100 100 100 100 100 100 97 71 63 58 54 60 85 97 99 98 94 89 86 83 78 75 63 48 44 44 44 42 38 34 31 34 40 41
12 12 14 39 60 48 35 56 100 100 100 100 100 100 100 100 100 100 100 100 100 98 98 96 94 89 85 83 84 78 69 61 53 47 42 37 35 34 33 32 29 26 27 32
16 12 14 22 42 57 55 48 47 91 100 100 100 100 100 100 100 100 100 98 99 100 100 100 97 96 90 87 88 85 77 71 63 55 44 40 35 32 28 28 27 34 49 60
19 13 11 17 22 21 21 24 26 30 61 100 100 100 100 100 100 100 100 95 89 97 100 94 89 94 98 100 100 91 72 61 56 57 58 60 59 52 50 47 38 27 22 21
23 16 11 16 20 24 24 22 16 13 24 55 96 100 100 100 100 100 100 100 100 100 100 100 96 92 94 98 95 91 91 91 82 77 76 75 75 71 64 58 48 41 37 31
26 19 13 12 19 27 22 15 14 26 25 39 100 100 93 99 100 100 100 100 100 100 100 100 100 100 100 99 96 87 84 82 84 92 93 97 95 87 69 55 43 35 30 30
26 22 14 13 16 26 22 14 22 48 68 56 36 91 100 97 86 88 96 99 100 100 100 100 98 90 85 85 86 82 76 71 65 59 58 56 52 48 44 39 34 29 26 25
28 21 14 14 20 28 25 16 18 49 78 72 52 39 55 98 88 74 60 58 50 52 70 63 55 49 42 38 36 35 34 32 29 28 28 30 32 31 30 30 29 26 24 23

GFSNGP_500_rhum_102.txt.gz
RH
49 68 79 89 86 92 100 100 96 79 91 76 60 69 69 73 70 58 36 42 65 58 25 26 25 22 20 20 19 12 14 14 16 19 27 34 42 41 37 35 30 31 30 29
53 52 55 62 86 89 80 91 100 98 96 96 99 89 90 81 72 58 46 28 24 34 48 33 20 20 22 20 16 20 20 18 16 15 17 21 26 28 26 30 35 36 39 41
55 52 71 80 91 85 94 100 88 100 100 100 100 89 55 79 89 81 78 84 54 36 22 22 23 25 25 24 24 24 22 19 18 20 24 25 25 26 25 23 28 30 39 41
77 76 92 100 100 98 99 98 92 98 100 100 96 100 100 88 90 91 91 84 88 93 91 59 29 40 36 35 30 27 24 24 25 29 30 29 28 24 25 32 38 43 45 44
86 95 88 93 100 100 82 86 98 100 100 100 100 100 100 100 100 100 100 94 65 59 52 44 56 56 51 43 37 33 32 33 36 34 29 26 27 26 29 44 47 50 52 46
71 82 98 99 86 80 80 81 85 100 94 87 94 98 100 100 100 100 98 100 100 97 75 76 77 69 56 46 41 37 36 38 39 36 30 27 26 29 36 42 50 50 42 50
58 75 83 88 91 92 90 88 92 82 74 74 69 63 74 94 99 100 100 100 99 100 99 97 99 93 71 57 51 47 48 46 43 37 33 31 32 40 49 53 53 45 51 66
60 54 67 93 96 97 97 91 83 82 81 76 71 70 73 73 74 83 91 93 97 92 83 83 75 63 63 64 58 45 42 39 36 33 32 38 51 69 71 61 53 44 62 72
77 69 79 74 84 100 100 100 97 94 92 93 87 77 72 71 68 68 68 65 65 70 75 74 74 69 64 59 50 49 51 52 55 61 67 74 78 73 69 58 58 62 68 67
71 83 90 97 95 80 89 100 100 100 100 93 85 78 71 65 62 61 61 62 61 59 59 60 63 67 70 73 76 76 76 77 76 72 65 63 63 60 62 62 63 69 70 65
71 79 76 80 92 98 97 83 79 95 98 100 100 93 74 62 65 66 58 57 61 64 64 65 65 65 64 64 66 68 68 66 66 66 68 71 71 68 68 66 64 63 63 62
56 72 79 71 76 94 98 100 100 99 85 72 66 69 76 73 63 63 65 62 59 62 63 66 69 72 75 76 77 77 77 77 76 74 72 69 69 69 69 69 68 67 65 64
15 42 67 68 97 100 100 100 100 100 100 100 100 90 84 83 78 76 73 74 71 62 63 66 78 84 84 84 86 87 88 87 86 82 78 76 76 78 80 79 77 71 74 85
8 19 45 62 75 90 95 93 99 92 100 100 99 100 100 100 100 92 81 77 76 73 66 66 73 83 86 83 92 97 96 92 93 94 91 86 84 92 95 94 90 83 84 82
8 9 15 30 55 70 78 80 90 100 99 98 100 100 100 100 100 100 96 93 87 81 72 69 72 76 77 86 91 91 96 99 100 100 100 99 100 93 92 87 67 58 64 63
10 10 11 14 31 42 46 67 80 86 97 100 100 100 100 100 100 100 100 98 96 99 100 97 90 95 97 92 90 94 95 96 100 100 100 92 90 71 30 23 23 22 21 21
13 11 10 10 16 28 42 50 50 66 78 88 100 100 99 94 99 100 100 100 99 100 100 100 100 99 99 100 100 100 99 98 96 100 93 70 61 34 33 42 40 35 31 28
17 15 12 10 9 14 27 44 53 56 58 74 93 100 100 100 100 100 100 100 100 100 100 100 100 100 100 100 100 100 100 98 97 100 91 52 40 42 45 47 47 41 37 34
20 20 17 13 10 11 17 29 37 44 64 67 81 100 100 100 100 100 100 99 97 99 100 100 100 100 100 100 100 100 100 100 100 99 88 80 60 48 50 52 48 44 40 37
24 24 23 19 12 10 11 17 34 36 45 81 86 100 100 100 100 100 100 100 100 100 90 79 69 63 70 92 98 100 100 99 99 99 98 91 82 77 66 58 48 44 42 38
28 28 28 25 17 11 11 12 15 41 50 45 71 96 100 100 100 100 100 100 100 100 100 100 100 97 96 97 97 96 94 93 93 97 96 92 85 76 62 46 41 38 37 36
33 32 31 30 24 15 11 14 17 18 24 26 33 45 97 100 100 100 100 100 100 100 100 100 100 100 100 100 100 100 100 100 100 100 89 77 69 60 48 42 38 35 32 30
41 35 33 32 31 22 12 14 21 24 23 21 17 15 33 80 100 100 100 100 100 100 100 100 100 100 100 98 92 96 100 100 100 100 89 74 63 56 55 53 53 54 56 58
49 41 36 34 34 29 18 12 16 22 22 14 13 24 45 99 90 98 100 100 100 100 100 100 100 100 100 100 100 100 100 100 100 100 100 99 92 87 83 79 79 78 78 71
53 47 41 38 37 33 24 16 13 17 20 17 16 33 64 66 100 100 100 99 99 100 100 100 100 100 100 100 100 100 99 96 99 96 90 86 73 68 66 60 58 54 57 70
58 51 45 43 41 37 28 20 17 16 22 21 18 27 58 71 62 82 100 100 100 100 100 100 100 96 95 98 99 96 91 88 81 72 64 57 53 49 46 43 41 40 41 42
61 54 50 47 42 37 30 23 20 22 26 22 24 47 65 78 80 92 88 96 100 100 100 100 84 65 55 54 62 68 63 52 37 29 26 24 23 21 20 18 17 16 16 16

GFSNGP_500_rhum_108.txt.gz
RH
57 84 89 76 74 66 52 51 46 42 39 48 49 68 59 49 49 58 63 64 64 65 62 68 82 79 76 78 60 44 48 45 44 47 38 23 26 23 21 21 28 30 24 11
39 54 54 50 63 69 63 54 42 46 55 47 37 33 37 42 43 34 38 39 34 39 46 42 44 44 49 50 42 37 34 32 31 44 42 34 50 50 31 24 29 34 16 8
48 50 56 58 58 66 66 63 70 51 56 57 49 42 36 32 31 27 24 23 33 41 36 41 46 51 56 64 66 46 33 29 31 37 34 27 29 21 22 29 42 13 9 10
37 43 51 52 61 71 78 84 77 73 79 80 70 66 76 63 55 41 39 40 44 46 46 50 69 55 44 39 38 54 39 28 28 26 23 22 27 35 30 41 20 14 12 12
39 54 63 79 82 92 79 81 81 89 83 86 92 100 100 93 95 83 81 75 90 85 79 58 50 45 44 41 33 26 24 24 24 24 28 35 36 26 26 22 19 19 15 16
65 59 72 78 84 91 98 100 94 95 94 92 93 90 92 100 100 100 100 86 69 96 96 92 75 63 52 54 52 45 43 48 55 62 54 44 54 76 58 25 24 22 23 25
48 53 60 72 75 82 95 92 99 96 97 100 100 98 96 97 100 100 100 100 95 77 82 88 100 87 80 70 59 66 55 60 52 56 55 45 41 44 32 34 32 30 33 32
23 39 47 52 58 70 80 85 86 85 88 93 99 100 100 100 100 100 100 100 100 100 100 100 100 100 100 91 88 96 90 94 76 68 75 82 70 59 48 45 41 42 45 44
8 11 20 34 49 50 56 64 68 69 70 70 79 87 84 80 83 90 89 88 92 94 100 100 100 100 100 100 100 100 100 100 100 98 97 98 94 80 68 61 61 54 50 44
8 7 9 19 33 43 47 52 55 67 74 68 66 68 77 86 89 84 80 81 78 81 81 80 85 87 94 99 100 100 100 100 100 100 98 98 88 77 79 80 71 59 55 51
9 8 7 7 16 34 44 48 55 64 64 65 74 79 81 75 77 82 89 85 83 76 71 70 72 78 82 87 94 100 100 100 100 100 100 100 96 90 82 72 65 58 53 53
12 10 9 8 8 9 16 36 44 51 54 64 70 73 80 83 83 89 92 96 92 80 76 76 70 70 72 76 83 86 87 90 91 89 87 85 81 74 70 67 62 62 63 66
16 12 11 10 10 9 7 9 24 46 57 60 68 79 84 84 85 88 90 92 91 93 98 86 86 80 69 71 74 77 80 82 82 80 79 78 78 78 79 76 76 73 68 67
24 18 12 11 12 11 10 9 8 10 21 40 56 63 64 68 82 89 91 98 100 99 94 98 100 98 98 90 77 71 70 74 80 85 88 88 85 81 78 78 77 80 76 75
30 29 23 14 13 14 13 12 11 9 8 13 24 46 65 67 76 89 85 88 97 100 100 100 100 100 100 100 99 88 76 72 76 86 92 92 89 82 79 78 81 86 84 84
34 34 35 31 18 16 15 14 13 12 12 10 10 14 30 40 63 80 87 98 99 100 100 100 100 100 100 100 100 100 94 82 74 74 76 80 84 81 80 82 82 85 92 92
34 36 40 42 39 26 20 18 16 16 14 13 12 9 11 28 38 45 51 77 97 100 100 100 100 100 100 100 100 100 100 100 98 96 90 84 85 86 86 86 89 93 96 97
37 40 44 48 49 42 31 25 21 18 18 16 15 13 10 10 18 29 48 57 78 95 100 100 100 100 100 100 100 100 100 100 100 99 98 97 96 94 93 95 97 98 100 99
40 40 46 52 53 51 46 36 30 24 21 20 18 14 14 12 11 17 30 54 72 100 100 100 100 100 100 100 100 100 100 100 100 99 100 100 100 100 100 100 100 100 100 100
45 44 47 54 56 56 54 47 38 32 27 25 23 20 16 15 15 15 17 20 28 56 97 100 100 100 100 100 100 100 100 100 100 98 95 93 98 100 100 100 100 100 99 100
51 49 51 56 58 60 60 56 47 40 34 31 28 26 25 18 15 18 18 18 16 14 19 54 100 100 100 100 100 100 100 100 100 100 100 99 92 91 96 100 100 100 100 100
56 55 55 57 61 63 66 62 55 48 42 37 38 34 30 28 18 17 21 20 18 18 20 93 81 100 100 100 100 100 100 100 100 100 100 100 100 100 100 100 100 100 100 100
63 61 60 61 62 64 68 66 61 56 50 44 48 45 37 30 21 20 23 23 20 19 21 62 100 100 100 100 100 100 100 100 100 99 100 100 100 100 100 100 100 100 100 100
70 67 65 65 63 64 67 68 65 63 59 54 58 60 50 39 29 25 26 26 27 26 23 29 60 100 100 100 100 100 100 100 100 100 100 100 100 100 100 100 100 100 100 100
76 73 71 69 67 66 68 70 71 70 67 65 71 70 63 51 40 38 34 34 33 32 37 41 56 73 100 100 100 100 100 100 100 100 100 100 100 100 100 100 100 100 100 98
83 78 75 75 72 71 72 75 78 75 72 74 78 76 70 63 50 45 44 47 49 30 50 62 79 94 100 100 100 100 100 100 100 100 100 100 99 97 96 96 97 97 94 80
87 82 81 80 74 72 76 81 82 78 74 74 75 72 66 58 50 44 35 35 41 41 48 87 97 99 100 100 100 100 100 100 100 99 98 90 82 76 73 63 47 39 37 34

GFSNGP_500_rhum_111.txt.gz
RH
67 82 53 56 64 63 72 76 81 64 81 75 65 80 84 86 77 64 57 66 86 93 94 91 96 96 92 90 89 88 76 69 68 67 64 65 60 56 49 52 52 40 30 25
46 59 53 52 55 54 49 43 45 44 36 42 47 66 66 61 65 85 82 66 53 60 73 80 91 82 83 92 91 96 89 70 54 48 43 44 44 47 46 43 31 27 34 42
43 42 46 50 55 51 56 51 44 44 38 34 29 28 38 48 56 54 47 54 63 71 76 79 79 75 69 64 66 68 69 64 54 46 37 39 40 43 44 38 30 35 39 32
32 36 43 44 55 63 70 53 47 50 46 37 38 36 26 26 22 25 27 32 36 36 38 39 46 54 53 50 52 67 64 50 45 43 41 35 32 32 35 35 31 27 24 22
33 34 41 47 53 65 73 45 46 43 52 59 64 59 51 45 42 20 20 24 19 20 21 18 24 31 31 34 39 45 48 48 49 52 52 46 33 30 28 26 24 26 37 40
46 49 51 54 59 76 71 63 59 57 58 67 61 62 61 70 64 50 50 48 63 58 48 49 57 54 45 42 39 38 44 46 47 45 42 45 37 28 26 25 26 30 28 32
18 37 42 53 58 61 78 73 75 84 87 82 70 61 63 63 61 58 59 66 70 70 72 60 79 84 81 76 63 57 48 48 56 60 43 31 33 37 42 49 49 45 53 63
7 11 24 28 42 52 58 65 69 72 74 76 76 77 76 79 86 77 71 76 85 78 76 76 72 75 78 87 91 83 82 61 64 69 58 63 63 64 65 66 64 56 56 64
10 7 6 9 13 26 41 42 46 53 56 58 63 66 74 87 95 92 91 91 89 94 100 100 100 89 89 95 95 99 93 85 82 82 87 96 89 72 72 80 92 90 95 85
15 15 11 8 7 7 13 26 33 37 41 44 49 55 55 53 57 68 82 88 90 90 88 83 85 90 95 99 99 100 100 100 100 100 100 100 100 100 100 100 100 99 100 98
19 19 18 16 11 8 7 8 12 22 35 44 48 48 50 56 65 68 70 72 72 78 82 85 88 86 85 86 89 96 100 100 100 99 99 100 100 100 100 100 100 100 96 97
22 22 21 20 20 16 13 10 8 8 11 22 36 49 58 66 70 73 78 84 86 93 96 93 85 83 78 73 76 85 92 97 98 99 100 100 100 100 100 100 100 100 100 99
26 27 26 24 21 18 18 18 12 10 8 7 10 19 42 58 64 79 86 89 92 96 99 100 100 100 92 84 82 75 75 81 84 91 99 98 99 99 99 97 95 91 87 81
25 27 29 30 28 23 21 17 16 14 12 10 8 7 7 16 41 57 63 67 84 93 98 100 100 100 100 100 100 96 93 79 77 82 86 90 94 96 97 96 94 92 88 84
27 28 29 31 34 34 33 26 20 17 17 15 12 10 9 8 9 18 42 68 85 99 100 100 100 100 100 100 100 100 100 100 98 92 85 82 82 86 93 98 98 96 89 83
32 31 31 32 34 36 39 38 33 26 20 19 19 16 14 13 11 10 12 24 38 51 74 99 100 100 100 100 100 100 100 100 100 100 100 99 89 82 86 94 97 98 95 83
36 37 35 35 37 38 40 43 44 38 31 22 21 21 19 17 16 15 12 11 14 24 48 56 74 100 100 100 100 100 100 100 100 100 100 100 100 100 89 79 77 78 80 82
40 42 42 40 41 43 44 46 50 49 43 36 25 25 24 22 21 20 18 16 14 13 18 34 52 79 99 100 100 100 100 100 100 100 100 100 100 100 100 100 96 92 88 85
44 48 50 48 48 49 49 50 54 56 52 46 39 32 33 33 28 25 23 19 16 16 17 17 22 51 93 100 100 100 100 100 100 99 99 99 100 100 100 100 100 100 98 93
48 50 58 57 55 56 57 55 56 59 57 53 49 43 37 42 42 35 31 29 23 16 17 21 19 16 16 41 98 100 100 100 100 100 100 100 100 100 100 100 100 100 100 100
49 51 57 62 62 62 65 63 62 62 61 58 56 54 48 49 54 50 44 38 31 22 20 22 22 20 20 17 27 50 96 100 100 100 100 100 100 100 100 100 100 100 100 100
51 54 59 66 70 71 72 71 68 66 65 63 62 62 59 57 61 61 56 51 43 27 24 26 26 23 20 20 80 100 93 100 100 100 100 100 100 100 100 100 100 100 100 100
52 57 61 70 75 78 79 78 75 72 70 68 69 70 70 68 68 70 66 62 57 40 37 36 33 27 28 29 26 63 99 100 100 100 100 100 100 100 100 100 100 100 100 100
54 61 65 73 77 84 87 86 82 76 74 74 75 76 77 76 78 77 79 75 69 59 49 47 46 36 29 29 36 53 100 100 100 100 100 100 100 100 100 100 100 100 100 100
56 63 67 76 83 90 94 92 86 79 76 76 78 79 80 79 81 80 80 73 61 55 52 47 48 48 38 39 56 88 100 100 100 100 100 100 100 100 100 100 100 100 100 100
60 66 71 81 87 93 95 95 88 80 76 77 75 75 75 73 71 64 57 56 56 53 40 37 38 46 46 71 87 97 100 100 100 100 100 100 100 100 100 100 100 100 98 96
68 72 79 86 89 91 97 95 87 76 73 75 73 70 71 66 60 55 53 57 63 71 43 31 37 40 40 60 96 100 99 100 100 100 100 98 96 98 95 89 91 85 70 49

GFSNGP_500_rhum_117.txt.gz
RH
83 68 83 100 84 80 90 88 82 64 65 70 57 65 93 95 97 100 98 99 92 99 93 88 100 95 88 88 89 93 97 94 88 90 87 86 94 97 97 96 95 92 84 79
72 58 44 59 61 66 49 62 66 64 68 75 76 69 51 56 75 94 95 98 98 98 97 98 97 91 89 94 91 91 95 90 88 89 89 77 79 88 94 95 92 83 73 67
49 53 54 53 44 30 33 28 27 26 35 35 45 55 53 49 36 41 52 78 90 96 96 97 100 99 97 95 97 96 96 97 94 95 100 97 85 92 95 87 79 74 70 66
47 51 46 52 50 44 30 24 22 20 20 19 22 19 27 45 43 40 38 43 49 60 53 79 97 95 97 95 97 97 99 100 100 99 99 100 99 97 94 82 66 62 52 48
35 33 35 43 48 49 31 25 20 17 16 14 13 19 25 20 18 26 24 25 31 26 32 31 36 70 77 63 65 74 60 62 74 78 71 76 82 88 92 87 71 62 54 47
27 27 28 34 32 37 38 25 20 16 14 14 15 15 14 14 20 18 17 21 21 17 30 34 34 37 41 43 40 44 46 46 45 42 42 46 49 46 45 46 54 59 59 53
11 13 16 20 22 20 32 20 23 21 22 24 22 24 20 20 19 19 22 22 22 21 21 19 19 21 22 23 23 26 27 30 38 47 51 52 53 51 48 46 51 52 50 55
8 10 12 10 12 11 8 10 12 14 18 19 18 18 20 21 25 25 24 22 23 27 32 36 38 40 43 40 36 27 27 25 22 24 29 40 42 44 45 44 46 47 48 43
12 11 11 11 11 10 8 8 8 7 8 8 10 12 13 14 12 13 16 21 28 30 27 27 30 39 43 46 56 68 68 60 67 78 76 81 76 72 71 63 55 52 52 54
16 17 16 15 14 14 13 12 11 10 9 8 8 7 6 6 6 10 14 19 22 24 29 34 36 39 42 53 62 66 75 91 92 82 85 94 94 98 100 100 94 78 80 90
18 19 19 19 18 17 17 16 16 15 13 12 11 9 8 8 7 6 6 6 6 8 17 27 35 40 44 56 69 77 84 90 94 100 100 100 99 100 99 99 100 100 100 100
21 20 20 20 22 22 22 20 19 20 19 18 15 14 12 12 11 9 8 8 8 8 8 8 10 19 34 47 62 76 85 96 100 100 100 100 100 100 100 100 100 100 100 100
23 23 24 24 24 25 26 27 27 26 26 24 21 19 17 15 14 13 12 13 13 13 12 12 9 8 7 8 28 55 76 95 100 100 100 100 99 98 100 100 100 100 100 100
26 26 26 27 29 30 32 33 35 36 34 33 31 26 22 20 19 18 19 19 20 21 22 21 18 16 14 14 12 11 34 65 88 98 100 100 100 100 99 100 100 100 100 100
29 29 29 30 32 34 36 38 40 41 42 42 42 39 33 28 25 23 22 22 23 26 28 32 33 32 29 25 22 19 16 13 35 80 98 100 100 100 100 100 100 100 100 100
32 32 32 31 32 34 36 39 44 46 48 50 52 50 49 41 35 30 28 26 26 26 29 32 36 41 43 41 36 30 25 20 15 16 50 92 100 100 100 100 100 100 100 100
34 33 33 33 33 35 36 40 45 52 55 57 60 62 62 54 52 46 37 32 31 32 33 38 41 44 48 51 52 41 31 24 18 18 16 28 53 99 100 100 100 100 100 100
33 35 34 33 34 36 38 40 44 51 57 61 65 69 72 72 66 58 55 46 40 39 40 48 52 55 52 54 62 62 53 32 23 19 21 18 18 45 66 94 100 100 100 100
36 36 36 34 34 37 40 43 48 53 59 64 66 73 77 79 78 74 67 60 54 50 51 54 60 67 67 62 69 83 86 73 53 28 24 27 26 20 19 83 97 95 100 100
36 36 37 36 38 43 48 54 59 65 69 72 74 78 84 86 87 83 76 69 63 61 60 62 66 74 79 76 85 98 93 84 75 64 63 59 44 27 21 19 26 96 100 100
39 38 39 40 46 54 62 70 75 79 81 82 82 84 86 91 92 89 81 75 71 67 64 68 74 81 83 87 96 95 76 64 58 55 49 41 31 25 25 22 24 41 64 100
49 43 43 48 54 60 66 75 83 91 95 92 89 88 89 92 96 90 83 76 68 65 66 72 80 84 83 84 78 65 60 56 50 50 50 40 32 29 28 25 47 94 95 75
52 51 51 53 54 60 66 75 86 99 99 97 94 94 92 94 94 90 82 71 61 58 65 71 79 84 78 70 64 63 65 59 42 38 48 44 32 34 40 44 80 77 90 100
61 60 60 59 62 67 74 83 90 99 99 96 96 97 96 95 92 86 73 61 55 59 64 70 69 65 59 56 59 69 80 65 41 38 46 53 74 97 100 100 100 100 100 100
63 62 63 66 72 74 82 86 88 97 97 94 94 96 94 93 90 79 66 56 56 55 54 51 45 40 40 46 60 81 97 82 53 46 51 58 86 100 100 100 100 100 100 100
65 66 66 69 70 80 80 82 89 87 94 96 95 92 92 90 83 70 60 52 52 48 42 37 31 28 32 38 53 82 100 100 73 57 51 77 98 100 100 100 100 100 100 100
65 65 68 73 80 82 73 77 86 88 90 93 98 90 87 83 72 62 54 51 48 40 29 19 15 15 16 23 48 77 100 100 97 72 61 56 71 80 99 100 98 100 100 100

GFSNGP_500_rhum_120.txt.gz
RH
100 85 87 86 83 88 94 91 83 90 91 89 95 98 100 98 97 97 100 86 69 74 71 80 82 79 76 91 95 95 95 94 89 93 92 86 85 88 90 93 79 84 81 87
57 97 78 59 67 75 58 59 62 64 62 70 56 51 68 100 96 96 97 100 96 85 64 60 64 68 72 80 90 97 91 84 76 80 75 68 83 100 89 85 82 76 92 95
48 60 59 55 54 35 31 29 34 32 36 44 51 45 35 45 49 89 92 93 97 99 98 100 100 100 98 98 90 88 90 84 90 82 70 72 84 84 95 95 91 98 99 97
50 57 54 50 42 38 28 21 23 21 20 20 20 21 25 27 21 19 43 56 73 90 95 95 93 93 96 100 100 100 96 95 99 99 97 93 93 99 98 100 96 97 98 96
38 38 46 55 39 32 27 27 20 17 16 16 14 25 21 19 16 17 17 12 14 12 23 35 41 46 35 39 66 95 97 96 98 100 96 94 100 98 99 100 100 98 97 100
22 21 25 32 30 25 26 22 30 28 23 24 22 20 22 20 14 12 14 15 14 17 16 20 26 28 26 39 43 30 20 28 29 34 77 89 82 92 91 75 74 79 87 94
16 17 18 22 30 34 28 19 17 18 19 21 22 21 22 23 26 23 18 18 15 14 13 12 14 15 17 23 26 31 37 38 35 41 48 49 49 55 62 58 53 53 58 56
10 10 12 12 12 10 9 10 10 10 9 10 12 13 13 11 12 13 16 16 14 16 19 22 20 19 23 26 28 26 24 22 24 26 28 32 43 53 59 62 71 75 81 70
10 10 10 9 9 9 10 9 9 9 9 9 8 9 8 7 6 6 6 6 7 8 12 18 19 19 25 30 31 31 32 39 38 36 38 30 29 30 30 33 44 54 53 52
14 15 14 13 13 13 13 13 13 12 12 12 11 11 11 10 10 10 10 10 9 8 8 7 7 8 8 11 24 38 45 53 60 60 61 65 69 74 71 68 76 84 85 87
16 17 17 18 18 19 19 19 18 17 16 15 15 15 14 14 14 14 15 15 15 15 13 10 9 8 10 12 11 9 9 20 46 68 87 92 96 96 96 89 88 91 99 99
18 16 16 17 18 19 19 19 20 20 20 19 20 20 20 20 20 21 19 20 18 16 16 14 12 10 10 11 14 20 19 14 10 14 43 81 90 96 100 99 92 100 100 98
20 20 18 17 18 18 19 20 21 21 21 24 24 25 26 27 29 28 28 25 22 18 16 15 15 13 13 14 18 25 32 35 30 19 13 23 61 90 96 100 100 98 100 100
21 21 19 18 19 21 21 22 23 24 25 27 28 29 33 38 37 38 34 33 24 20 17 17 18 19 18 20 24 30 38 43 41 34 25 17 16 34 59 85 100 100 100 100
24 23 22 20 19 20 22 25 27 29 32 35 36 37 40 43 46 47 46 42 37 32 27 23 22 24 24 26 28 35 47 47 49 52 42 31 21 16 16 42 82 100 100 100
27 26 25 23 21 23 26 29 32 35 39 43 46 49 52 52 53 55 55 55 54 47 40 35 30 30 32 32 33 41 57 61 61 58 61 52 36 23 18 16 28 60 98 100
31 30 28 25 23 27 31 36 40 42 45 48 54 60 62 63 62 63 63 64 63 61 56 50 43 39 41 42 43 50 61 67 72 68 79 85 70 43 22 19 18 18 44 92
35 36 32 28 26 31 37 44 48 51 54 58 61 65 70 71 72 72 71 71 73 69 65 60 57 53 53 54 57 64 69 74 81 85 97 96 94 87 60 28 22 22 20 29
40 35 30 30 29 34 41 46 50 53 59 64 72 71 71 74 78 76 76 75 75 74 70 66 64 61 60 63 67 73 76 77 84 91 97 96 92 82 77 54 32 33 38 34
37 32 32 32 31 37 43 47 50 55 60 62 66 66 72 75 77 76 78 77 76 77 75 68 66 63 63 63 66 70 72 85 85 85 86 80 68 59 59 64 62 55 48 32
38 40 42 42 39 41 46 50 53 60 62 62 66 71 71 73 74 76 81 83 77 77 72 67 64 58 56 56 60 66 76 83 76 70 68 62 58 52 51 51 48 42 35 28
44 46 46 47 50 51 53 52 55 58 64 65 64 66 68 70 73 78 80 82 79 75 69 64 59 55 55 56 56 57 63 63 62 62 66 70 61 47 42 49 48 39 31 28
45 49 53 56 55 53 54 53 53 56 66 64 59 62 64 66 70 80 85 80 76 69 63 58 55 53 53 50 46 42 42 43 47 63 75 84 71 50 40 48 51 72 81 62
52 53 54 53 58 61 56 56 58 67 73 66 61 61 64 70 78 78 82 78 73 65 57 54 53 52 48 39 30 28 27 29 38 58 88 99 84 60 46 56 72 91 100 96
62 60 58 58 63 66 62 62 67 79 79 70 63 59 64 76 85 84 81 74 66 57 52 50 48 39 26 18 16 16 16 16 18 42 74 100 100 83 58 76 95 100 100 100
71 70 70 71 76 72 68 70 76 79 78 76 73 71 76 80 83 84 78 69 60 50 45 37 23 12 13 17 24 32 35 33 22 26 63 94 100 99 71 59 73 99 100 100
78 70 68 76 78 78 76 74 75 74 75 84 88 81 82 85 84 82 74 64 53 44 33 15 8 11 23 34 43 44 44 40 32 33 61 82 100 100 95 72 73 85 99 100

GFSNGP_500_rhum_123.txt.gz
RH
71 69 80 75 79 91 85 88 87 91 100 97 99 98 98 92 98 98 78 97 99 98 94 96 94 96 95 93 91 98 97 97 94 93 93 91 94 96 96 95 95 96 97 97
64 70 73 71 69 66 66 64 62 64 70 81 91 96 99 87 96 98 94 97 93 92 96 90 87 77 79 76 88 81 83 88 77 83 79 76 64 59 75 68 62 62 67 69
57 58 47 43 36 37 36 40 40 50 46 52 90 89 91 93 98 98 98 97 96 88 85 85 96 84 92 82 96 98 86 77 86 86 84 79 82 92 80 87 88 80 79 70
26 30 35 33 24 25 24 22 22 20 24 36 41 41 37 26 52 95 96 96 96 98 97 97 98 99 96 95 94 96 96 96 88 92 99 100 96 99 100 100 99 97 97 98
27 28 25 25 24 26 23 28 25 22 23 22 21 17 17 15 16 12 22 22 21 25 59 90 91 88 65 72 48 38 32 34 58 81 94 97 94 90 85 90 87 77 90 94
19 25 21 17 18 21 22 16 20 23 24 31 24 18 16 18 14 11 10 10 11 12 9 8 7 10 12 15 21 30 33 33 46 59 80 70 77 65 72 79 96 98 100 99
16 18 18 16 22 28 20 24 18 17 14 13 12 15 12 9 8 6 6 5 6 6 6 6 8 10 13 18 22 25 32 39 49 65 53 56 72 61 72 71 73 74 89 93
13 16 14 10 10 10 8 8 8 9 8 8 8 8 9 9 9 9 9 8 8 7 7 7 7 7 7 7 9 13 16 18 20 23 26 33 42 54 66 78 89 98 98 99
10 10 11 11 11 11 10 10 10 11 12 12 12 12 13 13 14 14 15 15 14 14 14 13 12 11 10 9 9 9 8 8 10 20 26 27 31 30 28 32 36 41 57 76
13 16 16 17 17 17 17 16 15 15 16 16 16 17 17 18 17 16 16 17 14 15 17 17 17 17 17 16 13 12 11 12 12 13 12 11 14 41 57 60 58 63 64 66
15 15 16 17 18 17 19 19 18 18 18 18 19 18 17 15 15 17 17 17 17 18 18 17 16 20 20 20 20 17 16 16 15 19 24 29 26 18 12 15 52 84 100 100
15 14 14 15 15 14 16 16 16 16 16 16 16 16 16 16 15 12 12 12 13 13 12 13 17 20 22 23 25 23 21 19 20 23 27 32 36 38 32 18 12 26 70 94
13 13 14 16 17 17 18 19 19 19 20 21 19 17 14 16 14 13 12 9 8 11 13 17 18 19 22 26 26 26 27 25 24 24 28 38 53 52 47 44 31 14 18 64
14 14 14 16 18 19 20 20 20 24 24 23 24 24 24 24 28 24 22 22 19 19 23 24 26 26 28 33 31 30 31 31 29 29 31 41 56 66 62 54 35 31 20 16
21 18 16 16 19 22 24 25 23 24 23 21 23 23 24 27 30 31 30 29 30 36 37 40 41 40 40 40 38 36 35 34 35 37 39 45 55 69 73 66 63 51 31 25
26 24 22 19 20 24 28 29 25 26 30 27 24 25 26 30 28 30 30 29 29 33 38 44 45 48 48 47 47 45 44 43 44 46 51 56 62 66 76 83 85 83 70 40
26 29 29 24 20 24 30 34 33 33 33 34 36 34 31 32 34 33 34 32 33 39 46 51 50 50 52 52 51 52 50 51 52 55 61 65 66 70 80 88 89 85 89 88
30 30 34 31 26 23 28 35 38 39 40 40 42 46 40 34 36 36 34 32 39 45 50 54 57 57 58 56 56 54 54 56 60 60 57 54 65 82 88 91 89 95 96 89
31 34 34 30 28 28 27 34 39 40 42 42 41 42 46 43 38 38 39 37 46 53 52 54 58 60 59 58 56 55 56 57 57 55 55 65 81 80 79 82 86 85 88 78
28 31 32 32 35 36 32 30 33 40 43 43 43 44 51 50 42 39 40 42 53 58 58 59 64 63 61 57 53 52 53 56 56 54 56 62 59 57 62 63 66 64 61 56
32 31 32 34 37 40 40 40 43 44 45 47 47 50 57 59 51 45 46 54 58 61 59 61 65 63 59 52 50 50 51 54 49 46 46 43 42 46 54 60 65 67 62 55
38 38 37 37 38 42 44 47 48 50 53 52 52 53 56 59 54 54 56 63 60 65 61 62 65 61 55 49 47 42 40 38 28 31 31 28 29 40 53 71 79 78 69 50
42 42 42 44 47 48 50 51 50 54 59 60 58 60 60 61 59 62 66 68 67 68 67 68 65 60 50 44 36 23 16 13 14 16 17 17 19 28 48 81 95 91 67 54
53 51 52 55 57 58 56 54 54 57 64 66 68 68 67 68 67 67 70 73 77 73 72 70 65 56 45 37 19 9 10 17 22 24 30 33 33 27 33 65 100 100 81 77
64 63 61 65 68 68 65 64 64 66 70 73 74 73 73 75 78 66 67 75 78 72 73 68 62 50 41 23 8 11 23 28 34 40 45 46 45 40 35 54 96 100 90 72
73 74 74 77 79 80 79 78 74 75 80 85 81 78 75 75 73 73 78 83 82 76 73 68 56 45 30 10 8 16 19 24 31 39 48 50 48 45 45 51 90 100 99 80
83 85 85 88 93 96 95 94 95 93 95 96 91 85 82 82 81 79 83 85 80 76 71 62 50 40 18 7 10 13 15 16 12 12 18 35 51 55 59 69 100 100 100 96

GFSNGP_500_rhum_126.txt.gz
RH
58 61 70 80 96 86 98 98 99 98 100 99 98 98 99 99 96 98 99 98 98 98 97 96 98 98 97 95 93 96 94 94 95 96 98 97 97 97 97 97 97 97 96 97
51 56 68 72 72 67 64 69 96 96 100 99 98 98 99 97 98 97 97 97 96 98 95 94 91 91 93 96 95 96 96 76 87 91 90 95 94 93 96 96 95 96 92 91
53 58 58 53 46 45 45 46 50 77 90 95 98 98 98 97 97 97 83 83 86 93 94 98 93 100 100 98 95 91 88 76 67 67 71 76 80 82 87 72 71 81 90 94
51 47 39 34 26 25 24 22 24 34 55 50 36 93 97 97 96 99 95 96 98 97 98 98 99 96 97 94 81 66 58 62 64 65 80 78 74 80 89 87 86 71 83 79
30 27 24 23 23 21 16 21 18 21 18 24 15 67 86 74 86 70 42 54 89 90 95 93 86 77 75 45 53 46 42 35 42 43 50 63 63 64 88 86 89 98 96 89
15 15 16 19 19 22 20 20 19 20 16 11 10 10 12 10 10 10 12 19 19 20 22 19 14 17 22 18 22 32 42 38 46 62 63 55 67 68 70 60 65 78 80 79
9 12 14 17 20 17 15 17 14 11 10 8 6 6 6 6 6 6 6 6 6 6 6 6 7 7 7 7 8 8 12 18 23 37 60 87 100 98 91 82 89 78 93 89
11 10 10 10 10 9 10 10 10 9 10 10 10 12 13 14 13 13 13 14 14 13 12 12 13 13 14 13 12 12 11 11 10 9 7 8 22 36 57 75 92 97 98 99
12 13 13 13 13 14 14 14 15 15 15 16 17 18 17 17 16 14 15 15 15 12 11 11 10 8 8 11 12 10 12 13 11 13 14 14 14 13 11 8 10 18 26 41
13 14 14 15 16 17 18 19 18 18 17 17 17 15 14 14 15 13 13 12 12 14 16 15 12 12 11 11 13 14 16 15 15 17 18 18 17 18 18 18 16 15 18 14
12 11 13 13 12 12 13 12 12 13 15 14 13 14 13 15 14 13 12 10 11 10 10 9 9 8 9 10 8 10 11 13 14 19 21 22 24 24 22 23 24 24 24 29
10 10 10 11 10 12 15 15 13 12 12 14 15 15 14 14 12 10 9 9 9 8 8 8 8 8 8 8 8 9 11 16 16 17 24 24 26 28 29 30 31 33 34 35
12 12 13 13 12 12 11 11 12 12 12 12 13 12 12 14 12 11 10 10 9 9 10 11 12 12 12 11 11 11 12 14 12 13 27 32 32 32 35 38 39 42 48 54
12 14 15 15 14 14 12 12 12 13 13 13 13 14 14 15 17 17 17 14 13 14 14 16 17 17 17 17 17 18 15 11 14 24 32 36 36 38 41 44 51 59 65 67
16 14 14 16 17 18 16 14 17 19 18 18 17 16 16 18 18 17 15 19 21 22 22 20 21 22 22 21 18 16 13 19 27 34 40 41 40 40 43 53 66 70 70 68
21 24 22 17 16 19 19 20 20 22 26 26 26 28 28 26 23 22 22 23 22 25 28 31 30 28 29 27 21 17 26 31 35 45 47 46 46 50 58 66 63 59 61 67
25 23 25 28 26 20 18 22 26 30 30 31 31 30 32 35 37 38 34 29 30 31 32 38 39 40 35 32 29 31 37 43 48 52 50 49 53 58 58 56 58 64 66 68
26 30 29 29 32 31 25 22 23 30 32 29 34 36 37 38 40 42 41 39 36 36 37 44 46 41 40 39 35 37 44 47 50 50 46 46 50 52 42 48 56 54 52 59
23 25 28 34 34 29 26 28 28 26 26 28 34 40 41 42 44 48 47 46 47 43 45 51 47 47 50 49 44 46 50 52 50 47 46 44 35 15 19 35 41 38 41 44
29 28 29 28 29 31 32 34 35 36 36 37 43 44 47 50 52 56 57 50 53 56 57 52 53 56 57 58 54 53 54 52 48 44 36 16 9 10 12 16 20 23 28 35
40 36 34 34 34 35 36 36 36 39 41 44 47 46 48 52 56 57 57 54 60 64 60 54 59 61 65 64 60 57 52 49 44 33 13 9 12 16 17 18 19 18 20 27
50 49 47 42 40 40 41 42 43 46 50 54 54 53 54 56 62 66 67 65 65 67 62 61 64 69 72 68 62 55 50 46 35 15 9 12 16 20 25 27 31 32 31 29
57 58 57 57 53 48 48 49 51 55 59 61 59 59 62 69 71 77 79 77 73 73 71 70 73 76 75 68 60 51 48 39 19 8 10 13 16 21 27 34 42 45 43 37
76 67 64 67 66 67 63 57 60 63 67 70 72 74 80 85 85 93 93 88 83 80 79 75 76 79 76 68 58 50 44 27 10 8 11 13 14 14 13 32 52 52 50 45
88 87 81 76 76 75 73 77 72 73 83 87 94 96 97 97 96 93 94 94 92 90 84 79 81 80 75 66 54 48 36 15 8 11 13 13 13 14 10 13 35 56 58 54
90 90 94 96 90 88 95 93 88 91 96 96 96 98 98 99 100 100 99 98 96 96 89 84 84 80 74 61 51 42 21 8 9 13 12 10 11 14 10 13 34 64 68 66
98 98 98 99 100 99 97 97 98 98 98 98 98 100 99 100 100 100 99 98 96 94 91 91 85 79 70 55 48 29 12 8 12 13 12 12 12 14 10 15 44 82 84 72

GFSNGP_500_rhum_129.txt.gz
RH
64 59 84 89 95 99 100 100 99 100 98 92 99 93 95 96 97 97 96 95 96 97 98 98 97 98 95 96 98 98 97 97 97 98 95 96 95 95 95 96 95 96 96 97
59 61 63 68 65 95 92 97 99 99 100 99 98 100 96 97 99 97 98 97 97 98 98 97 96 97 98 98 98 98 96 96 97 97 96 97 98 96 96 97 97 99 97 96
50 51 56 49 43 29 56 88 99 98 99 98 97 99 99 98 98 97 98 95 94 97 94 98 98 98 98 98 92 83 80 87 90 87 92 96 94 93 92 96 97 97 97 95
46 43 39 33 25 21 24 49 89 45 98 97 97 98 97 99 96 98 98 97 98 98 97 98 98 96 93 94 68 56 61 53 62 66 80 73 78 80 66 76 85 83 83 94
31 32 23 24 18 15 13 15 31 24 69 84 94 92 96 85 88 92 84 95 93 90 88 87 92 90 75 77 97 95 83 86 100 100 98 94 97 73 68 86 90 71 82 88
18 15 13 10 8 9 10 12 14 14 27 70 29 18 20 17 47 98 95 76 66 74 79 59 56 57 20 24 25 30 58 60 57 57 68 71 95 100 94 100 100 100 100 100
13 13 13 10 9 9 8 7 7 6 6 6 6 6 6 7 8 8 8 8 8 9 9 8 8 7 7 8 8 8 8 7 7 6 6 6 10 18 37 74 94 97 98 100
10 10 10 10 10 10 10 11 12 13 13 13 13 13 14 13 13 14 12 12 12 12 13 13 13 12 10 8 8 7 8 8 8 8 8 7 7 7 9 9 9 10 39 82
13 13 14 15 16 16 16 16 15 13 12 12 14 14 14 14 13 12 13 13 14 11 8 8 8 8 8 7 7 7 7 7 7 7 7 7 8 9 9 10 13 12 12 13
14 15 15 16 16 16 16 16 15 15 12 10 9 8 7 7 6 6 7 8 9 9 10 10 11 11 11 11 10 9 8 8 8 7 7 7 7 7 7 8 11 14 17 18
11 11 11 10 12 13 12 10 10 13 13 11 9 8 8 8 8 9 9 9 9 10 11 13 14 15 15 14 14 13 12 11 10 9 9 8 7 8 9 10 15 20 24 24
10 10 10 10 10 10 10 10 10 12 12 12 12 14 13 13 13 13 12 12 14 15 16 16 17 17 16 15 13 13 12 11 10 9 9 9 7 7 6 7 10 18 30 34
11 11 10 11 11 11 11 12 12 12 13 13 13 14 15 16 17 17 17 19 20 20 20 20 20 19 15 14 14 15 12 14 14 11 12 12 10 11 12 12 13 24 33 36
12 13 13 13 13 12 12 13 14 15 16 17 19 19 19 20 19 20 19 18 19 20 20 19 19 20 20 18 16 16 15 16 16 15 14 12 11 11 12 18 28 38 41 42
20 17 14 14 15 16 15 15 18 20 21 21 21 22 24 25 27 27 26 26 25 23 23 22 22 24 25 22 22 22 21 21 22 19 16 14 12 12 14 22 34 40 41 42
22 21 22 24 22 16 16 16 18 20 24 25 25 26 26 27 25 27 28 28 26 23 23 22 23 25 29 27 27 28 28 27 26 25 21 18 17 20 25 31 36 35 27 12
30 31 28 23 24 26 28 22 18 19 20 20 22 22 24 26 24 26 30 31 28 28 27 27 28 31 36 35 33 36 36 32 33 37 36 33 28 28 32 32 28 15 7 8
29 28 31 32 30 28 29 32 30 24 23 22 23 23 25 27 30 32 33 36 35 35 36 35 36 40 43 42 40 41 44 42 41 47 45 40 33 35 32 27 14 7 8 11
34 30 27 28 31 33 34 34 31 26 27 29 30 31 31 33 35 35 38 40 44 47 50 49 48 51 52 52 50 51 51 52 51 55 55 48 40 36 29 14 8 9 11 13
35 36 36 33 30 31 33 34 34 33 34 36 37 38 39 40 43 43 44 46 50 53 57 61 63 64 65 65 65 63 61 62 59 58 57 47 39 31 18 8 10 13 14 15
43 39 41 41 41 38 36 35 35 36 38 41 40 41 45 48 50 52 54 56 63 77 75 77 80 80 77 75 73 71 67 66 62 60 54 43 34 21 10 10 13 14 13 14
64 59 56 51 49 48 46 45 44 45 48 49 50 50 52 56 62 66 70 80 88 95 92 92 91 91 86 82 80 77 74 72 64 60 50 39 26 13 9 12 12 11 13 14
78 71 62 65 59 56 56 61 60 58 59 56 59 61 60 62 75 85 90 95 97 99 96 96 98 97 93 88 88 84 80 71 63 56 44 32 18 9 10 12 11 10 12 14
73 70 79 87 69 72 71 68 64 68 69 69 72 73 75 76 79 87 95 96 98 98 99 99 98 97 93 92 89 84 79 67 60 50 37 23 11 9 12 12 11 10 13 14
90 96 94 93 95 100 97 94 81 76 75 73 80 84 87 90 93 96 98 98 98 98 98 97 97 96 95 92 86 84 73 65 55 43 30 15 9 12 13 12 12 12 14 14
81 90 95 100 100 99 98 96 99 97 96 97 90 84 88 94 96 97 98 99 99 99 99 99 100 98 93 85 80 78 68 60 47 36 20 10 11 13 13 13 14 14 16 14
14 32 67 91 99 100 99 98 100 100 95 96 97 97 96 98 98 98 98 98 98 98 99 99 99 97 91 83 82 74 65 51 41 28 13 10 14 15 15 16 15 16 17 13

GFSNGP_500_rhum_132.txt.gz
RH
70 85 71 68 72 78 99 100 96 97 98 96 97 96 97 98 95 95 98 96 96 97 95 98 93 96 97 98 98 98 95 98 97 98 98 98 86 90 97 98 97 96 97 98
56 55 52 56 48 53 88 100 100 97 98 96 97 96 97 98 98 96 97 97 97 97 96 98 98 98 97 98 98 98 97 97 97 99 98 98 98 97 97 97 97 95 94 96
46 34 36 33 50 66 74 93 98 98 96 96 96 99 97 97 97 97 98 98 98 98 98 98 97 91 96 98 96 96 97 97 97 97 97 97 97 97 97 97 96 97 97 97
24 29 26 24 22 53 71 81 100 97 98 98 97 98 97 98 98 99 96 96 96 94 92 85 94 92 95 89 93 100 98 98 99 88 89 90 95 92 94 95 97 95 96 94
17 20 18 16 9 28 40 67 78 97 98 95 100 98 100 100 100 100 98 91 82 75 94 85 86 87 91 90 85 74 93 98 99 96 61 84 81 72 69 90 92 75 71 70
11 11 11 9 7 7 24 34 60 67 79 72 22 44 64 95 92 76 92 58 65 53 38 26 15 12 10 7 8 8 7 10 28 47 38 25 53 72 66 61 64 94 97 98
10 8 7 7 7 6 8 17 18 7 6 7 8 7 11 15 10 8 8 7 8 7 8 9 7 6 6 6 6 5 5 5 5 5 5 5 5 5 4 4 4 4 5 20
11 10 10 10 9 9 9 8 8 10 11 11 11 11 11 11 10 10 9 9 8 8 9 8 8 7 7 7 7 6 6 6 6 6 6 6 6 5 5 5 5 5 5 5
15 14 14 14 13 13 13 13 11 12 13 14 12 11 11 10 8 7 7 8 8 8 8 8 8 9 9 9 9 8 8 8 8 8 8 8 7 6 6 6 6 6 6 6
13 13 13 13 12 13 14 13 14 13 12 10 8 8 9 8 8 8 9 10 11 12 13 14 14 14 14 13 13 12 12 11 10 9 9 10 10 10 9 8 8 8 8 9
12 13 12 12 11 11 11 13 13 12 10 10 9 8 8 8 9 10 11 12 14 16 18 19 20 21 20 17 16 14 13 11 10 10 10 10 11 12 12 13 11 10 9 10
11 12 12 11 11 11 10 11 12 13 13 13 14 14 16 17 18 18 18 18 19 19 20 18 18 18 18 17 16 16 15 14 12 10 11 13 14 14 14 14 15 15 12 13
12 11 11 10 11 12 13 13 14 14 14 14 14 15 16 16 16 17 18 18 18 20 22 21 19 19 19 19 19 19 19 19 16 14 14 16 18 18 19 20 20 21 21 22
12 12 13 14 14 12 12 13 14 15 16 17 19 20 22 23 25 26 26 27 26 24 22 21 21 21 21 21 21 22 22 22 22 24 23 22 21 22 24 26 27 26 26 28
21 21 21 18 15 16 17 16 15 17 20 22 24 23 24 25 26 27 28 28 27 25 23 23 23 24 25 26 27 27 27 28 27 29 31 32 33 33 32 31 35 32 33 36
29 28 24 23 23 24 23 18 18 20 21 22 23 24 24 24 24 26 28 28 28 28 29 30 33 34 33 33 34 37 38 39 38 38 40 40 40 41 42 41 38 33 38 39
29 29 30 32 30 26 23 26 29 30 27 23 21 21 21 22 23 24 26 28 30 30 32 35 38 42 45 45 46 47 49 49 47 49 50 48 48 48 46 45 38 40 42 35
30 27 28 26 26 29 31 30 28 28 30 33 34 28 26 26 27 30 31 31 32 29 33 38 39 43 48 52 56 60 61 61 59 58 58 56 54 52 49 40 38 43 37 27
39 31 29 33 28 26 26 27 28 29 31 32 30 26 26 27 30 30 29 30 31 33 34 38 39 42 50 70 75 70 68 69 70 66 65 61 58 55 50 43 44 39 29 18
35 42 39 33 36 37 35 31 28 29 29 29 28 29 28 27 30 28 30 32 34 41 38 46 47 54 73 86 83 78 75 76 74 69 66 62 56 56 49 46 42 31 20 10
56 42 39 43 47 42 39 39 41 44 40 36 35 35 33 33 34 33 36 39 39 49 55 64 69 91 95 88 82 84 81 82 79 72 68 62 62 58 51 45 35 23 12 10
63 62 59 52 55 62 62 54 51 51 46 47 50 51 50 49 46 47 49 50 48 54 57 65 81 96 97 96 89 88 88 87 86 77 67 65 63 55 48 38 26 14 9 11
45 77 77 66 61 64 67 66 68 66 63 62 59 53 53 57 61 63 62 63 63 67 69 72 92 98 98 96 93 90 92 91 88 77 68 66 60 51 42 31 18 9 10 13
13 10 11 23 54 79 87 83 76 73 73 76 80 75 70 74 72 68 64 69 73 75 74 86 98 98 99 98 99 97 95 96 89 77 70 64 55 46 34 24 12 9 14 15
33 32 27 20 15 14 15 29 41 70 90 94 98 100 98 98 100 96 97 95 88 83 88 99 98 98 98 99 100 100 97 96 91 78 71 61 50 38 30 17 8 11 15 17
32 44 48 47 38 29 23 16 15 23 52 73 82 95 98 97 99 100 100 96 94 99 100 100 99 99 100 100 100 100 100 98 90 79 68 56 42 35 25 11 9 15 18 19
46 42 38 37 30 22 25 29 26 20 26 38 45 70 93 98 99 98 97 96 100 100 100 99 99 100 100 100 100 100 99 97 90 79 65 49 39 34 17 9 13 18 21 19

GFSNGP_500_rhum_135.txt.gz
RH
46 37 37 43 62 100 87 82 86 96 97 98 96 93 94 96 97 98 95 98 92 95 98 92 99 97 99 98 98 98 98 98 96 97 99 100 100 48 19 6 3 6 10 13
36 33 29 26 67 88 84 79 92 97 90 84 94 96 100 98 97 96 96 96 98 97 98 95 96 98 97 98 98 97 96 92 97 98 98 98 98 99 62 14 4 7 5 7
27 28 21 22 39 83 78 85 97 97 97 94 90 98 99 98 98 95 96 97 98 94 82 97 98 97 97 98 96 92 94 91 92 97 98 98 98 96 97 98 98 98 98 98
14 17 15 14 38 77 71 86 86 91 100 99 99 100 99 97 100 98 98 97 90 89 82 89 98 80 96 97 98 98 97 98 99 98 98 97 97 98 98 98 98 97 97 97
10 9 9 10 20 51 76 86 86 93 99 99 95 95 99 97 97 89 84 63 61 38 23 23 22 32 19 30 85 96 96 84 91 97 99 98 94 94 91 95 92 90 93 94
7 6 6 7 15 45 67 94 90 89 90 75 84 73 83 53 54 20 7 6 6 5 5 5 6 5 6 5 5 5 5 5 6 8 15 19 16 14 13 13 18 19 17 16
6 6 5 6 15 30 50 40 60 21 6 7 15 13 13 8 9 7 7 7 7 7 7 7 7 6 7 6 7 6 6 6 6 5 5 5 5 5 5 5 5 5 5 5
12 10 8 7 7 8 8 8 8 8 8 9 8 8 8 7 7 7 7 7 7 7 8 9 9 9 8 7 8 7 7 7 7 8 7 7 6 6 6 6 7 7 7 7
10 11 9 8 8 9 9 10 10 9 8 8 8 8 8 8 8 9 9 9 10 11 10 9 9 10 10 8 8 8 8 8 7 7 7 7 8 8 8 8 8 8 8 9
13 12 12 11 11 10 9 9 9 9 9 8 8 8 9 9 10 11 12 12 12 11 12 12 13 13 13 11 11 10 10 9 9 9 9 10 11 12 12 12 12 12 12 12
10 10 11 11 12 12 13 12 12 11 9 8 9 10 10 10 11 11 12 14 15 15 15 16 17 18 18 18 18 19 18 16 14 13 12 12 12 13 14 14 15 15 16 15
11 10 10 10 10 11 12 12 12 13 13 13 13 13 14 15 15 15 15 16 17 18 19 18 18 18 17 18 17 17 15 14 13 13 13 15 16 17 18 20 20 22 21 22
11 11 11 11 12 12 13 13 13 14 14 14 14 15 17 18 18 19 20 22 24 24 22 21 21 21 21 21 23 23 19 19 19 18 19 20 19 18 19 20 22 24 25 24
12 12 12 12 12 11 12 12 13 15 16 16 17 17 18 18 19 20 20 22 24 26 28 28 26 28 30 31 30 29 28 28 30 29 28 28 28 26 27 26 28 30 29 28
20 20 20 19 17 14 13 15 16 15 16 19 21 22 23 24 24 25 25 26 27 27 27 28 29 28 29 31 35 36 37 39 42 45 45 43 40 39 38 36 35 33 33 31
30 31 29 28 26 24 22 22 21 18 16 17 20 21 22 23 22 22 23 24 24 25 25 26 27 26 26 28 30 34 40 44 56 62 55 49 47 47 45 43 42 38 35 34
42 41 39 36 32 32 32 31 27 24 24 26 28 28 29 28 26 25 25 26 26 27 29 29 29 30 31 32 34 36 40 47 60 72 64 63 58 56 56 53 49 45 39 41
34 33 39 42 36 34 35 35 32 31 32 30 28 28 30 31 34 36 33 29 29 32 33 34 30 34 36 37 40 45 51 56 70 71 70 67 62 59 59 59 57 51 48 47
52 48 45 35 35 45 44 38 41 42 39 35 33 35 35 35 34 33 34 36 34 34 36 42 44 45 45 46 49 58 83 86 92 93 87 81 75 69 69 68 65 57 54 47
41 55 60 59 59 47 37 39 42 39 39 41 46 49 49 46 40 39 41 44 42 41 44 42 46 50 56 59 61 63 70 85 96 98 96 89 84 80 80 77 74 63 55 45
7 13 38 60 66 65 64 62 50 43 44 43 43 46 48 52 52 55 56 56 55 50 54 53 55 59 62 66 71 78 92 94 96 97 97 96 94 93 92 88 80 69 55 44
12 10 9 11 21 35 45 70 76 75 73 70 66 66 66 62 57 55 58 68 73 69 72 68 70 73 73 79 93 98 98 98 98 98 100 99 98 96 95 94 88 74 52 39
24 25 27 28 29 25 20 17 16 18 28 48 60 76 85 84 83 79 73 80 83 84 90 93 95 93 92 95 97 97 99 98 98 99 100 99 100 97 97 98 91 68 46 36
38 46 44 43 44 53 52 58 55 52 43 31 22 19 19 24 53 76 86 89 89 94 96 98 98 99 99 99 96 100 99 99 99 100 100 98 98 98 100 99 85 57 40 33
35 36 37 40 35 33 34 40 43 45 41 51 58 46 35 30 26 54 60 84 99 99 98 100 100 100 100 100 100 98 98 97 99 100 100 100 100 100 100 98 74 48 37 25
60 60 58 58 56 53 48 46 46 50 56 47 37 35 30 29 34 46 70 84 94 100 100 100 100 100 100 100 100 100 100 100 100 100 100 100 100 100 100 93 62 42 34 16
83 71 52 30 13 15 12 10 10 10 7 4 4 7 12 19 39 99 100 100 100 100 100 100 100 100 100 100 100 96 99 100 100 100 100 100 100 100 100 82 52 39 26 9

GFSNGP_500_rhum_138.txt.gz
RH
30 26 27 48 95 94 96 96 96 98 98 97 98 97 97 95 94 96 92 93 86 82 88 95 92 90 98 77 75 76 82 97 97 93 91 97 100 100 91 78 39 8 6 6
29 20 21 33 88 90 94 92 93 94 95 96 100 99 98 100 96 92 89 65 65 84 91 95 88 90 92 86 81 95 94 97 97 99 97 93 97 100 100 98 72 22 9 5
15 16 24 46 80 80 81 84 85 83 89 98 99 98 97 98 97 98 95 84 73 68 50 74 83 94 74 87 87 96 99 98 98 95 96 99 98 99 98 98 98 52 11 5
9 18 33 48 68 68 69 73 81 88 97 100 96 97 98 92 91 87 62 60 46 27 20 23 57 96 95 79 100 99 96 98 98 98 98 98 98 98 96 98 98 98 100 68
8 15 26 40 54 55 61 72 79 89 86 86 86 83 75 83 38 14 8 8 7 7 8 7 8 10 8 33 61 84 86 88 90 88 77 96 93 99 98 98 96 96 96 93
6 9 21 39 50 54 56 67 76 83 78 79 67 54 16 7 7 7 7 6 6 6 6 6 6 7 7 7 8 8 8 10 11 19 37 28 24 26 34 34 45 46 29 32
6 6 14 27 42 54 51 37 29 8 7 10 12 8 6 7 6 6 7 7 7 7 7 8 8 8 8 8 9 8 8 7 6 6 6 6 6 5 6 5 5 5 6 5
8 7 8 9 23 13 7 6 7 7 7 8 8 8 8 8 8 8 8 7 8 8 7 8 8 8 9 8 9 8 8 8 8 8 8 8 8 8 8 8 8 8 8 7
7 7 7 7 7 7 7 7 7 7 8 8 9 10 10 10 10 11 11 11 10 10 9 9 9 10 10 10 8 7 7 7 8 8 9 10 10 10 10 11 10 10 10 9
9 8 7 7 7 7 8 8 8 8 8 9 9 9 9 10 10 12 13 12 10 10 10 11 13 14 16 17 18 17 15 14 13 13 13 13 14 14 14 13 11 10 10 11
9 9 10 9 8 7 8 8 8 8 9 10 10 10 10 10 10 11 13 14 15 14 13 13 14 15 16 16 17 17 16 15 14 14 14 15 15 15 14 15 14 14 13 13
10 10 10 10 10 9 9 8 8 8 9 10 11 11 12 12 13 13 14 15 17 18 19 17 17 18 18 19 20 23 24 22 20 20 19 20 22 23 23 24 23 22 22 20
9 10 11 11 11 11 11 11 11 12 12 13 13 13 14 16 16 17 16 17 18 20 21 24 26 25 24 28 31 31 30 29 28 28 33 38 40 39 39 36 33 30 30 29
17 15 12 12 13 12 12 14 13 13 14 15 16 17 17 18 19 20 20 21 22 22 23 23 24 26 27 27 28 30 31 32 33 34 36 39 45 48 45 41 40 37 37 35
27 25 22 19 18 18 17 17 18 17 16 17 16 16 18 20 20 21 21 22 23 22 23 23 24 25 26 28 29 29 28 29 30 31 34 37 41 54 54 48 47 47 48 46
22 26 31 31 29 29 29 28 26 24 23 25 26 24 20 19 20 21 22 24 24 24 23 24 25 26 28 32 33 35 40 40 42 43 45 52 60 64 67 69 71 71 66 60
31 38 32 33 35 34 36 35 31 30 30 31 29 26 24 26 30 32 31 30 32 34 35 36 33 30 29 34 40 43 46 48 49 50 52 57 63 63 71 76 80 84 77 72
53 48 48 44 42 40 37 37 38 39 37 34 33 31 31 32 33 32 32 32 34 34 33 32 34 34 34 37 40 43 46 50 54 57 58 63 67 68 86 84 76 86 95 91
42 44 47 53 56 56 55 52 51 44 38 39 39 40 40 42 42 40 37 37 39 40 41 40 42 42 44 45 47 49 51 56 60 66 70 74 81 88 95 94 94 96 98 97
25 23 18 14 23 45 52 54 60 61 62 62 63 63 60 54 54 52 54 57 63 62 58 52 51 61 62 66 68 69 70 72 75 80 84 86 94 97 97 97 98 98 98 97
10 9 10 8 8 9 11 19 33 42 52 53 57 61 64 69 69 69 70 71 76 75 75 77 81 88 93 90 88 87 89 92 96 97 98 100 98 96 95 95 97 97 99 99
7 13 14 13 13 14 16 16 15 15 15 14 15 16 19 23 26 27 29 33 59 65 66 70 75 81 87 93 97 99 99 100 98 100 98 97 98 99 100 99 98 97 100 100
16 17 18 18 19 20 21 23 24 28 36 48 50 52 46 44 46 46 42 50 46 50 48 66 100 100 99 100 100 100 99 97 100 98 100 100 100 100 100 97 98 100 100 100
22 22 24 33 41 53 58 62 60 62 58 53 55 63 63 62 67 71 68 63 57 53 48 43 58 91 100 100 100 100 100 100 100 100 100 100 100 92 86 100 100 100 100 100
28 30 34 39 42 44 53 68 75 78 72 51 27 15 8 8 11 17 26 36 53 63 54 79 100 100 100 100 100 100 100 100 100 100 97 99 99 96 97 100 100 100 100 100
34 35 42 56 68 69 69 52 31 15 11 7 4 3 2 3 4 6 7 8 8 13 26 44 96 100 100 100 100 100 100 100 100 99 92 99 99 96 100 100 100 100 100 100
68 74 70 69 65 47 21 12 10 5 3 3 2 3 5 11 18 23 32 39 50 50 38 49 45 70 100 100 100 100 100 100 100 100 93 98 96 100 100 100 100 100 100 100